[[{"header":{"parameterUnit":"m.s-1","parameterCategory":1,"la1":30.6,"la2":29.2853,"lo1":-89.7004,"lo2":-87.6739,"dy":0.0162,"dx":0.0183,"nx":112,"ny":82,"refTime":"2026-04-15T12:00:00:Z","depth":0,"parameterNumber":2,"parameterNumberName":"U-component_of_WINDS"},"data":[0.0,0.0,0.0,0.0,0.0,0.0,0.0,0.0,0.0,0.0,0.0,0.0,0.0,0.0,0.0,0.0,0.0,0.0,0.0,0.0,0.0,0.0,0.0,0.0,0.0,0.0,0.0,0.0,0.0,0.0,0.0,0.0,0.0,0.0,0.0,0.0,0.0,0.0,0.0,0.0,0.0,0.0,0.0,0.0,0.0,0.0,0.0,0.0,0.0,0.0,0.0,0.0,0.0,0.0,0.0,0.0,0.0,0.0,0.0,0.0,0.0,0.0,0.0,0.0,0.0,0.0,0.0,0.0,0.0,0.0,0.0,0.0,0.0,0.0,0.0,0.0,0.0,0.0,0.0,0.0,0.0,0.0,0.0,0.0,0.0,0.0,0.0,0.0,0.0,0.0,0.8054,0.9745,1.185,1.2928,1.246,1.1812,1.1016,1.0056,0.0,0.0,0.0,0.0,0.0,0.0,0.0,0.0,0.0,0.0,0.0,0.0,0.0,0.0,0.0,0.0,0.0,0.0,0.0,0.0,0.0,0.0,0.0,0.0,0.0,0.0,0.0,0.0,0.0,0.0,0.0,0.0,0.0,0.0,0.0,0.0,0.0,0.0,0.0,0.0,0.0,0.0,0.0,0.0,0.0,0.0,0.0,0.0,0.0,0.0,0.0,0.0,0.0,0.0,0.0,0.0,0.0,0.0,0.0,0.0,0.0,0.0,0.0,0.0,0.0,0.0,0.0,0.0,0.0,0.0,0.0,0.0,0.0,0.0,0.0,0.0,0.0,0.0,0.0,0.0,0.0,0.0,0.0,0.0,0.0,0.0,0.0,0.0,0.0,0.0,0.0,0.0,0.0,0.0,0.0,0.0,0.0,0.0,0.0,0.0,0.0,0.0,0.0,0.0,0.7177,0.8974,0.9998,1.0382,0.9909,0.9562,0.902,0.8251,0.0,0.0,0.0,0.0,0.0,0.0,0.0,0.0,0.0,0.0,0.0,0.0,0.0,0.0,0.0,0.0,0.0,0.0,0.0,0.0,0.0,0.0,0.0,0.0,0.0,0.0,0.0,0.0,0.0,0.0,0.0,0.0,0.0,0.0,0.0,0.0,0.0,0.0,0.0,0.0,0.0,0.0,0.0,0.0,0.0,0.0,0.0,0.0,0.0,0.0,0.0,0.0,0.0,0.0,0.0,0.0,0.0,0.0,0.0,0.0,0.0,0.0,0.0,0.0,0.0,0.0,0.0,0.0,0.0,0.0,0.0,0.0,0.0,0.0,0.0,0.0,0.0,0.0,0.0,0.0,0.0,0.0,0.0,0.0,0.0,0.0,0.0,0.0,0.0,0.0,0.0,0.0,0.0,0.0,0.0,0.0,0.0,0.0,0.0,0.0,0.0,0.0,0.0,0.6159,0.7411,0.8463,0.9144,0.9328,0.8915,0.8575,0.8113,0.7415,0.7038,0.0,0.0,0.0,0.0,0.0,0.0,0.0,0.0,0.0,0.0,0.0,0.0,0.0,0.0,0.0,0.0,0.0,0.0,0.0,0.0,0.0,0.0,0.0,0.0,0.0,0.0,0.0,0.0,0.0,0.0,0.0,0.0,0.0,0.0,0.0,0.0,0.0,0.0,0.0,0.0,0.0,0.0,0.0,0.0,0.0,0.0,0.0,0.0,0.0,0.0,0.0,0.0,0.0,0.0,0.0,0.0,0.0,0.0,0.0,0.0,0.0,0.0,0.0,0.0,0.0,0.0,0.0,0.0,0.0,0.0,0.0,0.0,0.0,0.0,0.0,0.0,0.0,0.0,0.0,0.0,0.0,0.0,0.0,0.0,0.0,0.0,0.0,0.0,0.0,0.0,0.0,0.0,0.0,0.0,0.0,0.0,0.0,0.0,0.0,0.0,0.0,0.0,0.6487,0.7445,0.7827,0.8412,0.8588,0.8079,0.7782,0.7341,0.6647,0.5846,0.0,0.0,0.0,0.0,0.0,0.0,0.0,0.0,0.0,0.0,0.0,0.0,0.0,0.0,0.0,0.0,0.0,0.0,0.0,0.0,0.0,0.0,0.0,0.0,0.0,0.0,0.0,0.0,0.0,0.0,0.0,0.0,0.0,0.0,0.0,0.0,0.0,0.0,0.0,0.0,0.0,0.0,0.0,0.0,0.0,0.0,0.0,0.0,0.0,0.0,0.0,0.0,0.0,0.0,0.0,0.0,0.0,0.0,0.0,0.0,0.0,0.0,0.0,0.0,0.0,0.0,0.0,0.0,0.0,0.0,0.0,0.0,0.0,0.0,0.0,0.0,0.0,0.0,0.0,0.0,0.0,0.0,0.0,0.0,0.0,0.0,0.0,0.0,0.0,0.0,0.0,0.0,0.0,0.0,0.0,0.0,0.0,0.0,0.0,0.0,0.0,0.0,0.5677,0.6517,0.6857,0.7437,0.7508,0.6796,0.6594,0.6209,0.5469,0.4889,0.0,0.0,0.0,0.0,0.0,0.0,0.0,0.0,0.0,0.0,0.0,0.0,0.0,0.0,0.0,0.0,0.0,0.0,0.0,0.0,0.0,0.0,0.0,0.0,0.0,0.0,0.0,0.0,0.0,0.0,0.0,0.0,0.0,0.0,0.0,0.0,0.0,0.0,0.0,0.0,0.0,0.0,0.0,0.0,0.0,0.0,0.0,0.0,0.0,0.0,0.0,0.0,0.0,0.0,0.0,0.0,0.0,0.0,0.0,0.0,0.0,0.0,0.0,0.0,0.0,0.0,0.0,0.0,0.0,0.0,0.0,0.0,0.0,0.0,0.0,0.0,0.0,0.0,0.0,0.0,0.0,0.0,0.0,0.0,0.0,0.0,0.0,0.0,0.0,0.0,0.0,0.0,0.0,0.0,0.0,0.0,0.0,0.0,0.0,0.0,0.0,0.0,0.4657,0.5422,0.0,0.6139,0.6241,0.5872,0.5796,0.5542,0.4968,0.0,0.0,0.0,0.0,0.0,0.0,0.0,0.0,0.0,0.0,0.0,0.0,0.0,0.0,0.0,0.0,0.0,0.0,0.0,0.0,0.0,0.0,0.0,0.0,0.0,0.0,0.0,0.0,0.0,0.0,0.0,0.0,0.0,0.0,0.0,0.0,0.0,0.0,0.0,0.0,0.0,0.0,0.0,0.0,0.0,0.0,0.0,0.0,0.0,0.0,0.0,0.0,0.0,0.0,0.0,0.0,0.0,0.0,0.0,0.0,0.0,0.0,0.0,0.0,0.0,0.0,0.0,0.0,0.0,0.0,0.0,0.0,0.0,0.0,0.0,0.0,0.0,0.0,0.0,0.0,0.0,0.0,0.0,0.0,0.0,0.0,0.0,0.0,0.0,0.0,0.0,0.0,0.0,0.0,0.0,0.0,0.0,0.0,0.0,0.0,0.0,0.0,0.2509,0.3487,0.4215,0.0,0.48,0.4992,0.4844,0.4937,0.48,0.4371,0.0,0.0,0.0,0.0,0.0,0.0,0.0,0.0,0.0,0.0,0.0,0.0,0.0,0.0,0.0,0.0,0.0,0.0,0.0,0.0,0.0,0.0,0.0,0.0,0.0,0.0,0.0,0.0,0.0,0.0,0.0,0.0,0.0,0.0,0.0,0.0,0.0,0.0,0.0,0.0,0.0,0.0,0.0,0.0,0.0,0.0,0.0,0.0,0.0,0.0,0.0,0.0,0.0,0.0,0.0,0.0,0.0,0.0,0.0,0.0,0.0,0.0,0.0,0.0,0.0,0.0,0.0,0.0,0.0,0.0,0.0,0.0,0.0,0.0,0.0,0.0,0.0,0.0,0.0,0.0,0.0,0.0,0.0,0.0,0.0,0.0,0.0,0.0,0.0,0.0,0.0,0.0,0.0,0.0,0.0,0.0,0.0,0.0,0.0,0.0,0.0,0.0,0.1152,0.2171,0.2893,0.2967,0.3522,0.3791,0.3592,0.3895,0.3949,0.0,0.0,0.0,0.0,0.0,0.0,0.0,0.0,0.0,0.0,0.0,0.0,0.0,0.0,0.0,0.0,0.0,0.0,0.0,0.0,0.0,0.0,0.0,0.0,0.0,0.0,0.0,0.0,0.0,0.0,0.0,0.0,0.0,0.0,0.0,0.0,0.0,0.0,0.0,0.0,0.0,0.0,0.0,0.0,0.0,0.0,0.0,0.0,0.0,0.0,0.0,0.0,0.0,0.0,0.0,0.0,0.0,0.0,0.0,0.0,0.0,0.0,0.0,0.0,0.0,0.0,0.0,0.0,0.0,0.0,0.0,0.0,0.0,0.0,0.0,0.0,0.0,0.0,0.0,0.0,0.0,0.0,0.0,0.0,0.0,0.0,0.0,0.0,0.0,0.0,0.0,0.0,0.0,0.0,0.0,0.0,0.0,0.0,0.0,0.0,0.0,0.0,0.0,0.0433,0.105,0.1564,0.1778,0.1996,0.2274,0.2644,0.3243,0.357,0.3475,0.0,0.0,0.0,0.0,0.0,0.0,0.0,0.0,0.0,0.0,0.0,0.0,0.0,0.0,0.0,0.0,0.0,0.0,0.0,0.0,0.0,0.0,0.0,0.0,0.0,0.0,0.0,0.0,0.0,0.0,0.0,0.0,0.0,0.0,0.0,0.0,0.0,0.0,0.0,0.0,0.0,0.0,0.0,0.0,0.0,0.0,0.0,0.0,0.0,0.0,0.0,0.0,0.0,0.0,0.0,0.0,0.0,0.0,0.0,0.0,0.0,0.0,0.0,0.0,0.0,0.0,0.0,0.0,0.0,0.0,0.0,0.0,0.0,0.0,0.0,0.0,0.0,0.0,0.0,0.0,0.0,0.0,0.0,0.0,0.0,0.0,0.0,0.0,0.0,0.0,0.0,0.0,0.0,0.0,0.0,0.0,0.0,0.0,0.0,0.0,0.0,0.0,-0.0434,-0.0144,0.0105,0.0239,0.0502,0.0917,0.145,0.2498,0.3148,0.3195,0.0,0.0,0.0,0.0,0.0,0.0,0.0,0.0,0.0,0.0,0.0,0.0,0.0,0.0,0.0,0.0,0.0,0.0,0.0,0.0,0.0,0.0,0.0,0.0,0.0,0.0,0.0,0.0,0.0,0.0,0.0,0.0,0.0,0.0,0.0,0.0,0.0,0.0,0.0,0.0,0.0,0.0,0.0,0.0,0.0,0.0,0.0,0.0,0.0,0.0,0.0,0.0,0.0,0.0,0.0,0.0,0.0,0.0,0.0,0.0,0.0,0.0,0.0,0.0,0.0,0.0,0.0,0.0,0.0,0.0,0.0,0.0,0.0,0.0,0.0,0.0,0.0,0.0,0.0,0.0,0.0,0.0,0.0,0.0,0.0,0.0,0.0,0.0,0.0,0.0,0.0,0.0,0.0,0.0,0.0,0.0,0.0,0.0,0.0,0.0,0.0,0.0,-0.1266,-0.1264,-0.1252,-0.1254,-0.0753,-0.0167,0.0383,0.1835,0.2815,0.2955,0.0,0.0,0.0,0.0,0.0,0.0,0.0,0.0,0.0,0.0,0.0,0.0,0.0,0.0,0.0,0.0,0.0,0.0,0.0,0.0,0.0,0.0,0.0,0.0,0.0,0.0,0.0,0.0,0.0,0.0,0.0,0.0,0.0,0.0,0.0,0.0,0.0,0.0,0.0,0.0,0.0,0.0,0.0,0.0,0.0,0.0,0.0,0.0,0.0,0.0,0.0,0.0,0.0,0.0,0.0,0.0,0.0,0.0,0.0,0.0,-0.6164,0.0,0.0,0.0,0.0,0.0,0.0,0.0,0.0,0.0,0.0,0.0,0.0,0.0,0.0,0.0,0.0,0.0,0.0,0.0,0.0,0.0,0.0,0.0,0.0,0.0,0.0,0.0,0.0,0.0,0.0,0.0,0.0,0.0,0.0,0.0,0.0,0.0,0.0,0.0,0.0,0.0,-0.1286,-0.1466,-0.1418,-0.0959,-0.0607,0.0055,0.1218,0.2373,0.3161,0.3518,0.3982,0.0,0.0,0.0,0.0,0.0,0.0,0.0,0.0,0.0,0.0,0.0,0.0,0.0,0.0,0.0,0.0,0.0,0.0,0.0,0.0,0.0,0.0,0.0,0.0,0.0,0.0,0.0,0.0,0.0,0.0,0.0,0.0,0.0,0.0,0.0,0.0,0.0,0.0,0.0,0.0,0.0,0.0,0.0,0.0,0.0,0.0,0.0,0.0,0.0,0.0,0.0,0.0,0.0,0.0,0.0,0.0,0.0,0.0,0.0,0.0,-0.6668,0.0,0.0,0.0,0.0,0.0,0.0,0.0,0.0,0.0,0.0,0.0,0.0,0.0,0.0,0.0,0.0,0.0,0.0,0.0,0.0,0.0,0.0,0.0,0.0,0.0,0.0,0.0,0.0,0.0,0.0,0.0,0.0,0.0,0.0,0.0,0.0,0.0,0.0,0.0,0.0,-0.129,-0.1543,-0.153,-0.1092,-0.055,0.022,0.1276,0.267,0.3591,0.3869,0.4356,0.0,0.0,0.0,0.0,0.0,0.0,0.0,0.0,0.0,0.0,0.0,0.0,0.0,0.0,0.0,0.0,0.0,0.0,0.0,0.0,0.0,0.0,0.0,0.0,0.0,0.0,0.0,0.0,0.0,0.0,0.0,0.0,0.0,0.0,0.0,0.0,0.0,0.0,0.0,0.0,0.0,0.0,0.0,0.0,0.0,0.0,0.0,0.0,0.0,0.0,0.0,0.0,0.0,-0.8939,-0.9187,-0.9499,-0.9484,-0.9615,-0.9796,-0.8634,-0.7996,-0.7768,0.0,0.0,0.0,0.0,0.0,0.0,0.0,0.0,0.0,0.0,0.0,0.0,0.0,0.0,0.0,0.0,0.0,0.0,0.0,0.0,0.0,0.0,0.0,0.0,0.0,-0.4444,-0.4324,0.0,0.0,0.0,0.0,0.0,0.0,0.0,0.0,0.0,0.0,0.0,0.0,-0.1301,-0.1511,-0.1491,-0.1092,-0.033,0.0522,0.1411,0.3032,0.4051,0.4218,0.4772,0.486,0.0,0.0,0.0,0.0,0.0,0.0,0.0,0.0,0.0,0.0,0.0,0.0,0.0,0.0,0.0,0.0,0.0,0.0,0.0,0.0,0.0,0.0,0.0,0.0,0.0,0.0,0.0,0.0,0.0,0.0,0.0,0.0,-0.6428,-0.6895,0.0,0.0,0.0,0.0,0.0,0.0,0.0,0.0,0.0,0.0,0.0,0.0,0.0,-0.9582,-1.0116,-1.0112,-1.0316,-1.0729,-1.0647,-1.0758,-1.1089,-1.0972,-1.1197,-1.1635,-1.0999,0.0,-0.8861,-0.8549,0.0,0.0,0.0,0.0,0.0,0.0,0.0,0.0,0.0,0.0,0.0,0.0,0.0,0.0,0.0,0.0,0.0,0.0,0.0,0.0,0.0,0.0,-0.4653,-0.4593,-0.4615,-0.4514,0.0,-0.3707,-0.3385,-0.2797,0.0,0.0,0.0,0.0,0.0,0.0,0.0,0.0,-0.1373,-0.1377,-0.1039,-0.0186,0.0439,0.138,0.2872,0.3813,0.4472,0.4786,0.5145,0.513,0.4662,0.4262,0.0,0.0,0.0,0.0,0.0,0.0,0.0,0.0,0.0,0.0,0.0,0.0,0.0,0.0,0.0,0.0,0.0,0.0,0.0,0.0,0.0,0.0,0.0,0.0,0.0,0.0,0.0,0.0,0.0,-0.6801,-0.7327,-0.7921,-0.8123,-0.8253,0.0,0.0,0.0,0.0,0.0,0.0,0.0,0.0,0.0,-1.1073,-1.1181,-1.1506,-1.2118,-1.209,-1.2155,-1.2335,-1.219,-1.2282,-1.2534,-1.2415,-1.2532,-1.2773,-1.2431,-1.1631,-1.0553,-0.9516,-0.8902,-0.85,0.0,0.0,0.0,0.0,0.0,-0.5806,-0.5378,0.0,0.0,0.0,0.0,0.0,0.0,0.0,0.0,0.0,0.0,0.0,0.0,0.0,0.0,-0.4831,-0.4851,-0.4745,-0.423,-0.3751,-0.323,0.0,-0.2006,-0.1538,-0.1296,0.0,0.0,0.0,0.0,-0.128,-0.1182,-0.0947,-0.0508,0.0243,0.1104,0.2072,0.3201,0.4172,0.487,0.5214,0.5513,0.5507,0.5112,0.4661,0.4257,0.0,0.0,0.0,0.0,0.0,0.0,0.0,0.0,0.0,0.0,0.0,0.0,0.0,0.0,0.0,0.0,0.0,0.0,0.0,0.0,0.0,0.0,0.0,0.0,0.0,0.0,0.0,0.0,-0.7633,-0.8097,-0.8707,-0.9049,-0.9229,0.0,0.0,0.0,0.0,0.0,0.0,-1.0656,-1.1028,-1.1543,-1.2219,-1.2356,-1.2675,-1.3193,-1.3221,-1.3249,-1.3308,-1.3066,-1.3108,-1.3446,-1.3268,-1.3294,-1.3499,-1.3148,-1.255,-1.1721,-1.0209,-0.9369,-0.8975,-0.797,-0.7386,-0.7064,-0.6567,-0.6214,-0.5957,-0.561,-0.5475,-0.5432,-0.5204,0.0,-0.4293,-0.4049,0.0,0.0,0.0,0.0,-0.4208,-0.4263,0.0,-0.5102,-0.5102,-0.5139,-0.5027,-0.4497,-0.3883,-0.3208,0.0,-0.1839,-0.1396,-0.1271,0.0,0.0,0.0,0.0,-0.1125,-0.0838,-0.0432,0.0108,0.0873,0.1775,0.2652,0.347,0.4441,0.5136,0.5421,0.5738,0.5741,0.5403,0.4947,0.4503,0.4062,0.0,0.0,0.0,0.0,0.0,0.0,0.0,0.0,0.0,0.0,0.0,0.0,0.0,0.0,0.0,0.0,0.0,0.0,0.0,0.0,0.0,0.0,0.0,0.0,0.0,0.0,0.0,0.0,0.0,-0.921,-0.9935,0.0,0.0,0.0,0.0,-1.0082,-1.0423,-1.0716,-1.0876,-1.1492,-1.1859,-1.1837,-1.2273,-1.2528,-1.2629,-1.2882,-1.3106,-1.33,-1.2761,-1.2893,-1.3562,-1.3053,-1.3202,-1.384,-1.3001,-1.2371,-1.1875,-1.0376,-0.937,-0.862,-0.7608,-0.7107,-0.6851,-0.6249,-0.6001,-0.5944,-0.5556,-0.5396,-0.538,-0.5235,-0.4759,-0.4136,-0.3744,-0.3438,0.0,0.0,-0.388,-0.424,-0.4428,-0.4933,-0.5389,-0.5389,-0.5488,-0.5406,-0.4801,-0.4165,-0.3449,0.0,-0.195,-0.1478,-0.1413,0.0,-0.1283,-0.1293,-0.1127,-0.0817,-0.0317,0.0157,0.0901,0.2078,0.2499,0.307,0.406,0.4684,0.5086,0.5289,0.5673,0.5741,0.5403,0.4947,0.4624,0.4482,0.3886,0.0,0.0,0.0,0.0,0.0,0.0,0.0,0.0,0.0,0.0,0.0,0.0,0.0,0.0,0.0,0.0,0.0,0.0,0.0,0.0,0.0,0.0,0.0,0.0,0.0,0.0,0.0,0.0,-0.9461,-1.0386,0.0,-1.0516,-1.0515,-1.0506,-1.0496,-1.0331,-1.0444,-1.0868,-1.132,-1.1703,-1.1973,-1.237,-1.2646,-1.2863,-1.3046,-1.3013,-1.2767,-1.2336,-1.2246,-1.2432,-1.2233,-1.2297,-1.2512,-1.2078,-1.1451,-1.0614,-0.9306,-0.8787,-0.8736,-0.7669,-0.7004,-0.6599,-0.6307,-0.5972,-0.5688,-0.5673,-0.5598,-0.5467,-0.5182,-0.4878,-0.4583,-0.422,-0.4041,-0.4013,-0.4138,-0.4404,-0.4676,-0.4786,-0.5131,-0.5463,-0.5463,-0.5528,-0.5422,-0.4788,-0.4148,-0.3482,-0.277,-0.2132,-0.1671,-0.1542,-0.1509,-0.141,-0.1211,-0.0783,-0.0318,0.018,0.1069,0.1894,0.2499,0.2989,0.354,0.4139,0.4684,0.5081,0.5284,0.5601,0.5632,0.5288,0.4903,0.4597,0.4382,0.3996,0.3735,0.0,0.0,0.0,0.0,0.0,0.0,0.0,0.0,0.0,0.0,0.0,0.0,0.0,0.0,0.0,0.0,0.0,0.0,0.0,0.0,0.0,0.0,0.0,0.0,0.0,-0.8192,-0.8663,-0.9499,-1.0541,-1.1097,-1.0783,-1.0741,-1.0673,-1.0496,-1.0096,-1.0049,-1.0546,-1.0778,-1.1109,-1.1503,-1.1722,-1.2008,-1.2303,-1.2403,-1.2331,-1.2029,-1.1598,-1.1418,-1.1478,-1.1328,-1.1306,-1.1398,-1.1021,-1.0417,-0.96,-0.8437,-0.8071,-0.8155,-0.7225,-0.6651,-0.6308,-0.621,-0.594,-0.5663,-0.5786,-0.5765,-0.5613,-0.5351,-0.5244,-0.5154,-0.4875,-0.4843,-0.4869,-0.4871,-0.4996,-0.5131,-0.5189,-0.5365,-0.5532,-0.5594,-0.5638,-0.5527,-0.4828,-0.4173,-0.3523,-0.2815,-0.2167,-0.1743,-0.1656,-0.1546,-0.1327,-0.09,-0.0327,0.0308,0.1015,0.1883,0.2577,0.297,0.3365,0.376,0.4166,0.4604,0.4953,0.5161,0.5428,0.5416,0.5081,0.4825,0.4597,0.4377,0.4105,0.3875,0.3666,0.0,0.0,0.0,0.0,0.0,0.0,0.0,0.0,0.0,0.0,0.0,0.0,0.0,0.0,0.0,0.0,0.0,0.0,0.0,0.0,0.0,0.0,0.0,-0.7474,-0.7985,-0.856,-0.9275,-1.0415,-1.102,-1.0681,-1.0735,-1.0571,-1.0106,-0.9691,-0.958,-0.9828,-0.991,-1.0076,-1.0324,-1.0338,-1.0511,-1.0833,-1.096,-1.1034,-1.1027,-1.0573,-1.0528,-1.0826,-1.0351,-1.0326,-1.0585,-0.9848,-0.935,-0.895,-0.7912,-0.7283,-0.6922,-0.6257,-0.6001,-0.5988,-0.5926,-0.5894,-0.5894,-0.589,-0.5863,-0.582,-0.5816,-0.5816,-0.5769,-0.565,-0.5712,-0.5761,-0.5642,-0.552,-0.55,-0.5531,-0.5555,-0.5579,-0.5697,-0.579,-0.5624,-0.4887,-0.4212,-0.3527,-0.2728,-0.2078,-0.1679,-0.1679,-0.1394,-0.0963,-0.0364,0.0184,0.0,0.2157,0.2553,0.2942,0.353,0.3589,0.376,0.4166,0.4441,0.4666,0.4871,0.5122,0.5129,0.4819,0.4726,0.4624,0.4503,0.4235,0.4023,0.385,0.0,0.0,0.0,0.0,0.0,0.0,0.0,0.0,0.0,0.0,0.0,0.0,0.0,0.0,0.0,0.0,0.0,0.0,0.0,0.0,0.0,-0.651,-0.6815,-0.7189,-0.7526,-0.7932,-0.8466,-0.95,-1.0059,-0.9778,-0.985,-0.9723,-0.927,-0.8917,-0.8727,-0.8796,-0.8915,-0.9028,-0.9098,-0.9191,-0.9318,-0.9446,-0.9665,-0.9729,-0.9642,-0.9411,-0.9331,-0.9375,-0.9147,-0.8956,-0.879,-0.859,-0.8156,-0.755,-0.725,-0.6953,-0.6606,-0.6333,-0.6211,-0.6203,-0.6141,-0.6108,-0.61,-0.6004,-0.5967,-0.5935,-0.59,-0.588,-0.5876,-0.5821,-0.5814,-0.5744,-0.5451,-0.513,-0.4811,-0.4626,-0.4441,-0.4313,-0.4348,-0.4386,-0.4246,-0.3583,-0.308,-0.2562,-0.1814,-0.1373,-0.1194,-0.1384,-0.1022,-0.0502,0.011,0.0,0.0,0.2529,0.2987,0.3374,0.3583,0.3589,0.3678,0.39,0.4153,0.4362,0.4449,0.4728,0.4824,0.4742,0.4622,0.4498,0.4349,0.4327,0.453,0.0,0.0,0.0,0.0,0.0,0.0,0.0,0.0,0.0,0.0,0.0,0.0,0.0,0.0,0.0,0.0,0.0,0.0,0.0,0.0,0.0,0.0,-0.6702,-0.7089,-0.7319,-0.7543,-0.7851,-0.8389,-0.9224,-0.9653,-0.9418,-0.9494,-0.9387,-0.8929,-0.8643,-0.8486,-0.8486,-0.8552,-0.859,-0.859,-0.8743,-0.8829,-0.8914,-0.9152,-0.9269,-0.9168,-0.9,-0.8881,-0.8845,-0.872,-0.8497,0.0,-0.8009,-0.7655,-0.7106,-0.6931,-0.6711,0.0,0.0,0.0,0.0,0.0,-0.6235,-0.6227,-0.6137,-0.6073,-0.606,-0.5971,-0.5967,-0.6006,-0.5896,-0.5823,-0.5706,-0.5186,-0.4642,-0.4098,-0.3732,-0.332,-0.2989,-0.2872,-0.2863,-0.2686,-0.1982,-0.1564,-0.1168,-0.0534,0.0,0.0,-0.0084,-0.0114,0.0171,0.1011,0.1862,0.2581,0.0,0.3362,0.3548,0.3583,0.3589,0.3658,0.3829,0.3956,0.0,0.0,0.0,0.4573,0.4697,0.4572,0.0,0.0,0.0,0.0,0.0,0.0,0.0,0.0,0.5605,0.6114,0.0,0.0,0.0,0.0,0.0,0.0,0.0,0.0,0.0,0.0,0.0,0.0,0.0,0.0,0.0,0.0,-0.6915,-0.7419,-0.7703,-0.785,-0.8169,-0.871,-0.9246,-0.9525,-0.9345,-0.9383,-0.9297,-0.8936,-0.8751,-0.8644,-0.8628,0.0,0.0,0.0,0.0,-0.8851,-0.8935,-0.9157,-0.9302,-0.9302,-0.9027,-0.8924,-0.893,-0.8834,-0.8575,-0.8147,-0.7897,-0.7592,-0.7205,-0.6764,-0.659,-0.6582,-0.6522,-0.6493,-0.6493,-0.6366,-0.6333,0.0,0.0,0.0,0.0,-0.5902,-0.589,-0.5898,-0.567,-0.558,-0.5435,-0.4702,-0.3961,-0.3281,-0.2799,-0.2189,-0.1625,-0.1347,-0.1279,-0.1068,-0.0267,0.0088,0.0379,0.0849,0.1066,0.1317,0.1675,0.1126,0.1005,0.2112,0.2582,0.0,0.3533,0.358,0.358,0.3586,0.0,0.0,0.3832,0.3799,0.3913,0.43,0.4292,0.4401,0.4663,0.4581,0.462,0.4817,0.4799,0.5155,0.5917,0.6203,0.668,0.7347,0.7253,0.7569,0.0,0.0,0.0,0.0,0.0,0.0,0.0,0.0,0.0,0.0,0.0,0.0,0.0,0.0,0.0,-0.6785,-0.7203,-0.76,-0.7968,-0.8176,-0.8361,-0.8475,-0.8756,-0.8962,-0.8906,-0.8995,-0.8982,-0.8914,-0.8959,-0.8952,-0.8849,-0.8849,0.0,-0.8849,-0.887,-0.8941,-0.906,-0.9237,-0.9302,-0.9302,0.0,0.0,-0.9054,-0.8872,-0.8447,-0.7877,-0.7826,-0.7418,-0.6786,-0.6661,-0.659,-0.6582,-0.6522,-0.6534,-0.6587,-0.6493,-0.646,-0.6415,-0.5996,-0.5627,-0.5279,-0.4981,-0.4658,-0.4425,-0.4355,-0.4264,0.0,-0.3433,-0.2717,-0.2024,-0.1424,-0.0821,-0.0295,0.003,0.0123,0.0307,0.0993,0.1187,0.135,0.1691,0.1787,0.1999,0.255,0.2309,0.2158,0.2612,0.3108,0.3477,0.3586,0.3545,0.3531,0.358,0.3589,0.3592,0.3583,0.3567,0.3621,0.3748,0.4047,0.4298,0.4447,0.4634,0.4802,0.4966,0.5207,0.5763,0.6619,0.6983,0.778,0.8938,0.8607,0.8617,0.0,0.0,0.0,0.0,0.0,0.0,0.0,0.0,0.0,0.0,0.0,-0.5996,-0.6295,0.0,-0.6937,-0.7214,-0.7551,-0.7872,-0.8111,-0.835,-0.8503,-0.8503,-0.8694,-0.8803,-0.8803,-0.8843,-0.8919,-0.8919,-0.9033,-0.9044,-0.8924,-0.8973,-0.8979,-0.8919,-0.8973,-0.9038,-0.9098,-0.9247,-0.9302,-0.9302,-0.9092,-0.9038,-0.9092,-0.9008,-0.8667,-0.8163,-0.8004,-0.7638,-0.7132,-0.6782,-0.6607,-0.6517,-0.63,-0.6401,-0.6651,-0.6607,-0.659,-0.651,-0.5878,-0.5252,-0.4643,-0.4057,-0.3468,-0.2987,-0.288,-0.2775,-0.2584,-0.1968,-0.1287,-0.0607,-0.0059,0.054,0.112,0.1628,0.1737,0.1926,0.2569,0.2697,0.2742,0.2923,0.2953,0.3043,0.3347,0.3277,0.3159,0.3238,0.348,0.365,0.3591,0.3561,0.3553,0.3583,0.3589,0.3575,0.3545,0.3652,0.3663,0.3597,0.404,0.4377,0.4545,0.4813,0.518,0.5633,0.576,0.6287,0.7306,0.7873,0.8675,0.9707,1.001,1.014,0.0,0.0,0.0,0.0,0.0,0.0,0.0,-0.5366,-0.554,-0.5908,-0.6309,-0.6661,-0.6931,-0.7186,-0.7424,-0.76,-0.7883,-0.8133,-0.822,-0.8475,-0.8611,-0.859,-0.8715,-0.8807,-0.8807,-0.8903,-0.8984,-0.8984,-0.9076,-0.9087,-0.8989,-0.9076,-0.9087,-0.8989,-0.9103,-0.9168,-0.9168,-0.9318,-0.9378,-0.9372,-0.9195,-0.9147,-0.9163,-0.9092,-0.8859,-0.849,-0.8095,-0.7801,-0.7495,-0.6906,-0.6602,-0.6451,-0.5982,-0.5964,-0.6256,-0.631,-0.6326,-0.6151,-0.5343,-0.4592,-0.3823,-0.2998,-0.2211,-0.1573,-0.1408,-0.1317,-0.1141,-0.061,0.0,0.0566,0.106,0.1597,0.214,0.2758,0.2941,0.3143,0.3715,0.3859,0.3889,0.3889,0.3889,0.3889,0.3889,0.3889,0.3866,0.3768,0.3743,0.3715,0.3644,0.3633,0.36,0.3589,0.3589,0.3589,0.3589,0.3724,0.3758,0.36,0.405,0.444,0.4688,0.5073,0.5704,0.6572,0.6558,0.7059,0.8115,0.8763,0.9445,1.0129,1.0997,1.1363,-0.4338,-0.4764,-0.5354,-0.5692,-0.5947,-0.6138,0.0,-0.6241,-0.6406,-0.6926,-0.7122,-0.7284,-0.7557,-0.7633,-0.7736,-0.799,-0.8117,-0.8226,-0.8345,-0.86,-0.8743,-0.86,-0.8757,-0.8897,-0.8897,-0.9098,-0.9264,-0.9264,-0.9275,-0.928,-0.9264,-0.9275,-0.928,-0.9264,-0.9383,-0.9449,-0.9449,-0.9605,-0.9665,-0.9665,-0.9394,-0.934,-0.9438,-0.9082,-0.8785,-0.8444,-0.7696,-0.7384,-0.7305,-0.682,-0.6579,-0.6422,-0.5714,-0.5087,-0.4597,-0.4965,-0.4955,-0.4614,-0.3829,-0.3055,-0.2328,-0.1551,-0.0832,-0.023,-0.0197,-0.0129,0.0,0.0345,0.0714,0.1078,0.1439,0.176,0.2108,0.2454,0.2774,0.3112,0.3467,0.3735,0.3889,0.3889,0.3889,0.3889,0.3889,0.3889,0.3896,0.388,0.3869,0.3828,0.3713,0.3696,0.3677,0.3594,0.3589,0.3589,0.3589,0.3559,0.3542,0.3523,0.3893,0.4296,0.4694,0.5539,0.6506,0.7612,0.7972,0.8501,0.9235,0.9548,1.0003,1.0543,1.0897,1.1185,-0.4961,-0.5316,-0.5784,-0.6214,-0.6582,-0.6844,-0.691,-0.7045,-0.7247,-0.7548,-0.778,-0.7944,-0.7977,-0.7982,-0.8068,-0.8236,-0.8307,-0.8372,-0.8595,-0.8743,-0.8759,-0.86,-0.8617,-0.8659,-0.8834,-0.9063,-0.9168,-0.9168,-0.9269,-0.9302,-0.9302,-0.9302,-0.9302,-0.9302,-0.9421,-0.9376,-0.9155,-0.9009,-0.884,-0.8572,-0.8201,-0.8044,-0.8076,-0.7891,-0.758,-0.7171,-0.6673,-0.6248,-0.5915,-0.5502,-0.5274,-0.5144,-0.4411,-0.3675,-0.3101,-0.373,-0.3623,-0.3046,-0.2282,-0.1546,-0.0806,-0.0069,0.0679,0.1282,0.1271,0.129,0.1343,0.1507,0.1632,0.1758,0.1898,0.2033,0.2191,0.2498,0.2655,0.2896,0.3394,0.3597,0.3712,0.3864,0.3889,0.3889,0.3889,0.3889,0.3912,0.3885,0.3913,0.3845,0.3724,0.3707,0.3683,0.3594,0.3589,0.3589,0.3589,0.3564,0.3534,0.3499,0.4122,0.4718,0.5149,0.636,0.7493,0.8475,0.8969,0.9503,1.0042,1.0457,1.0841,1.1193,1.1621,1.196,-0.5528,-0.5828,-0.6214,-0.6672,-0.7062,-0.7373,-0.7497,-0.7671,-0.7828,-0.7948,-0.8182,-0.8318,-0.8264,-0.8226,-0.8232,-0.8322,-0.8275,-0.8254,-0.8352,-0.8326,-0.8227,-0.805,-0.7905,-0.7923,-0.8117,-0.8682,-0.9027,-0.9092,-0.9242,-0.9302,-0.9302,-0.9334,-0.9356,-0.9356,-0.9503,-0.9324,-0.8808,-0.838,-0.7895,-0.7363,-0.6762,-0.6452,-0.6444,-0.6356,-0.6076,-0.5608,-0.5235,-0.482,-0.439,-0.3961,-0.3736,-0.3618,-0.2871,-0.2133,-0.1555,-0.1926,-0.1865,-0.1515,-0.0855,-0.0215,0.0427,0.104,0.1684,0.2195,0.2197,0.2189,0.2189,0.2189,0.2189,0.2189,0.2189,0.2189,0.2248,0.2415,0.2605,0.2848,0.3288,0.3514,0.3679,0.3888,0.39,0.3889,0.3889,0.3889,0.3889,0.3889,0.3913,0.3872,0.3748,0.3702,0.3672,0.3644,0.3597,0.3594,0.3639,0.3597,0.357,0.3523,0.4344,0.5138,0.5795,0.7188,0.8441,0.9557,1.006,1.0549,1.1031,1.1407,1.1666,1.1846,1.2284,1.2616,-0.596,-0.6328,-0.6688,-0.7164,-0.7473,-0.7747,-0.8012,-0.8072,-0.811,-0.8166,-0.8199,-0.8242,-0.8361,-0.8285,-0.8188,-0.8197,-0.7927,-0.7613,-0.7309,-0.7082,-0.6876,-0.6607,-0.65,-0.6448,-0.6464,-0.79,-0.8878,-0.9082,-0.9242,-0.9302,-0.9302,-0.9416,-0.9481,-0.9481,-0.9704,-0.9409,-0.8612,-0.7894,-0.7115,-0.6336,-0.5343,-0.4866,-0.4861,-0.4649,-0.4357,-0.3951,-0.3486,-0.3156,-0.2911,-0.2398,-0.2166,-0.2089,-0.1372,-0.0623,0.0105,0.0818,0.0572,0.0,0.0393,0.0787,0.114,0.1561,0.1925,0.2195,0.2197,0.2189,0.2189,0.2189,0.2189,0.2189,0.2189,0.2189,0.2181,0.2117,0.2605,0.3087,0.3105,0.357,0.3973,0.4001,0.3955,0.3889,0.3889,0.3889,0.3889,0.3889,0.3887,0.3874,0.3812,0.3691,0.3639,0.3699,0.365,0.3639,0.3699,0.365,0.3586,0.3583,0.4424,0.5425,0.6606,0.783,0.9299,1.1,1.1355,1.1801,1.2345,1.2345,1.2382,1.2391,1.2663,1.2785,-0.629,-0.6731,-0.7164,-0.7589,-0.7937,-0.8198,-0.828,-0.8356,-0.8399,-0.8329,-0.8225,-0.8149,-0.8242,-0.8198,-0.8066,-0.7849,-0.733,-0.6804,-0.6351,-0.5709,-0.5234,-0.5046,-0.4858,-0.476,-0.487,-0.6319,-0.7294,-0.7362,-0.7586,-0.7719,-0.7719,-0.7847,-0.7901,-0.7901,-0.8053,-0.777,-0.6965,-0.6195,-0.545,-0.4628,-0.3666,-0.3202,-0.3138,-0.2812,-0.2571,-0.2412,-0.1694,-0.1361,-0.1271,-0.0828,-0.0624,-0.0592,-0.0105,0.0389,0.0889,0.1406,0.1557,0.1557,0.1666,0.1811,0.1915,0.206,0.219,0.2255,0.2223,0.2215,0.221,0.2191,0.2185,0.2214,0.2193,0.2189,0.2253,0.2443,0.2675,0.2964,0.3413,0.3649,0.3851,0.4037,0.4047,0.4023,0.3982,0.3974,0.395,0.3902,0.3891,0.3861,0.3809,0.3762,0.3729,0.371,0.3726,0.3729,0.3707,0.3794,0.3934,0.4055,0.5315,0.6518,0.7642,0.9293,1.0691,1.1809,1.2317,1.2683,1.2852,1.2852,1.2852,1.2862,1.2956,1.307,-0.615,-0.6718,-0.7222,-0.7711,-0.8113,-0.8383,-0.8383,-0.8475,-0.847,-0.8263,-0.803,-0.7868,-0.7863,-0.7697,-0.7435,-0.7038,-0.6349,-0.5643,-0.5065,-0.4253,-0.3704,-0.3567,-0.3409,-0.3333,-0.3384,-0.4323,-0.5175,-0.5737,-0.5997,-0.6115,-0.6109,-0.6216,-0.6278,-0.6278,-0.6403,-0.608,-0.5269,-0.4491,-0.3562,-0.2417,-0.1819,-0.1456,-0.1249,-0.1009,-0.0735,-0.0432,0.0072,0.0353,0.0485,0.0734,0.0879,0.092,0.1106,0.1363,0.1622,0.189,0.2114,0.2296,0.2296,0.2296,0.2292,0.23,0.229,0.2285,0.222,0.221,0.2206,0.2187,0.2208,0.2195,0.221,0.2196,0.2256,0.2458,0.2694,0.2987,0.3424,0.3701,0.3942,0.4101,0.4107,0.408,0.4042,0.4018,0.3972,0.3907,0.3891,0.3864,0.3809,0.3798,0.3792,0.3776,0.3787,0.3781,0.3743,0.4024,0.4351,0.4663,0.606,0.7437,0.8654,1.0245,1.1501,1.2316,1.2841,1.3098,1.3098,1.3098,1.3098,1.3098,1.3174,1.3287,-0.5552,-0.6243,-0.6917,-0.7529,-0.8053,-0.8394,-0.8388,-0.8383,-0.8307,-0.7968,-0.766,-0.7431,-0.7293,-0.6861,-0.6333,-0.5804,-0.4952,-0.4129,-0.3485,-0.2743,-0.2214,-0.2087,-0.208,-0.2053,-0.1993,-0.1998,-0.2621,-0.416,0.0,-0.4558,-0.4581,-0.4638,-0.4693,-0.4693,-0.4787,-0.4505,-0.3725,-0.2822,-0.1598,0.0,0.0039,0.023,0.0607,0.0637,0.1073,0.1786,0.1766,0.1921,0.2213,0.2214,0.2232,0.2293,0.2293,0.2309,0.2296,0.2296,0.2296,0.2296,0.2296,0.2296,0.2292,0.2301,0.2293,0.2288,0.2224,0.2214,0.2214,0.2213,0.2191,0.2204,0.22,0.2213,0.219,0.2223,0.2726,0.3194,0.3194,0.3694,0.4155,0.4188,0.4139,0.4099,0.4099,0.4045,0.3985,0.39,0.3892,0.3877,0.382,0.3806,0.3828,0.3886,0.3842,0.3806,0.3803,0.4325,0.4878,0.5414,0.6727,0.8118,0.9596,1.0763,1.1759,1.2601,1.2954,1.3126,1.3126,1.3126,1.3126,1.3136,1.3335,1.3429,-0.4798,-0.5724,-0.6616,-0.7356,-0.8056,-0.8524,-0.8437,-0.8313,-0.8145,-0.7818,-0.7339,-0.6908,-0.6685,-0.5973,-0.5205,-0.455,-0.3463,-0.2503,-0.1875,-0.1095,-0.0604,-0.0563,-0.0544,-0.0563,-0.0521,-0.0548,-0.0715,0.0,-0.2213,-0.2839,-0.2839,-0.2945,-0.3007,-0.3007,-0.3079,-0.2903,-0.2395,-0.153,-0.0705,0.0,0.0313,0.0507,0.0622,0.123,0.1624,0.1811,0.2101,0.2254,0.2281,0.2267,0.2279,0.2285,0.2285,0.2289,0.2296,0.2296,0.2296,0.2296,0.2296,0.2296,0.2295,0.2288,0.2285,0.2284,0.2276,0.2275,0.2271,0.2285,0.2274,0.2258,0.2211,0.2195,0.2251,0.2498,0.2694,0.2894,0.3161,0.332,0.3546,0.3849,0.4036,0.4161,0.4161,0.4074,0.3999,0.3982,0.3947,0.3893,0.3878,0.3877,0.3894,0.3894,0.3886,0.3886,0.3869,0.4601,0.5363,0.6096,0.759,0.9077,1.0521,1.162,1.2463,1.3049,1.3384,1.3562,1.3562,1.3562,1.3562,1.3562,1.3589,1.3608,-0.3816,-0.4781,-0.5631,-0.6377,-0.7114,-0.7602,-0.7436,-0.7263,-0.7058,-0.6759,-0.6256,-0.58,-0.552,-0.4755,-0.3978,-0.3361,-0.2362,-0.1495,-0.1,-0.041,0.0,0.0,0.0,0.0,0.0,0.0,0.0,0.0,-0.0785,-0.1233,-0.1249,-0.1296,-0.1361,-0.1361,-0.1369,-0.1295,-0.106,-0.0589,-0.0118,0.0275,0.051,0.0785,0.1178,0.1591,0.1914,0.2115,0.0,0.2372,0.233,0.2346,0.2345,0.2296,0.2296,0.2296,0.2296,0.2296,0.2296,0.2296,0.2296,0.2296,0.2296,0.2296,0.2296,0.2296,0.2296,0.2296,0.2293,0.2313,0.23,0.2282,0.2249,0.223,0.225,0.2439,0.2606,0.2771,0.2959,0.3123,0.3354,0.3739,0.4044,0.4248,0.4221,0.4128,0.4064,0.4012,0.3977,0.3936,0.3907,0.3905,0.3897,0.3894,0.3891,0.3886,0.3856,0.4819,0.5835,0.6834,0.832,0.9758,1.1113,1.2077,1.2708,1.2994,1.3444,1.3693,1.3693,1.3693,1.3693,1.3693,1.3693,1.3693,-0.2702,-0.3486,-0.4243,-0.4937,-0.5606,-0.6076,-0.5867,-0.5678,-0.548,-0.5222,-0.4798,-0.4391,-0.4106,-0.3414,-0.2688,-0.2191,-0.1467,-0.0867,-0.0578,-0.0218,0.0,0.0,0.0,0.0,0.0,0.0,0.0,0.0,0.0,0.0,0.0,0.0,0.0,0.0,0.0,0.0,0.0,0.0,0.0196,0.0589,0.0668,0.1099,0.1885,0.1904,0.2125,0.2506,0.0,0.0,0.2415,0.2415,0.236,0.2296,0.2296,0.2296,0.2296,0.2296,0.2296,0.2296,0.2296,0.2299,0.2301,0.2297,0.2296,0.2296,0.2296,0.2296,0.2296,0.2296,0.2315,0.2296,0.2292,0.2271,0.2216,0.2212,0.2454,0.269,0.266,0.2992,0.3386,0.3676,0.4037,0.4292,0.4237,0.4221,0.4147,0.4042,0.402,0.3999,0.395,0.3916,0.3899,0.3891,0.3927,0.397,0.3973,0.5126,0.6393,0.7613,0.8966,1.025,1.1473,1.2303,1.2729,1.2729,1.3428,1.3769,1.3769,1.3769,1.3769,1.3769,1.3769,1.3769,-0.1241,-0.1971,-0.2659,-0.3402,-0.414,-0.4631,-0.4474,-0.4321,-0.4178,-0.3954,-0.3578,-0.3199,-0.2865,-0.2147,-0.1514,-0.1197,-0.0597,-0.0168,-0.0105,-0.0036,0.0,0.0,0.0,0.0,0.0,0.0,0.0,0.0,0.0,0.0,0.0,0.0,0.0,0.0,0.0,0.0,0.0,0.0,0.0196,0.0589,0.0982,0.1414,0.1925,0.2234,0.2414,0.2507,0.0,0.0,0.2415,0.2415,0.236,0.2296,0.2296,0.2296,0.2296,0.2296,0.2296,0.2296,0.2296,0.2349,0.2367,0.2304,0.2296,0.2296,0.2296,0.2296,0.2296,0.2296,0.2293,0.2284,0.2297,0.2288,0.2277,0.2216,0.2245,0.2314,0.2273,0.2805,0.3317,0.3306,0.3835,0.4305,0.4294,0.4251,0.4177,0.4155,0.4109,0.4074,0.4064,0.3969,0.3885,0.3897,0.4145,0.4447,0.4767,0.5967,0.7286,0.8651,0.9646,1.0657,1.1697,1.253,1.2939,1.2939,1.3778,1.4203,1.4203,1.4203,1.4203,1.4203,1.4203,1.4203,-0.0693,-0.1216,-0.177,-0.2283,-0.2827,-0.3167,-0.3029,-0.2871,-0.2716,-0.2588,-0.2328,-0.2042,-0.1821,-0.1324,-0.0871,-0.0677,-0.0267,0.0,0.0,0.0,0.0,0.0,0.0,0.0,0.0,0.0,0.0,0.0,0.0,0.0,0.0,0.0,0.0,0.0,0.0,0.0,0.0,0.0,0.0314,0.0982,0.1178,0.1611,0.22,0.2396,0.2506,0.2492,0.2492,0.0,0.2463,0.2463,0.2408,0.2343,0.2343,0.2343,0.2343,0.2343,0.2343,0.2343,0.2343,0.239,0.2399,0.2347,0.2369,0.2353,0.2301,0.2296,0.2296,0.2296,0.2296,0.2293,0.2316,0.2312,0.2309,0.2259,0.2244,0.2268,0.2268,0.284,0.3361,0.3304,0.3883,0.4398,0.4398,0.4547,0.4707,0.4806,0.4964,0.5112,0.5229,0.5188,0.4831,0.4049,0.4441,0.4984,0.557,0.6861,0.8176,0.948,1.0279,1.1042,1.1776,1.2581,1.2992,1.2992,1.3861,1.4307,1.4307,1.4307,1.4307,1.4317,1.4399,1.4446,-0.0374,-0.0717,-0.1016,-0.1265,-0.1523,-0.1701,-0.1602,-0.1455,-0.1325,-0.1262,-0.1123,-0.098,-0.0884,-0.0643,-0.0443,-0.033,-0.0138,0.0,0.0,0.0,0.0,0.0,0.0,0.0,0.0,0.0,0.0,0.0,0.0,0.0,0.0,0.0,0.0,0.0,0.0,0.0,0.0,0.0079,0.051,0.1296,0.1375,0.1807,0.2514,0.2514,0.2514,0.2514,0.2514,0.0,0.0,0.2507,0.2451,0.2386,0.2386,0.2386,0.2386,0.2386,0.2386,0.2386,0.2386,0.2428,0.2432,0.2387,0.2408,0.2383,0.2323,0.2315,0.2314,0.2308,0.2305,0.2304,0.2297,0.2296,0.2296,0.2296,0.2316,0.2298,0.2292,0.2874,0.341,0.3402,0.3993,0.4517,0.4517,0.4902,0.5317,0.5592,0.6039,0.6485,0.6742,0.6785,0.6335,0.5117,0.5336,0.5883,0.6603,0.788,0.9114,1.0329,1.0926,1.1441,1.1898,1.2701,1.3163,1.3198,1.4018,1.4468,1.4474,1.4468,1.4449,1.4449,1.4731,1.489,-0.0038,-0.0077,-0.0114,-0.0145,-0.0172,-0.0192,-0.0199,-0.0175,-0.0155,-0.0142,-0.0129,-0.0121,-0.0107,-0.0074,-0.006,-0.0046,-0.0025,0.0,0.0,0.0,0.0,0.0,0.0,0.0,0.0,0.0,0.0,0.0,0.0,0.0,0.0,0.0,0.0,0.0,0.0,0.0,0.0,0.0353,0.0785,0.1296,0.1689,0.2082,0.2514,0.2514,0.2514,0.2514,0.0,0.0,0.0,0.2507,0.2451,0.2386,0.2386,0.2386,0.2386,0.2386,0.2386,0.2386,0.2386,0.2442,0.2499,0.2432,0.2383,0.2381,0.2378,0.2378,0.2409,0.2382,0.2373,0.2368,0.2303,0.2296,0.2296,0.2296,0.2295,0.2285,0.2296,0.2895,0.3414,0.3408,0.3993,0.4517,0.4517,0.5077,0.5747,0.6309,0.7038,0.7742,0.8324,0.8375,0.8336,0.8193,0.753,0.7385,0.8145,0.9112,1.0158,1.131,1.1599,1.1894,1.2224,1.3095,1.362,1.3796,1.4507,1.4936,1.5115,1.4936,1.4842,1.4851,1.5422,1.5883,0.0,0.0,0.0,0.0,0.0,0.0,0.0,0.0,0.0,0.0,0.0,0.0,0.0,0.0,0.0,0.0,0.0,0.0,0.0,0.0,0.0,0.0,0.0,0.0,0.0,0.0,0.0,0.0,0.0,0.0,0.0,0.0,0.0,0.0,0.0,0.0118,0.0353,0.051,0.0942,0.165,0.1807,0.2121,0.2514,0.2514,0.2514,0.2514,0.0,0.0,0.0,0.2496,0.2489,0.2478,0.2478,0.2478,0.2478,0.2478,0.2478,0.2478,0.2478,0.2487,0.2495,0.2482,0.2478,0.2472,0.2397,0.2386,0.2383,0.2409,0.2405,0.2402,0.2354,0.2573,0.283,0.2991,0.3242,0.349,0.3701,0.4121,0.4475,0.4487,0.5195,0.5752,0.5672,0.6526,0.741,0.7988,0.8761,0.9481,1.0076,1.0159,1.0128,1.004,0.9236,0.8994,0.9712,1.0534,1.134,1.2112,1.2242,1.2331,1.249,1.3309,1.389,1.4084,1.4747,1.5115,1.52,1.4993,1.4898,1.4908,1.5872,1.6668,0.0,0.0,0.0,0.0,0.0,0.0,0.0,0.0,0.0,0.0,0.0,0.0,0.0,0.0,0.0,0.0,0.0,0.0,0.0,0.0,0.0,0.0,0.0,0.0,0.0,0.0,0.0,0.0,0.0,0.0,0.0,0.0,0.0,0.0,0.0,0.0196,0.0589,0.0746,0.1178,0.1886,0.2003,0.2239,0.2514,0.2514,0.2514,0.2514,0.0,0.0,0.0,0.2632,0.2749,0.2906,0.3024,0.3142,0.322,0.322,0.322,0.322,0.322,0.322,0.322,0.322,0.322,0.3249,0.3193,0.2832,0.2448,0.2439,0.2431,0.2386,0.2386,0.284,0.3359,0.3759,0.4305,0.4844,0.5293,0.5677,0.5891,0.5891,0.658,0.7133,0.7177,0.8127,0.9166,0.9827,1.062,1.1302,1.1844,1.1927,1.1862,1.1731,1.1103,1.0819,1.1071,1.1721,1.2306,1.2808,1.2832,1.2832,1.2832,1.3518,1.4047,1.4374,1.4895,1.5222,1.5422,1.5314,1.5309,1.546,1.6695,1.802,0.0,0.0,0.0,0.0,0.0,0.0,0.0,0.0,0.0,0.0,0.0,0.0,0.0,0.0,0.0,0.0,0.0,0.0,0.0,0.0,0.0,0.0,0.0,0.0,0.0,0.0,0.0,0.0,0.0,0.0,0.0,0.0,0.0,0.0,0.0,0.0196,0.0589,0.106,0.1493,0.1886,0.2318,0.2514,0.2514,0.2514,0.2514,0.0,0.0,0.0,0.0,0.2944,0.3376,0.3807,0.4241,0.463,0.498,0.498,0.498,0.498,0.498,0.498,0.498,0.498,0.498,0.498,0.498,0.3805,0.2507,0.2516,0.2447,0.2386,0.2386,0.3028,0.3847,0.454,0.5339,0.6168,0.6845,0.73,0.7589,0.7589,0.8007,0.8519,0.8914,0.9754,1.0729,1.1727,1.2517,1.3132,1.3509,1.3574,1.3536,1.3384,1.3368,1.298,1.2056,1.2471,1.2948,1.336,1.3394,1.3394,1.3394,1.3711,1.4173,1.478,1.4929,1.5307,1.5882,1.6016,1.6292,1.6709,1.8051,2.0141,0.0537,0.0398,0.0272,0.0288,0.0149,0.0,0.0,0.0,0.0,0.0,0.0,0.0,0.0,0.0,0.0,0.0,0.0,0.0,0.0,0.0,0.0,0.0,0.0,0.0,0.0,0.0,0.0,0.0,0.0,0.0,0.0,0.0,0.0,0.0,0.0,0.0353,0.106,0.1217,0.165,0.2318,0.2435,0.2514,0.2514,0.2514,0.0,0.0,0.0,0.0,0.0,0.3297,0.4001,0.4703,0.5408,0.6111,0.6697,0.6697,0.6697,0.6697,0.6697,0.6697,0.6697,0.6697,0.6697,0.6697,0.6697,0.5525,0.4194,0.4218,0.4201,0.419,0.419,0.481,0.5643,0.6371,0.7187,0.7955,0.8708,0.8943,0.9022,0.9022,0.9452,0.9919,1.024,1.1083,1.1961,1.2741,1.3274,1.372,1.397,1.401,1.3896,1.3552,1.366,1.3542,1.3004,1.3096,1.3287,1.3512,1.352,1.3669,1.3948,1.4269,1.4603,1.4943,1.5113,1.5292,1.5498,1.5943,1.7272,1.9413,2.1155,2.2789,0.1209,0.0927,0.0681,0.0439,0.0192,0.0,0.0,0.0,0.0,0.0,0.0,0.0,0.0,0.0,0.0,0.0,0.0,0.0,0.0,0.0,0.0,0.0,0.0,0.0,0.0,0.0,0.0,0.0,0.0,0.0,0.0,0.0,0.0082,0.0243,0.0239,0.0552,0.1296,0.1611,0.216,0.2985,0.3142,0.3299,0.3454,0.3454,0.0,0.0,0.0,0.0,0.0,0.4395,0.5215,0.603,0.6889,0.7751,0.8453,0.8453,0.8453,0.8453,0.8453,0.8453,0.8453,0.8453,0.8453,0.8453,0.8453,0.7283,0.5958,0.5958,0.5958,0.5958,0.5958,0.6584,0.7419,0.8137,0.8918,0.9693,1.0433,1.0597,1.0597,1.0597,1.0931,1.1302,1.1584,1.2181,1.2858,1.3597,1.3921,1.4143,1.4265,1.427,1.414,1.3747,1.3747,1.3742,1.3587,1.3606,1.362,1.3698,1.3706,1.3872,1.42,1.439,1.4655,1.4987,1.5134,1.5257,1.5403,1.6822,1.8756,2.1185,2.3131,2.4503,0.0,0.1589,0.1208,0.0563,0.0232,0.0049,0.0046,0.0042,0.0,0.0038,0.0037,0.0037,0.0038,0.0037,0.0037,0.0059,0.006,0.0064,0.0071,0.0053,0.003,0.0,0.0,0.0,0.0,0.0,0.0,0.0,0.0,0.0,0.0,0.0042,0.0249,0.0704,0.073,0.0956,0.1339,0.2166,0.2991,0.389,0.4324,0.4753,0.5176,0.5176,0.0,0.0,0.0,0.0,0.0,0.6115,0.6935,0.7747,0.8647,0.947,1.0175,1.0175,1.0175,1.0175,1.0175,1.0175,1.0175,1.0175,1.0175,1.0175,1.0175,0.9003,0.7673,0.7673,0.7673,0.7673,0.7673,0.8297,0.909,0.9752,1.0489,1.1264,1.1971,1.2132,1.2132,1.2132,1.2247,1.2457,1.2823,1.302,1.3436,1.4284,1.4399,1.4435,1.4423,1.4411,1.4282,1.3961,1.3755,1.3723,1.3904,1.3896,1.3896,1.392,1.392,1.4002,1.4225,1.4196,1.4453,1.495,1.4967,1.5243,1.5741,1.8461,2.0596,2.2147,2.4115,2.542,0.4113,0.0,0.1855,0.1581,0.1033,0.0526,0.0,0.0498,0.0451,0.0468,0.0465,0.0464,0.0467,0.0465,0.0471,0.0535,0.0578,0.0641,0.0692,0.0504,0.03,0.0036,0.0,0.0,0.0,0.0,0.0,0.0,0.0,0.0,0.0,0.0336,0.0585,0.0704,0.1646,0.2041,0.1857,0.2703,0.3691,0.4807,0.556,0.6283,0.6932,0.6932,0.0,0.0,0.0,0.0,0.6971,0.7868,0.8686,0.9498,1.0364,1.1184,1.1921,1.1921,1.1921,1.1921,1.1921,1.1921,1.1921,1.1921,1.1921,1.1921,1.1921,1.0752,0.9392,0.9392,0.9392,0.9392,0.9392,0.9781,1.0319,1.0833,1.1329,1.1824,1.2291,1.24,1.24,1.24,1.2427,1.2569,1.2986,1.3329,1.3744,1.4322,1.4669,1.481,1.4638,1.4643,1.4505,1.4184,1.4196,1.4176,1.4123,1.3863,1.3787,1.4099,1.4115,1.4188,1.4367,1.4338,1.4428,1.4543,1.4682,1.55,1.7001,1.9479,2.1525,2.3149,2.543,2.6612,0.5042,0.4017,0.2975,0.2586,0.2053,0.1623,0.1609,0.1491,0.1392,0.1466,0.1418,0.1418,0.1548,0.156,0.1623,0.1821,0.1973,0.194,0.1504,0.1083,0.0613,0.0076,0.0,0.0,0.0,0.0,0.0,0.0,0.0,0.0084,0.0,0.0546,0.0882,0.1293,0.2376,0.2853,0.2604,0.3862,0.5086,0.6297,0.7135,0.7918,0.8647,0.8647,0.0,0.0,0.0,0.0,0.8691,0.9448,1.0135,1.0767,1.1466,1.2161,1.2712,1.2712,1.2712,1.2712,1.2712,1.2664,1.2596,1.2522,1.2501,1.2501,1.2501,1.1927,1.1224,1.1164,1.1146,1.1146,1.1146,1.135,1.1627,1.1862,1.2187,1.2476,1.2672,1.2712,1.2712,1.2712,1.2712,1.2869,1.3255,1.349,1.3889,1.4516,1.4829,1.496,1.4938,1.4913,1.4814,1.4464,1.4424,1.4354,1.4302,1.4042,1.4002,1.4278,1.4294,1.4375,1.4516,1.4703,1.5043,1.5503,1.5795,1.6763,1.8499,2.0542,2.2373,2.4005,2.6212,2.7217,0.5465,0.4949,0.4311,0.3571,0.3125,0.2848,0.2888,0.2707,0.2577,0.2656,0.2585,0.2582,0.2808,0.288,0.3003,0.3342,0.3626,0.3469,0.2449,0.1821,0.118,0.032,0.0205,0.0208,0.021,0.0,0.0,0.0,0.0,0.0461,0.0,0.1047,0.1473,0.2271,0.3278,0.3874,0.4046,0.5512,0.6849,0.811,0.8905,0.9677,1.0369,1.0369,1.0369,0.0,0.0,0.0,1.0419,1.0976,1.1391,1.1719,1.2223,1.2642,1.3003,1.3003,1.2989,1.2962,1.2941,1.282,1.2672,1.2576,1.2556,1.2569,1.2569,1.2664,1.2739,1.261,1.2569,1.2569,1.2569,1.2664,1.2766,1.2766,1.2868,1.3003,1.3003,1.3003,1.3003,1.3003,1.3003,1.3116,1.3549,1.3662,1.3989,1.4795,1.4954,1.5058,1.5222,1.5245,1.5108,1.4781,1.4597,1.4492,1.4444,1.4441,1.4506,1.4654,1.4526,1.4583,1.4889,1.5341,1.6013,1.7018,1.754,1.8547,2.0054,2.1733,2.3291,2.478,2.6666,2.7554,0.5944,0.5803,0.55,0.454,0.3931,0.358,0.368,0.3691,0.3631,0.3532,0.3489,0.3489,0.3535,0.3681,0.3915,0.4253,0.4581,0.4423,0.3333,0.2982,0.238,0.1228,0.1115,0.1081,0.1092,0.0,0.0,0.0,0.0,0.0,0.0,0.2564,0.3197,0.3658,0.4917,0.6166,0.7353,0.7645,0.8464,0.9928,1.0776,1.1494,1.2114,1.2114,1.2114,0.0,0.0,1.2114,1.2128,1.2351,1.2456,1.2548,1.2782,1.2922,1.3003,1.3003,1.2874,1.2745,1.2617,1.2644,1.2686,1.2665,1.2786,1.2928,1.2928,1.2948,1.2962,1.2935,1.2928,1.2928,1.2928,1.2948,1.2969,1.2969,1.2982,1.3003,1.3003,1.3003,1.3003,1.3003,1.3003,1.3116,1.3549,1.3869,1.4308,1.4835,1.5194,1.5424,1.544,1.5432,1.5333,1.5006,1.5041,1.4954,1.4692,1.5084,1.554,1.5908,1.5119,1.4977,1.5679,1.6421,1.7207,1.8068,1.9066,2.0135,2.1231,2.3071,2.4443,2.5382,2.7079,2.7838,0.5973,0.5935,0.5876,0.5383,0.5129,0.5037,0.5212,0.5223,0.5181,0.5111,0.4985,0.4939,0.513,0.5283,0.5679,0.6488,0.6625,0.6356,0.5617,0.516,0.4532,0.3621,0.0,0.3508,0.0,0.0,0.0,0.0,0.0,0.0,0.0,0.0,0.5125,0.5795,0.6885,0.8098,0.9476,1.0023,1.0524,1.1005,1.1659,1.2159,1.2501,1.2501,1.2501,1.2501,0.0,1.2549,1.2637,1.2793,1.2901,1.2983,1.3139,1.3241,1.3227,1.3146,1.3071,1.2935,1.2705,1.2725,1.284,1.2759,1.2834,1.3003,1.3003,1.3057,1.3118,1.3118,1.3064,1.3003,1.3003,1.3057,1.3118,1.3118,1.318,1.3241,1.3241,1.3241,1.3241,1.3241,1.3241,1.3397,1.4083,1.4368,1.4693,1.5391,1.5642,1.5764,1.5764,1.5764,1.5626,1.5301,1.5342,1.5244,1.4879,1.5493,1.6118,1.6492,1.6297,1.6509,1.7341,1.8317,1.9212,2.0005,2.111,2.2107,2.3004,2.4329,2.535,2.6177,2.7554,2.8174,0.5893,0.5844,0.591,0.5913,0.6018,0.6198,0.6439,0.6518,0.6538,0.6505,0.635,0.6298,0.6554,0.6818,0.7311,0.834,0.8332,0.802,0.7519,0.7016,0.6452,0.5722,0.5668,0.5706,0.0,0.0,0.0,0.0,0.0,0.0,0.0,0.0,0.7007,0.7847,0.8725,0.9768,1.1017,1.1813,1.214,1.194,1.2274,1.2483,1.2501,1.2501,1.2501,1.2501,1.2542,1.2623,1.2706,1.2935,1.3111,1.3227,1.3342,1.3376,1.3329,1.322,1.3098,1.303,1.2766,1.28,1.2982,1.282,1.2908,1.3098,1.3064,1.3152,1.3261,1.3227,1.3159,1.3105,1.3105,1.3186,1.3268,1.3268,1.3315,1.3403,1.3403,1.3403,1.3403,1.3403,1.3403,1.3687,1.4548,1.4713,1.5002,1.5883,1.6007,1.6007,1.6007,1.6089,1.609,1.589,1.5968,1.6033,1.6044,1.678,1.7434,1.798,1.8037,1.8409,1.9299,2.0358,2.1302,2.2145,2.3227,2.407,2.4688,2.5588,2.6307,2.6934,2.8033,2.8511,0.5893,0.5711,0.5683,0.5847,0.6102,0.6374,0.6698,0.7002,0.7197,0.7138,0.7165,0.7213,0.724,0.7706,0.8258,0.8795,0.8862,0.8621,0.8015,0.7744,0.7324,0.6512,0.6548,0.0,0.0,0.0,0.0,0.0,0.0,0.0,0.0,0.0,0.0,0.9226,1.0101,1.1017,1.1986,1.2443,1.2755,1.2922,1.2922,1.28,1.2501,1.2501,1.2501,1.2508,1.2611,1.2679,1.2713,1.3037,1.3207,1.3227,1.3342,1.3315,1.3214,1.3071,1.2888,1.2699,1.2576,1.2712,1.3003,1.2989,1.318,1.3342,1.32,1.3261,1.3356,1.3254,1.3268,1.337,1.337,1.3376,1.3383,1.3383,1.339,1.3403,1.3403,1.3403,1.3403,1.3403,1.3403,1.3687,1.4548,1.4713,1.5002,1.5883,1.6007,1.6007,1.6007,1.6369,1.6736,1.6944,1.732,1.795,1.8995,1.9826,2.0646,2.1473,2.0495,2.0385,2.1428,2.2264,2.3137,2.4086,2.523,2.5802,2.588,2.7008,2.7538,2.7563,2.8452,2.8856,0.5779,0.5619,0.558,0.5731,0.6065,0.6482,0.6991,0.75,0.789,0.8055,0.8204,0.8242,0.802,0.8345,0.873,0.8989,0.9222,0.9386,0.9375,0.9298,0.9211,0.9053,0.9109,0.0,0.0,0.0,0.0,0.0,0.0,0.0,0.0,0.0,0.0,1.1439,1.1772,1.2229,1.2899,1.3065,1.313,1.3132,1.3043,1.2839,1.2501,1.2501,1.2556,1.2651,1.2665,1.2834,1.301,1.3166,1.3268,1.3322,1.3376,1.3308,1.3193,1.3057,1.2861,1.2672,1.2556,1.2705,1.3003,1.3003,1.3159,1.339,1.3336,1.3356,1.339,1.3329,1.3356,1.3403,1.3403,1.3403,1.3403,1.3403,1.3403,1.3403,1.3403,1.3403,1.3403,1.3403,1.3403,1.3687,1.4548,1.4713,1.5002,1.5883,1.6007,1.6039,1.6153,1.6867,1.7578,1.827,1.9242,2.0199,2.1114,2.1781,2.2516,2.3353,2.2511,2.2256,2.2903,2.3694,2.4364,2.4972,2.5844,2.6265,2.6265,2.7199,2.7731,2.7927,2.8798,2.9335,0.5747,0.5559,0.5542,0.578,0.6146,0.6655,0.7399,0.7997,0.847,0.8709,0.8954,0.8973,0.8621,0.8811,0.9054,0.9136,0.9459,0.9818,1.0101,1.0177,1.028,1.0517,1.0577,0.0,0.0,0.0,0.0,0.0,0.0,0.0,0.0,0.0,0.0,0.0,1.2858,1.3065,1.3403,1.3403,1.3322,1.3214,1.3111,1.2935,1.2644,1.2644,1.2705,1.2807,1.2847,1.2983,1.3214,1.3268,1.3308,1.3403,1.3403,1.3281,1.3132,1.3037,1.2834,1.2605,1.2535,1.2705,1.3003,1.3003,1.3159,1.339,1.3342,1.3363,1.339,1.3342,1.3363,1.3403,1.3403,1.3403,1.3403,1.3403,1.3403,1.3403,1.3403,1.3403,1.3403,1.3403,1.3528,1.3852,1.4589,1.4837,1.5175,1.5883,1.6122,1.6336,1.6626,1.7548,1.8767,2.0168,2.1408,2.2385,2.3074,2.3508,2.4014,2.4739,2.4389,2.4235,2.4418,2.4907,2.5335,2.5701,2.6254,2.6533,2.6533,2.733,2.78,2.8049,2.883,2.9359,0.5814,0.5597,0.5593,0.6011,0.6361,0.6877,0.787,0.8465,0.8879,0.9065,0.9334,0.9383,0.8989,0.9114,0.9307,0.9307,0.9514,0.9753,0.9992,1.0128,1.0253,1.0373,0.0,0.0,0.0,0.0,0.0,0.0,0.0,0.0,0.0,0.0,0.0,0.0,1.3148,1.3403,1.3403,1.3403,1.3322,1.3214,1.3214,1.3139,1.3003,1.3003,1.3003,1.3009,1.3152,1.3214,1.3227,1.3336,1.3403,1.3403,1.3397,1.322,1.3003,1.3003,1.2805,1.2501,1.2501,1.2705,1.3003,1.3003,1.3159,1.337,1.322,1.3281,1.337,1.3261,1.3281,1.3403,1.3403,1.3403,1.3403,1.3403,1.3403,1.3403,1.3403,1.3403,1.3403,1.3403,1.3776,1.4232,1.4631,1.5092,1.5546,1.5925,1.641,1.6862,1.7363,1.8551,2.0293,2.2765,2.3831,2.4495,2.4889,2.5029,2.5303,2.5792,2.6188,2.6305,2.6011,2.5998,2.6131,2.6386,2.668,2.6787,2.6827,2.7527,2.788,2.7921,2.8464,2.8893,0.5954,0.5787,0.578,0.6312,0.6834,0.7459,0.8279,0.8802,0.9356,1.0067,1.0188,1.0008,0.9607,0.9596,0.9655,0.9574,0.9758,1.0003,1.0242,1.0307,1.0373,1.0533,0.0,0.0,0.0,0.0,0.0,0.0,0.0,0.0,0.0,0.0,0.0,0.0,1.3321,1.3403,1.3403,1.3403,1.3376,1.3336,1.3336,1.32,1.3003,1.3003,1.3057,1.3152,1.3193,1.3234,1.3336,1.3383,1.3403,1.339,1.3281,1.3166,1.2989,1.284,1.2739,1.2625,1.2625,1.2861,1.3152,1.3152,1.3241,1.339,1.3349,1.3363,1.339,1.3349,1.3363,1.3403,1.3403,1.3403,1.3403,1.3403,1.3403,1.3403,1.3403,1.3403,1.3486,1.3818,1.3983,1.4315,1.5051,1.5298,1.5546,1.5925,1.6665,1.7973,2.0077,2.1878,2.3493,2.4903,2.5651,2.6102,2.6223,2.6122,2.607,2.6228,2.6347,2.6346,2.6266,2.6305,2.64,2.6694,2.6774,2.6921,2.7134,2.7676,2.8194,2.877,2.9218,2.9741,0.6083,0.607,0.6205,0.6801,0.7365,0.8009,0.8948,0.9416,0.9867,1.0549,1.0585,1.034,0.9937,0.9872,0.9856,0.9736,0.9829,0.9975,1.0215,1.0242,1.0286,1.044,0.0,0.0,0.0,0.0,0.0,0.0,0.0,0.0,0.0,0.0,0.0,0.0,1.3403,1.3403,1.3403,1.3403,1.3403,1.3403,1.3403,1.3308,1.3173,1.3173,1.318,1.3261,1.3261,1.3315,1.3403,1.3403,1.3403,1.3383,1.3234,1.3125,1.2982,1.2786,1.2693,1.2693,1.2693,1.2922,1.3214,1.3214,1.3275,1.3403,1.3403,1.3403,1.3403,1.3403,1.3403,1.3403,1.3403,1.3403,1.3403,1.3403,1.3403,1.3403,1.3403,1.3569,1.3776,1.4066,1.4521,1.51,1.5793,1.6205,1.6575,1.7026,1.8238,1.9964,2.2243,2.4146,2.5479,2.6121,2.666,2.6947,2.6787,2.656,2.644,2.656,2.656,2.6613,2.6734,2.652,2.6466,2.664,2.676,2.6974,2.7309,2.7839,2.8386,2.9008,2.9461,2.9988,0.6301,0.6484,0.681,0.743,0.7954,0.861,0.9742,1.0123,1.0302,1.0609,1.0623,1.0484,1.0128,1.0024,0.9981,0.9807,0.9818,0.9888,1.0041,1.0052,1.0095,0.0,0.0,0.0,0.0,0.0,0.0,0.0,0.0,0.0,0.0,0.0,0.0,1.3403,1.3403,1.3403,1.3403,1.3403,1.3403,0.0,1.3403,1.3403,1.3403,1.3403,1.3403,1.3403,1.3403,1.3403,1.3403,1.3403,1.3403,1.3383,1.3261,1.3125,1.3003,1.2793,1.2706,1.2733,1.2733,1.2956,1.3234,1.3234,1.3288,1.3403,1.3403,1.3403,1.3403,1.3403,1.3403,1.3403,1.3403,1.3403,1.3403,1.3403,1.3403,1.3403,1.3459,1.3839,1.4136,1.4234,1.527,1.6295,1.6823,1.7645,1.8465,1.9029,2.0754,2.249,2.3969,2.555,2.6527,2.6667,2.705,2.7202,2.6881,2.6627,2.6587,2.6841,2.6867,2.6987,2.7296,2.676,2.648,2.6507,2.6774,2.7041,2.7389,2.8084,2.8564,2.8894,2.9464,2.9934,0.6949,0.7064,0.7233,0.7941,0.8679,0.9383,1.0019,1.0182,1.028,1.0541,1.0544,1.0468,1.0478,1.0367,1.0291,1.0242,1.0253,1.028,1.0302,1.0307,1.0318,0.0,0.0,0.0,0.0,0.0,0.0,0.0,0.0,0.0,0.0,0.0,0.0,1.3403,1.3403,1.3403,1.3403,1.3403,1.3403,0.0,1.3403,1.3403,1.3403,1.3403,1.3403,1.3403,1.3403,1.3403,1.3403,1.3403,1.3403,1.3376,1.3152,1.3098,1.3132,1.2827,1.2874,1.3078,1.3078,1.32,1.3349,1.3349,1.3376,1.3403,1.3403,1.3403,1.3403,1.3403,1.3403,1.3403,1.3403,1.3403,1.3403,1.3403,1.3403,1.3514,1.4007,1.4202,1.449,1.5332,1.6328,1.7382,1.8541,1.9503,2.0629,2.2165,2.3326,2.4417,2.5437,2.6447,2.713,2.7145,2.7227,2.7282,2.7215,2.7148,2.7148,2.7202,2.7215,2.7242,2.7309,2.7188,2.7229,2.7415,2.7482,2.7655,2.7991,2.8477,2.8923,2.9356,2.9857,3.0316,0.7406,0.7647,0.7981,0.8843,0.932,0.9671,1.0036,1.0117,1.0166,1.0391,1.0384,1.0384,1.0429,1.034,1.028,1.0221,1.021,1.021,1.021,1.021,1.021,0.0,0.0,0.0,0.0,0.0,0.0,0.0,0.0,0.0,0.0,1.3403,1.3403,1.3403,1.3403,1.3403,1.3403,1.3403,1.3403,1.3403,1.3403,1.3403,1.3403,1.3403,1.3403,1.3403,1.3403,1.3403,1.3403,1.3403,1.3403,1.3376,1.3193,1.3146,1.3193,1.2996,1.3037,1.3227,1.3254,1.3336,1.3403,1.3403,1.3403,1.3403,1.3403,1.3403,1.3403,1.3403,1.3403,1.3445,1.3694,1.3735,1.3776,1.3976,1.3901,1.386,1.4217,1.4833,1.5558,1.6408,1.7672,1.9016,2.0343,2.1734,2.3083,2.4335,2.5097,2.5824,2.663,2.7309,2.767,2.7495,2.7468,2.7456,2.7322,2.7309,2.7362,2.7468,2.7468,2.7576,2.7724,2.7724,2.767,2.7495,2.7495,2.7684,2.7965,2.8605,2.9133,2.9523,3.0165,3.0582,0.7921,0.8383,0.8894,0.9677,0.9838,0.9801,0.9938,0.9964,1.0047,1.015,1.0253,1.0297,1.0221,1.0188,1.0139,1.0036,0.998,1.0019,1.0097,1.0097,1.0136,0.0,0.0,0.0,0.0,0.0,0.0,0.0,0.0,0.0,1.3403,1.3403,1.3403,1.3403,1.3403,1.3403,1.3403,1.3403,1.3403,1.3403,1.3403,1.3403,1.3403,1.3403,1.3403,1.3403,1.3403,1.3403,1.3403,1.3403,1.3403,1.3383,1.3234,1.3227,1.3214,1.3214,1.3268,1.3268,1.3397,1.3437,1.3437,1.341,1.3403,1.3403,1.3403,1.3403,1.3403,1.3403,1.3521,1.3728,1.4183,1.4439,1.4645,1.5123,1.5006,1.4768,1.4588,1.5658,1.6826,1.7605,1.9457,2.1347,2.2607,2.4205,2.5508,2.6121,2.6494,2.6907,2.7532,2.7981,2.8085,2.7802,2.7776,2.7724,2.7483,2.7456,2.7563,2.7762,2.7776,2.7924,2.8179,2.8179,2.7951,2.7469,2.7456,2.7618,2.7901,2.8731,2.9326,2.9649,3.0442,3.0776,0.8814,0.9465,0.9864,0.9741,0.9921,1.0075,0.9867,0.9905,1.0025,1.0002,1.0057,1.0095,1.0188,1.0117,1.0002,0.9986,0.998,1.0136,1.0486,1.0525,1.068,0.0,0.0,0.0,0.0,0.0,0.0,0.0,0.0,0.0,1.3403,1.3403,1.3403,1.3403,1.3403,1.3403,1.3403,1.3403,1.3403,1.3403,1.3403,1.3403,1.3403,1.3403,1.3403,1.3403,1.3403,1.3403,1.3403,1.3403,1.3403,1.3383,1.3234,1.3254,1.337,1.337,1.3451,1.3531,1.3551,1.3558,1.3531,1.3444,1.3403,1.3403,1.3403,1.3403,1.3403,1.3403,1.3935,1.4631,1.5077,1.5785,1.6526,1.7133,1.75,1.7353,1.5987,1.6606,1.7837,1.9275,2.2321,2.4979,2.5992,2.7048,2.7791,2.7872,2.7915,2.8012,2.8094,2.815,2.8165,2.8125,2.8125,2.8112,2.8072,2.8072,2.8085,2.8125,2.8125,2.8138,2.8179,2.8179,2.8152,2.8072,2.8072,2.8253,2.8643,2.9174,2.9662,3.0137,3.0582,3.0776,0.9347,0.9707,0.9907,1.0325,1.0366,1.0349,1.0469,1.0343,1.0252,1.0319,1.0175,1.0036,1.009,1.0057,0.998,0.998,1.0175,1.0408,1.0563,1.0835,1.1068,0.0,0.0,0.0,0.0,0.0,0.0,0.0,0.0,1.3403,1.3403,1.3403,1.3403,1.3403,1.3403,1.3403,1.3403,1.3403,1.3403,1.3403,1.3403,1.3403,1.3403,1.3403,1.3403,1.3403,1.3403,1.3403,1.341,1.3492,1.3532,1.3532,1.3539,1.3587,1.3654,1.3743,1.3763,1.3707,1.3707,1.3653,1.3565,1.3451,1.3403,1.3403,1.3403,1.3403,1.3445,1.3735,1.4431,1.5365,1.6549,1.7492,1.8478,1.9665,2.0144,2.0179,1.9636,1.9505,2.0109,2.2213,2.4648,2.6614,2.7281,2.8109,2.8644,2.8644,2.8644,2.8644,2.8644,2.8644,2.8644,2.8644,2.8644,2.8577,2.846,2.8404,2.8366,2.8192,2.8179,2.8179,2.8179,2.8179,2.8179,2.8179,2.8445,2.8613,2.8782,2.9537,2.9998,3.0221,3.0624,3.0776,0.9575,0.9765,1.0001,1.0575,1.0598,1.055,1.0742,1.0613,1.048,1.0522,1.0402,1.0219,1.0169,1.0136,1.0175,1.0291,1.0563,1.0796,1.0913,1.1254,1.1551,0.0,0.0,0.0,0.0,0.0,0.0,0.0,1.3376,1.3403,1.3403,1.3403,1.3403,1.3403,1.3403,1.3403,1.3403,1.3403,1.3403,1.3403,1.3403,1.3403,1.3403,1.3403,1.3403,1.3403,1.3403,1.3424,1.3464,1.3538,1.3605,1.3653,1.3754,1.3795,1.3815,1.4014,1.406,1.3966,1.3966,1.4047,1.4105,1.395,1.4005,1.4123,1.4123,1.4186,1.4347,1.4806,1.5664,1.6775,1.8426,1.9608,2.0723,2.2201,2.2649,2.2724,2.2798,2.2524,2.2835,2.4944,2.6585,2.7793,2.8095,2.8638,2.9001,2.9001,2.9001,2.9001,2.9001,2.9001,2.9001,2.9001,2.9001,2.8908,2.8738,2.8644,2.8511,2.8312,2.8232,2.8179,2.8179,2.8179,2.8179,2.8179,2.8697,2.8992,2.8992,2.9788,3.0263,3.0373,3.0665,3.0776,0.9437,0.9958,1.0514,1.0053,1.0365,1.0687,1.0312,1.0426,1.057,1.0454,1.0697,1.0886,1.0618,1.0563,1.0719,1.1146,1.1262,1.1417,1.1766,1.1959,1.2207,0.0,0.0,0.0,0.0,0.0,0.0,0.0,1.3315,1.3403,1.3403,1.3403,1.3403,1.3403,1.3403,1.3403,1.3403,1.3403,1.3403,1.3403,1.3403,1.3403,1.3403,1.3403,1.3403,1.3403,1.3403,1.3485,1.3578,1.3585,1.3666,1.3788,1.3795,1.3795,1.3815,1.4014,1.4232,1.4443,1.4443,1.4939,1.5489,1.5353,1.5697,1.6166,1.6166,1.6321,1.662,1.7078,1.8186,1.9493,2.0867,2.2213,2.3488,2.4663,2.4945,2.4734,2.4035,2.4793,2.5877,2.6863,2.8069,2.8931,2.8931,2.8988,2.9001,2.9001,2.9001,2.9001,2.9001,2.9001,2.9001,2.9001,2.9001,2.8988,2.8975,2.8764,2.8604,2.8591,2.8353,2.8179,2.8179,2.8179,2.8179,2.8179,2.902,2.9439,2.9439,2.9956,3.0415,3.079,3.0776,3.0776,0.9657,0.9699,0.98,0.9828,1.0019,1.0267,1.0491,1.0639,1.0819,1.117,1.1111,1.1109,1.1392,1.1223,1.1107,1.1262,1.1533,1.1759,1.2011,1.2305,1.2608,0.0,0.0,0.0,0.0,0.0,0.0,0.0,0.0,0.0,1.3403,1.3403,1.3403,1.3403,1.3403,1.3403,1.3403,1.3403,1.3403,1.3403,1.3403,1.3403,1.3403,1.3403,1.3458,1.3546,1.3546,1.358,1.3599,1.3838,1.3939,1.4,1.4095,1.4136,1.4129,1.4132,1.4338,1.4736,1.537,1.5971,1.6601,1.7595,1.8151,1.8523,1.8804,1.907,1.9399,1.9861,2.071,2.1849,2.3192,2.4413,2.5669,2.7021,2.7478,2.7547,2.7261,2.6939,2.6939,2.7792,2.8719,2.9325,2.9325,2.9472,2.9562,2.9562,2.9562,2.9562,2.9562,2.9562,2.9562,2.9562,2.9562,2.9526,2.9339,2.9232,2.9085,2.8855,2.8778,2.8711,2.8711,2.8711,2.8631,2.8444,2.9309,2.9677,2.9481,3.0248,3.0665,3.0776,3.0776,3.0776,0.9817,0.9695,0.9557,0.9679,0.9861,1.0048,1.0294,1.0557,1.0887,1.1306,1.132,1.1365,1.1779,1.1773,1.1688,1.1688,1.1921,1.2167,1.2272,1.2575,1.2861,0.0,0.0,0.0,0.0,0.0,0.0,0.0,0.0,0.0,1.3403,1.3403,1.3403,1.3403,1.3403,1.3403,1.3403,1.3403,1.3403,1.3403,1.3403,1.3403,1.3403,1.3451,1.3532,1.3592,1.3736,1.3777,1.3797,1.3994,1.4233,1.4419,1.4523,1.4653,1.4771,1.4666,1.5068,1.5767,1.6586,1.7558,1.8607,1.983,2.059,2.1097,2.1347,2.163,2.1937,2.24,2.3042,2.3893,2.5087,2.6196,2.7262,2.8356,2.8751,2.8908,2.9108,2.8539,2.8113,2.8671,2.9243,2.9633,2.9633,2.9793,2.9913,2.9913,2.9913,2.9913,2.9913,2.9913,2.9913,2.9913,2.9913,2.9833,2.9646,2.9539,2.9392,2.9161,2.9055,2.9001,2.9001,2.9001,2.8908,2.8751,2.9468,2.9688,2.9425,3.0333,3.0776,3.0776,3.0776,3.0776,0.0,0.0,0.0,0.9569,0.9837,1.0087,0.9759,1.0203,1.0686,1.0761,1.1325,1.1764,1.1738,1.2131,1.2494,1.2501,1.2501,1.2556,1.2672,1.2868,1.3057,0.0,0.0,0.0,0.0,0.0,0.0,0.0,0.0,1.3403,1.3403,1.3403,1.3403,1.3403,1.3403,1.3403,1.3403,1.3403,1.3403,1.3403,1.3403,1.3403,1.3403,1.3559,1.3592,1.3654,1.3989,1.4119,1.4169,1.4125,1.447,1.4992,1.5036,1.5344,1.5749,1.5785,1.659,1.7639,1.8146,1.9727,2.1547,2.209,2.2978,2.3813,2.3856,2.3986,2.4212,2.4683,2.5153,2.5708,2.6626,2.7516,2.8272,2.8551,2.8631,2.8791,2.9366,2.9486,2.9499,2.9499,2.9726,2.9913,2.9913,2.9913,2.9913,2.9913,2.9913,2.9913,2.9913,2.9913,2.9913,2.9913,2.9913,2.9913,2.9913,2.9659,2.9499,2.9499,2.9219,2.9028,2.9028,2.9028,2.9015,2.9015,2.948,2.959,2.9331,3.0322,3.079,3.0776,3.079,3.0805,0.992,0.0,0.0,0.0,0.0,0.0,0.9187,0.968,1.0297,1.0664,1.1163,1.1638,1.2045,1.2249,1.2379,1.2488,1.2501,1.2596,1.2861,1.2975,1.3098,0.0,0.0,0.0,0.0,0.0,0.0,0.0,1.3403,1.3403,1.3403,1.3403,1.3403,1.3403,1.3403,1.3403,1.3403,1.3403,1.3403,1.3403,1.3403,1.3403,1.3403,1.3559,1.3858,1.4309,1.4513,1.4835,1.5198,1.4502,1.4523,1.508,1.613,1.6833,1.7334,1.8191,1.8965,1.9733,2.1226,2.2372,2.3446,2.5385,2.6363,2.6846,2.7157,2.7294,2.7346,2.7487,2.7447,2.7513,2.7991,2.8313,2.8551,2.8845,2.9085,2.9285,2.9446,2.9646,2.9793,2.9793,2.986,2.9913,2.9913,2.9913,2.9913,2.9913,2.9913,2.9913,2.9913,2.9913,2.9913,2.9913,2.9913,2.9913,2.9913,2.9847,2.9793,2.9793,2.9713,2.9628,2.9628,2.9628,2.9579,2.9366,2.9778,3.0021,3.0107,3.0482,3.0562,3.0388,3.0898,3.13,1.0503,0.0,0.0,1.0043,0.0,0.0,0.9046,0.9495,1.0083,1.0417,1.0927,1.1468,1.2022,1.2176,1.2246,1.233,1.2456,1.2668,1.2961,1.3003,1.3111,0.0,0.0,0.0,0.0,1.3403,0.0,1.3403,1.3403,1.3403,1.3403,1.3403,1.3403,1.3403,1.3403,1.3403,1.3403,1.3464,1.3498,1.3498,1.3553,1.3587,1.3587,1.3743,1.4115,1.4729,1.5445,1.6089,1.6569,1.6613,1.6437,1.6261,1.7315,1.8226,1.9081,2.0,2.0855,2.1755,2.3035,2.4194,2.5331,2.6957,2.7853,2.8304,2.8518,2.8684,2.8721,2.8644,2.847,2.8446,2.8711,2.8791,2.8858,2.9152,2.9352,2.9513,2.9633,2.9793,2.9913,2.9913,2.9913,2.9913,2.9913,2.9913,2.9913,2.9913,2.9913,2.9913,2.9913,2.9913,2.9913,2.9913,2.9913,2.9913,2.9913,2.9913,2.9913,2.9913,2.9913,2.9913,2.9913,2.9913,2.9833,2.9673,3.009,3.0514,3.0905,3.0681,3.0636,3.0659,3.11,3.149,1.1472,1.1301,0.0,0.0,1.0686,0.0,0.9255,0.9571,1.0066,1.0217,1.0763,1.1342,1.1868,1.2045,1.2142,1.2157,1.243,1.2729,1.2929,1.2968,1.3104,0.0,0.0,0.0,1.3376,1.3376,1.3376,1.3376,1.339,1.3403,1.3403,1.3403,1.3403,1.3403,1.3403,1.3445,1.3486,1.3595,1.3712,1.3754,1.3904,1.3973,1.3973,1.4174,1.4547,1.5213,1.6629,1.757,1.8217,1.9525,1.9273,1.8147,1.875,1.9752,2.0978,2.1618,2.2611,2.3686,2.4235,2.5543,2.7017,2.748,2.8102,2.8657,2.8698,2.8858,2.8948,2.8724,2.8657,2.8711,2.8921,2.9001,2.9068,2.9366,2.9459,2.9553,2.9806,2.99,2.9913,2.9913,2.9913,2.9913,2.9913,2.9913,2.9913,2.9913,2.9913,2.9913,2.9913,2.9913,2.9913,2.9913,2.9913,2.9913,2.9913,2.9913,2.9913,2.9913,2.9913,2.9913,2.9913,2.9913,2.9913,2.9913,3.0392,3.0967,3.1596,3.0938,3.0921,3.1417,3.1417,3.1593,1.2111,1.2235,1.2182,1.1556,0.0,0.0,0.9801,0.9863,1.0237,1.0537,1.0947,1.1487,1.2179,1.231,1.2378,1.2491,1.2483,1.2498,1.2573,1.2863,1.31,1.3247,0.0,0.0,1.3248,1.3254,1.3254,1.3254,1.3329,1.3403,1.3403,1.3403,1.3403,1.3403,1.3403,1.3569,1.3942,1.409,1.4336,1.4722,1.4926,1.5006,1.5014,1.5168,1.5884,1.7095,1.7887,1.8925,2.01,2.0752,2.0665,2.0178,2.1391,2.2266,2.3041,2.4586,2.5324,2.5702,2.678,2.7384,2.7809,2.8489,2.8825,2.8961,2.9245,2.9179,2.8988,2.8921,2.8908,2.8921,2.8988,2.9001,2.9015,2.9068,2.9312,2.9499,2.9553,2.9753,2.9913,2.9913,2.9913,2.9913,2.9913,2.9913,2.9913,2.9913,2.9913,2.9913,2.9913,2.9913,2.9913,2.9913,2.9913,2.9913,2.9913,2.9913,2.9913,2.9913,2.9913,2.9913,2.9913,2.9913,2.9913,2.9913,3.075,3.1308,3.1596,3.121,3.1368,3.209,3.209,3.2266,1.3109,1.2991,1.2762,1.2231,0.0,0.0,0.0,1.023,1.0548,1.0723,1.1159,1.1676,1.2192,1.2303,1.233,1.2404,1.2503,1.2533,1.237,1.2619,1.286,1.3084,0.0,0.0,1.3098,1.3105,1.3139,1.3207,1.3241,1.3322,1.3397,1.3403,1.3403,1.3403,1.3403,1.3611,1.4108,1.4877,1.5497,1.5965,1.6808,1.7281,1.7417,1.7459,1.807,1.9161,2.013,2.1098,2.2093,2.3213,2.3557,2.3331,2.3127,2.3611,2.4524,2.5677,2.6401,2.6893,2.7473,2.7866,2.8092,2.8494,2.8698,2.8815,2.9005,2.8938,2.8841,2.9179,2.9108,2.9068,2.9362,2.9428,2.9428,2.9428,2.9593,2.97,2.97,2.982,2.9913,2.9913,2.9913,2.9913,2.9913,2.9913,2.9913,2.9913,3.0047,3.0087,2.994,3.0047,3.0074,2.9927,2.9913,2.9913,2.9913,2.9913,2.9913,2.9913,2.9913,2.9913,2.9913,2.9913,3.0003,3.0227,3.0705,3.1215,3.1781,3.1624,3.1801,3.228,3.228,3.2456,0.0,0.0,0.0,0.0,0.0,1.1448,0.0,0.0,0.0,1.1085,1.1479,1.1902,1.2237,1.2308,1.2308,1.2308,0.0,0.0,0.0,1.2438,0.0,1.2834,0.0,0.0,0.0,1.2932,1.3047,1.3272,1.3233,1.3315,1.3555,1.3535,1.3569,1.3645,1.3569,1.3818,1.4356,1.5662,1.6618,1.721,1.8652,1.9462,1.9709,1.9747,2.0205,2.0985,2.2234,2.3084,2.3783,2.5409,2.6103,2.5963,2.4598,2.4726,2.5732,2.6188,2.6838,2.7516,2.7614,2.7897,2.8179,2.8179,2.8393,2.8604,2.8604,2.8644,2.8804,2.9339,2.9312,2.9202,2.978,2.9913,2.9913,2.9913,2.9913,2.9913,2.9913,2.9913,2.9913,2.9913,2.9913,2.9913,2.9913,2.9913,2.9913,2.9913,3.0114,3.0226,2.994,3.0127,3.0181,2.994,2.9913,2.9913,2.9913,2.9913,2.9913,2.9913,2.9913,2.9913,2.9913,2.9913,3.0137,3.0571,3.0705,3.1151,3.201,3.2099,3.2235,3.2383,3.2383,3.2515,0.0,0.0,0.0,0.0,1.3509,0.0,0.0,0.0,1.1844,1.2067,0.0,1.2329,1.259,0.0,0.0,0.0,0.0,0.0,1.2942,1.2665,1.2445,1.2452,0.0,0.0,0.0,0.0,1.3041,1.3617,1.3412,1.3522,1.4073,1.4032,1.419,1.4548,1.4232,1.4439,1.5257,1.6286,1.7252,1.8168,1.9635,2.0383,2.0413,2.0645,2.1257,2.214,2.2954,2.3783,2.4609,2.5677,2.6103,2.6146,2.6316,2.6486,2.6711,2.7177,2.7402,2.7558,2.7981,2.815,2.8179,2.8179,2.8393,2.8604,2.8604,2.8791,2.9015,2.9392,2.9459,2.9513,2.9833,2.9913,2.9913,2.9913,2.9913,2.9913,2.9913,2.9913,2.9913,2.9913,2.9913,2.9913,2.9913,2.9913,2.9913,2.9913,2.994,2.9953,2.9913,2.994,2.9953,2.9913,2.9913,2.9913,2.9913,2.9913,2.9913,2.9913,2.9913,2.9913,2.9913,2.9913,3.0137,3.0571,3.1017,3.1463,3.201,3.2454,3.2705,3.2764,3.2764,3.2778,0.0,0.0,0.0,0.0,0.0,0.0,1.2111,0.0,1.2207,0.0,0.0,0.0,0.0,0.0,0.0,0.0,1.2763,0.0,0.0,0.0,1.2532,0.0,0.0,0.0,0.0,0.0,0.0,0.0,0.0,1.3784,1.4294,1.4881,1.5159,1.5092,1.5159,1.5373,1.5752,1.7169,1.8348,1.926,2.1368,2.2482,2.2669,2.277,2.3181,2.3898,2.4171,2.4608,2.5177,2.6103,2.6528,2.6571,2.7334,2.7474,2.722,2.7431,2.7685,2.7939,2.815,2.8299,2.8444,2.8604,2.8751,2.8815,2.8815,2.8895,2.9055,2.9406,2.9486,2.9553,2.9847,2.9913,2.9913,2.9913,2.9913,2.9913,2.9913,2.9913,2.9913,2.9913,2.9913,2.9913,2.9913,2.9913,2.9913,2.9913,3.006,3.0114,2.994,3.0074,3.0114,2.994,2.9913,2.9913,2.9913,2.9913,2.9913,2.9913,2.9913,3.0003,3.0316,3.0316,3.0526,3.1017,3.1182,3.1552,3.201,3.2232,3.2498,3.2822,3.2822,3.2822,1.584,0.0,0.0,0.0,0.0,0.0,0.0,0.0,0.0,0.0,0.0,0.0,0.0,0.0,0.0,0.0,0.0,1.2786,0.0,1.2534,0.0,0.0,0.0,0.0,0.0,0.0,0.0,0.0,0.0,0.0,1.4895,1.5767,1.622,1.6204,1.6278,1.6476,1.6739,1.8105,1.9307,2.0395,2.2769,2.4053,2.4306,2.4379,2.4632,2.5005,2.5077,2.5307,2.5647,2.6456,2.6881,2.7093,2.7897,2.7981,2.7698,2.779,2.7963,2.8192,2.8286,2.846,2.8657,2.8908,2.9001,2.9001,2.9001,2.9001,2.9055,2.9406,2.9486,2.9553,2.9847,2.9913,2.9913,2.9913,2.9913,2.9913,2.9913,2.9913,2.9913,2.9913,2.9913,2.9913,2.9913,2.9913,2.9913,2.9913,3.01,3.0167,2.994,3.01,3.0154,2.994,2.9913,2.9913,2.9913,2.9913,2.9913,2.9913,2.9913,3.0093,3.0571,3.0616,3.0839,3.1271,3.1418,3.164,3.201,3.2143,3.2409,3.2822,3.2822,3.2822,0.0,0.0,0.0,1.5788,0.0,0.0,0.0,0.0,1.3147,0.0,0.0,0.0,0.0,0.0,0.0,0.0,0.0,0.0,0.0,0.0,0.0,0.0,0.0,0.0,0.0,0.0,0.0,0.0,0.0,0.0,1.6138,1.6563,1.723,1.8191,1.7607,1.7705,1.8614,1.9053,2.0048,2.1577,2.3359,2.4318,2.4583,2.4861,2.4993,2.5017,2.527,2.5635,2.6103,2.6613,2.7093,2.7529,2.8023,2.8179,2.8219,2.8484,2.8404,2.8232,2.8484,2.8604,2.8657,2.8908,2.9001,2.9001,2.9001,2.9001,2.9055,2.9406,2.9486,2.9553,2.9847,2.9913,2.9913,2.9913,2.9913,2.9913,2.9913,2.9913,2.9913,2.9913,2.9913,2.9913,2.9913,2.9913,2.9913,2.9913,2.9927,2.9927,2.9913,2.9927,2.9927,2.9913,2.9913,2.9913,2.9913,2.9913,2.9913,2.9913,2.9913,3.0093,3.0571,3.0616,3.0839,3.1271,3.1729,3.1966,3.201,3.2498,3.2778,3.2822,3.2822,3.2822,0.0,0.0,1.5909,1.6148,0.0,0.0,0.0,0.0,0.0,0.0,0.0,0.0,0.0,0.0,0.0,0.0,0.0,0.0,0.0,0.0,0.0,0.0,0.0,1.2548,0.0,0.0,0.0,0.0,1.4395,0.0,0.0,1.7786,1.8653,1.9263,1.9665,1.9897,1.9957,2.0343,2.1067,2.208,2.3534,2.433,2.4583,2.468,2.4824,2.5005,2.5427,2.5773,2.6146,2.6923,2.7347,2.7571,2.8023,2.8312,2.847,2.8564,2.8537,2.8524,2.9018,2.9192,2.9232,2.9526,2.9619,2.9619,2.9619,2.9619,2.9602,2.974,2.9766,2.9793,2.9887,2.9913,2.9913,2.9913,2.9913,2.9913,2.9913,2.9913,2.9913,2.9913,2.9913,2.9913,2.9913,2.9913,2.9913,2.9913,2.9913,2.9913,2.9913,2.9913,2.9913,2.9913,2.9913,2.9913,2.9913,2.9913,2.9913,2.9913,2.9913,3.0093,3.0571,3.0616,3.0973,3.1729,3.1921,3.2188,3.2542,3.2719,3.2822,3.2822,3.2822,3.2822,1.4457,1.4974,0.0,0.0,1.6141,0.0,1.5118,0.0,0.0,0.0,0.0,0.0,0.0,0.0,0.0,0.0,0.0,0.0,0.0,1.2566,0.0,0.0,1.2497,1.2649,1.3201,1.3546,1.3922,1.4316,1.4519,1.534,0.0,0.0,1.9359,2.0187,2.0942,2.1318,2.1295,2.1481,2.2052,2.2924,2.3974,2.462,2.4873,2.4873,2.5053,2.5433,2.5717,2.6111,2.6656,2.7262,2.7614,2.7783,2.8185,2.843,2.8617,2.8724,2.8831,2.8978,2.9352,2.9486,2.9526,2.982,2.9913,2.9913,2.9913,2.9913,2.9913,2.9913,2.9913,2.9913,2.9913,2.9913,2.9913,2.9913,2.9913,2.9913,2.9913,2.9913,2.9913,2.9913,2.9913,2.9913,2.9913,2.9913,2.9913,2.9913,2.9913,2.9913,2.9913,2.9913,2.9913,2.9913,2.9913,2.9913,2.9913,2.9913,2.9913,2.9913,2.9913,3.0093,3.0571,3.075,3.1196,3.1966,3.2188,3.2454,3.2822,3.2822,3.2822,3.2822,3.2822,3.2822]},{"header":{"parameterUnit":"m.s-1","parameterCategory":1,"la1":30.6,"la2":29.2853,"lo1":-89.7004,"lo2":-87.6739,"dy":0.0162,"dx":0.0183,"nx":112,"ny":82,"refTime":"2026-04-15T12:00:00:Z","depth":0,"parameterNumber":3,"parameterNumberName":"V-component_of_WINDS"},"data":[0.0,0.0,0.0,0.0,0.0,0.0,0.0,0.0,0.0,0.0,0.0,0.0,0.0,0.0,0.0,0.0,0.0,0.0,0.0,0.0,0.0,0.0,0.0,0.0,0.0,0.0,0.0,0.0,0.0,0.0,0.0,0.0,0.0,0.0,0.0,0.0,0.0,0.0,0.0,0.0,0.0,0.0,0.0,0.0,0.0,0.0,0.0,0.0,0.0,0.0,0.0,0.0,0.0,0.0,0.0,0.0,0.0,0.0,0.0,0.0,0.0,0.0,0.0,0.0,0.0,0.0,0.0,0.0,0.0,0.0,0.0,0.0,0.0,0.0,0.0,0.0,0.0,0.0,0.0,0.0,0.0,0.0,0.0,0.0,0.0,0.0,0.0,0.0,0.0,0.0,3.5504,3.9358,4.511,4.7936,4.6201,4.3988,4.0845,3.6491,0.0,0.0,0.0,0.0,0.0,0.0,0.0,0.0,0.0,0.0,0.0,0.0,0.0,0.0,0.0,0.0,0.0,0.0,0.0,0.0,0.0,0.0,0.0,0.0,0.0,0.0,0.0,0.0,0.0,0.0,0.0,0.0,0.0,0.0,0.0,0.0,0.0,0.0,0.0,0.0,0.0,0.0,0.0,0.0,0.0,0.0,0.0,0.0,0.0,0.0,0.0,0.0,0.0,0.0,0.0,0.0,0.0,0.0,0.0,0.0,0.0,0.0,0.0,0.0,0.0,0.0,0.0,0.0,0.0,0.0,0.0,0.0,0.0,0.0,0.0,0.0,0.0,0.0,0.0,0.0,0.0,0.0,0.0,0.0,0.0,0.0,0.0,0.0,0.0,0.0,0.0,0.0,0.0,0.0,0.0,0.0,0.0,0.0,0.0,0.0,0.0,0.0,0.0,0.0,3.7801,4.4734,4.887,5.0187,4.7772,4.6607,4.3847,3.882,0.0,0.0,0.0,0.0,0.0,0.0,0.0,0.0,0.0,0.0,0.0,0.0,0.0,0.0,0.0,0.0,0.0,0.0,0.0,0.0,0.0,0.0,0.0,0.0,0.0,0.0,0.0,0.0,0.0,0.0,0.0,0.0,0.0,0.0,0.0,0.0,0.0,0.0,0.0,0.0,0.0,0.0,0.0,0.0,0.0,0.0,0.0,0.0,0.0,0.0,0.0,0.0,0.0,0.0,0.0,0.0,0.0,0.0,0.0,0.0,0.0,0.0,0.0,0.0,0.0,0.0,0.0,0.0,0.0,0.0,0.0,0.0,0.0,0.0,0.0,0.0,0.0,0.0,0.0,0.0,0.0,0.0,0.0,0.0,0.0,0.0,0.0,0.0,0.0,0.0,0.0,0.0,0.0,0.0,0.0,0.0,0.0,0.0,0.0,0.0,0.0,0.0,0.0,3.6198,4.1373,4.6224,4.9792,5.0791,4.8246,4.6839,4.3905,3.871,3.2329,0.0,0.0,0.0,0.0,0.0,0.0,0.0,0.0,0.0,0.0,0.0,0.0,0.0,0.0,0.0,0.0,0.0,0.0,0.0,0.0,0.0,0.0,0.0,0.0,0.0,0.0,0.0,0.0,0.0,0.0,0.0,0.0,0.0,0.0,0.0,0.0,0.0,0.0,0.0,0.0,0.0,0.0,0.0,0.0,0.0,0.0,0.0,0.0,0.0,0.0,0.0,0.0,0.0,0.0,0.0,0.0,0.0,0.0,0.0,0.0,0.0,0.0,0.0,0.0,0.0,0.0,0.0,0.0,0.0,0.0,0.0,0.0,0.0,0.0,0.0,0.0,0.0,0.0,0.0,0.0,0.0,0.0,0.0,0.0,0.0,0.0,0.0,0.0,0.0,0.0,0.0,0.0,0.0,0.0,0.0,0.0,0.0,0.0,0.0,0.0,0.0,0.0,4.0816,4.434,4.693,5.0436,5.1318,4.8115,4.6502,4.3288,3.77,3.193,0.0,0.0,0.0,0.0,0.0,0.0,0.0,0.0,0.0,0.0,0.0,0.0,0.0,0.0,0.0,0.0,0.0,0.0,0.0,0.0,0.0,0.0,0.0,0.0,0.0,0.0,0.0,0.0,0.0,0.0,0.0,0.0,0.0,0.0,0.0,0.0,0.0,0.0,0.0,0.0,0.0,0.0,0.0,0.0,0.0,0.0,0.0,0.0,0.0,0.0,0.0,0.0,0.0,0.0,0.0,0.0,0.0,0.0,0.0,0.0,0.0,0.0,0.0,0.0,0.0,0.0,0.0,0.0,0.0,0.0,0.0,0.0,0.0,0.0,0.0,0.0,0.0,0.0,0.0,0.0,0.0,0.0,0.0,0.0,0.0,0.0,0.0,0.0,0.0,0.0,0.0,0.0,0.0,0.0,0.0,0.0,0.0,0.0,0.0,0.0,0.0,0.0,4.1883,4.5473,4.8029,5.2089,5.2592,4.7603,4.6369,4.2991,3.6191,3.0865,0.0,0.0,0.0,0.0,0.0,0.0,0.0,0.0,0.0,0.0,0.0,0.0,0.0,0.0,0.0,0.0,0.0,0.0,0.0,0.0,0.0,0.0,0.0,0.0,0.0,0.0,0.0,0.0,0.0,0.0,0.0,0.0,0.0,0.0,0.0,0.0,0.0,0.0,0.0,0.0,0.0,0.0,0.0,0.0,0.0,0.0,0.0,0.0,0.0,0.0,0.0,0.0,0.0,0.0,0.0,0.0,0.0,0.0,0.0,0.0,0.0,0.0,0.0,0.0,0.0,0.0,0.0,0.0,0.0,0.0,0.0,0.0,0.0,0.0,0.0,0.0,0.0,0.0,0.0,0.0,0.0,0.0,0.0,0.0,0.0,0.0,0.0,0.0,0.0,0.0,0.0,0.0,0.0,0.0,0.0,0.0,0.0,0.0,0.0,0.0,0.0,0.0,4.2519,4.6246,0.0,5.1864,5.2246,4.7608,4.5964,4.2452,3.6066,0.0,0.0,0.0,0.0,0.0,0.0,0.0,0.0,0.0,0.0,0.0,0.0,0.0,0.0,0.0,0.0,0.0,0.0,0.0,0.0,0.0,0.0,0.0,0.0,0.0,0.0,0.0,0.0,0.0,0.0,0.0,0.0,0.0,0.0,0.0,0.0,0.0,0.0,0.0,0.0,0.0,0.0,0.0,0.0,0.0,0.0,0.0,0.0,0.0,0.0,0.0,0.0,0.0,0.0,0.0,0.0,0.0,0.0,0.0,0.0,0.0,0.0,0.0,0.0,0.0,0.0,0.0,0.0,0.0,0.0,0.0,0.0,0.0,0.0,0.0,0.0,0.0,0.0,0.0,0.0,0.0,0.0,0.0,0.0,0.0,0.0,0.0,0.0,0.0,0.0,0.0,0.0,0.0,0.0,0.0,0.0,0.0,0.0,0.0,0.0,0.0,0.0,3.7651,4.3101,4.6999,0.0,5.1927,5.2144,4.7331,4.5082,4.1324,3.5277,0.0,0.0,0.0,0.0,0.0,0.0,0.0,0.0,0.0,0.0,0.0,0.0,0.0,0.0,0.0,0.0,0.0,0.0,0.0,0.0,0.0,0.0,0.0,0.0,0.0,0.0,0.0,0.0,0.0,0.0,0.0,0.0,0.0,0.0,0.0,0.0,0.0,0.0,0.0,0.0,0.0,0.0,0.0,0.0,0.0,0.0,0.0,0.0,0.0,0.0,0.0,0.0,0.0,0.0,0.0,0.0,0.0,0.0,0.0,0.0,0.0,0.0,0.0,0.0,0.0,0.0,0.0,0.0,0.0,0.0,0.0,0.0,0.0,0.0,0.0,0.0,0.0,0.0,0.0,0.0,0.0,0.0,0.0,0.0,0.0,0.0,0.0,0.0,0.0,0.0,0.0,0.0,0.0,0.0,0.0,0.0,0.0,0.0,0.0,0.0,0.0,0.0,3.7717,4.3696,4.7725,4.8503,5.2421,5.2559,4.662,4.3694,3.9648,0.0,0.0,0.0,0.0,0.0,0.0,0.0,0.0,0.0,0.0,0.0,0.0,0.0,0.0,0.0,0.0,0.0,0.0,0.0,0.0,0.0,0.0,0.0,0.0,0.0,0.0,0.0,0.0,0.0,0.0,0.0,0.0,0.0,0.0,0.0,0.0,0.0,0.0,0.0,0.0,0.0,0.0,0.0,0.0,0.0,0.0,0.0,0.0,0.0,0.0,0.0,0.0,0.0,0.0,0.0,0.0,0.0,0.0,0.0,0.0,0.0,0.0,0.0,0.0,0.0,0.0,0.0,0.0,0.0,0.0,0.0,0.0,0.0,0.0,0.0,0.0,0.0,0.0,0.0,0.0,0.0,0.0,0.0,0.0,0.0,0.0,0.0,0.0,0.0,0.0,0.0,0.0,0.0,0.0,0.0,0.0,0.0,0.0,0.0,0.0,0.0,0.0,0.0,3.781,4.3737,4.7787,4.8639,5.1524,5.1434,4.6566,4.4295,4.0546,3.4513,0.0,0.0,0.0,0.0,0.0,0.0,0.0,0.0,0.0,0.0,0.0,0.0,0.0,0.0,0.0,0.0,0.0,0.0,0.0,0.0,0.0,0.0,0.0,0.0,0.0,0.0,0.0,0.0,0.0,0.0,0.0,0.0,0.0,0.0,0.0,0.0,0.0,0.0,0.0,0.0,0.0,0.0,0.0,0.0,0.0,0.0,0.0,0.0,0.0,0.0,0.0,0.0,0.0,0.0,0.0,0.0,0.0,0.0,0.0,0.0,0.0,0.0,0.0,0.0,0.0,0.0,0.0,0.0,0.0,0.0,0.0,0.0,0.0,0.0,0.0,0.0,0.0,0.0,0.0,0.0,0.0,0.0,0.0,0.0,0.0,0.0,0.0,0.0,0.0,0.0,0.0,0.0,0.0,0.0,0.0,0.0,0.0,0.0,0.0,0.0,0.0,0.0,3.7927,4.4101,4.8242,4.8788,5.1169,5.0968,4.6618,4.4852,4.1443,3.5403,0.0,0.0,0.0,0.0,0.0,0.0,0.0,0.0,0.0,0.0,0.0,0.0,0.0,0.0,0.0,0.0,0.0,0.0,0.0,0.0,0.0,0.0,0.0,0.0,0.0,0.0,0.0,0.0,0.0,0.0,0.0,0.0,0.0,0.0,0.0,0.0,0.0,0.0,0.0,0.0,0.0,0.0,0.0,0.0,0.0,0.0,0.0,0.0,0.0,0.0,0.0,0.0,0.0,0.0,0.0,0.0,0.0,0.0,0.0,0.0,0.0,0.0,0.0,0.0,0.0,0.0,0.0,0.0,0.0,0.0,0.0,0.0,0.0,0.0,0.0,0.0,0.0,0.0,0.0,0.0,0.0,0.0,0.0,0.0,0.0,0.0,0.0,0.0,0.0,0.0,0.0,0.0,0.0,0.0,0.0,0.0,0.0,0.0,0.0,0.0,0.0,0.0,3.8026,4.4552,4.8812,4.889,5.1127,5.0898,4.6756,4.5432,4.225,3.6286,0.0,0.0,0.0,0.0,0.0,0.0,0.0,0.0,0.0,0.0,0.0,0.0,0.0,0.0,0.0,0.0,0.0,0.0,0.0,0.0,0.0,0.0,0.0,0.0,0.0,0.0,0.0,0.0,0.0,0.0,0.0,0.0,0.0,0.0,0.0,0.0,0.0,0.0,0.0,0.0,0.0,0.0,0.0,0.0,0.0,0.0,0.0,0.0,0.0,0.0,0.0,0.0,0.0,0.0,0.0,0.0,0.0,0.0,0.0,0.0,2.9879,0.0,0.0,0.0,0.0,0.0,0.0,0.0,0.0,0.0,0.0,0.0,0.0,0.0,0.0,0.0,0.0,0.0,0.0,0.0,0.0,0.0,0.0,0.0,0.0,0.0,0.0,0.0,0.0,0.0,0.0,0.0,0.0,0.0,0.0,0.0,0.0,0.0,0.0,0.0,0.0,0.0,3.8025,4.4038,4.8143,4.8819,5.0582,5.0469,4.7484,4.5759,4.2539,3.7178,3.2727,0.0,0.0,0.0,0.0,0.0,0.0,0.0,0.0,0.0,0.0,0.0,0.0,0.0,0.0,0.0,0.0,0.0,0.0,0.0,0.0,0.0,0.0,0.0,0.0,0.0,0.0,0.0,0.0,0.0,0.0,0.0,0.0,0.0,0.0,0.0,0.0,0.0,0.0,0.0,0.0,0.0,0.0,0.0,0.0,0.0,0.0,0.0,0.0,0.0,0.0,0.0,0.0,0.0,0.0,0.0,0.0,0.0,0.0,0.0,0.0,3.1968,0.0,0.0,0.0,0.0,0.0,0.0,0.0,0.0,0.0,0.0,0.0,0.0,0.0,0.0,0.0,0.0,0.0,0.0,0.0,0.0,0.0,0.0,0.0,0.0,0.0,0.0,0.0,0.0,0.0,0.0,0.0,0.0,0.0,0.0,0.0,0.0,0.0,0.0,0.0,0.0,3.8142,4.4192,4.8335,4.8816,5.0388,5.0351,4.7717,4.6564,4.3798,3.8635,3.5003,0.0,0.0,0.0,0.0,0.0,0.0,0.0,0.0,0.0,0.0,0.0,0.0,0.0,0.0,0.0,0.0,0.0,0.0,0.0,0.0,0.0,0.0,0.0,0.0,0.0,0.0,0.0,0.0,0.0,0.0,0.0,0.0,0.0,0.0,0.0,0.0,0.0,0.0,0.0,0.0,0.0,0.0,0.0,0.0,0.0,0.0,0.0,0.0,0.0,0.0,0.0,0.0,0.0,4.1389,4.2535,4.3866,4.4029,4.452,4.5001,3.9977,3.7317,3.6447,0.0,0.0,0.0,0.0,0.0,0.0,0.0,0.0,0.0,0.0,0.0,0.0,0.0,0.0,0.0,0.0,0.0,0.0,0.0,0.0,0.0,0.0,0.0,0.0,0.0,3.8258,3.7407,0.0,0.0,0.0,0.0,0.0,0.0,0.0,0.0,0.0,0.0,0.0,0.0,3.8454,4.4662,4.8805,4.8816,5.035,5.0388,4.7909,4.7442,4.517,4.013,3.751,3.4582,0.0,0.0,0.0,0.0,0.0,0.0,0.0,0.0,0.0,0.0,0.0,0.0,0.0,0.0,0.0,0.0,0.0,0.0,0.0,0.0,0.0,0.0,0.0,0.0,0.0,0.0,0.0,0.0,0.0,0.0,0.0,0.0,2.73,2.8996,0.0,0.0,0.0,0.0,0.0,0.0,0.0,0.0,0.0,0.0,0.0,0.0,0.0,3.9157,4.2444,4.3368,4.4684,4.6473,4.7413,4.7908,4.8033,4.8861,4.9611,5.0273,4.8855,0.0,4.1686,4.0115,0.0,0.0,0.0,0.0,0.0,0.0,0.0,0.0,0.0,0.0,0.0,0.0,0.0,0.0,0.0,0.0,0.0,0.0,0.0,0.0,0.0,0.0,4.358,4.2801,4.3231,4.3634,0.0,3.9396,3.5974,3.5045,0.0,0.0,0.0,0.0,0.0,0.0,0.0,0.0,3.9312,4.5057,4.8856,4.8828,5.035,5.0606,4.8704,4.7778,4.5405,4.1011,3.8919,3.6359,3.2914,3.0327,0.0,0.0,0.0,0.0,0.0,0.0,0.0,0.0,0.0,0.0,0.0,0.0,0.0,0.0,0.0,0.0,0.0,0.0,0.0,0.0,0.0,0.0,0.0,0.0,0.0,0.0,0.0,0.0,0.0,2.7089,2.9454,3.1117,3.1267,3.1071,0.0,0.0,0.0,0.0,0.0,0.0,0.0,0.0,0.0,4.0789,4.2095,4.4392,4.7824,4.8717,5.0029,5.1753,5.267,5.3331,5.3753,5.4182,5.4555,5.478,5.3978,5.2196,4.9513,4.55,4.2914,4.1203,0.0,0.0,0.0,0.0,0.0,3.8707,3.9676,0.0,0.0,0.0,0.0,0.0,0.0,0.0,0.0,0.0,0.0,0.0,0.0,0.0,0.0,4.5722,4.5916,4.6359,4.688,4.4843,4.222,0.0,3.8268,3.6139,3.2982,0.0,0.0,0.0,0.0,3.783,4.0881,4.5693,4.9021,4.9491,5.0613,5.0622,4.884,4.8297,4.6582,4.3241,4.1353,3.9027,3.6085,3.3032,3.017,0.0,0.0,0.0,0.0,0.0,0.0,0.0,0.0,0.0,0.0,0.0,0.0,0.0,0.0,0.0,0.0,0.0,0.0,0.0,0.0,0.0,0.0,0.0,0.0,0.0,0.0,0.0,0.0,3.0545,3.2402,3.3819,3.4295,3.4368,0.0,0.0,0.0,0.0,0.0,0.0,3.9,4.0275,4.2523,4.5901,4.7037,4.9012,5.2065,5.2904,5.4145,5.5698,5.6597,5.7349,5.7953,5.8194,5.8308,5.8181,5.738,5.6754,5.5893,5.0462,4.7642,4.6445,4.3534,4.2844,4.3374,4.282,4.3188,4.4131,4.5082,4.5413,4.5261,4.4383,0.0,4.0633,3.8931,0.0,0.0,0.0,0.0,4.2252,4.3777,0.0,4.8286,4.8286,4.8635,4.9118,4.9836,4.934,4.7744,0.0,4.2656,4.0601,3.697,0.0,0.0,0.0,0.0,3.9671,4.2687,4.6639,4.9375,5.0031,5.0828,5.0595,4.8861,4.8626,4.7379,4.4554,4.286,4.0848,3.8292,3.4925,3.1792,2.9014,0.0,0.0,0.0,0.0,0.0,0.0,0.0,0.0,0.0,0.0,0.0,0.0,0.0,0.0,0.0,0.0,0.0,0.0,0.0,0.0,0.0,0.0,0.0,0.0,0.0,0.0,0.0,0.0,0.0,3.8363,3.9754,0.0,0.0,0.0,0.0,3.9515,4.1806,4.3585,4.4551,4.6853,4.8694,4.9784,5.1367,5.3073,5.4974,5.5798,5.6628,5.7465,5.8467,5.8918,5.8888,5.9803,6.017,5.9946,5.9254,5.899,5.8693,5.449,5.1816,5.0163,4.8548,4.7913,4.799,4.8072,4.8655,4.9527,5.0476,5.0808,5.0653,4.9804,4.7261,4.4221,4.2531,4.1381,0.0,0.0,4.3264,4.48,4.5724,4.846,5.1005,5.1005,5.2212,5.3399,5.3535,5.2922,5.1329,0.0,4.5231,4.2982,4.1108,0.0,3.7322,3.822,4.0492,4.2805,4.4647,4.789,5.0031,5.0113,5.0876,5.0649,4.8855,4.8642,4.7148,4.3665,4.2553,4.0848,3.8292,3.4925,3.2643,3.1637,2.754,0.0,0.0,0.0,0.0,0.0,0.0,0.0,0.0,0.0,0.0,0.0,0.0,0.0,0.0,0.0,0.0,0.0,0.0,0.0,0.0,0.0,0.0,0.0,0.0,0.0,0.0,0.0,0.0,4.2675,4.3785,0.0,4.3593,4.2468,4.2631,4.4682,4.6243,4.7978,4.9924,5.1865,5.362,5.5001,5.6673,5.8092,5.9244,6.0084,6.0411,6.0224,6.0633,6.0531,5.9935,6.0295,6.0441,6.0317,5.9529,5.9255,5.9252,5.7336,5.5876,5.4579,5.2489,5.1676,5.165,5.1136,5.1176,5.168,5.3135,5.3261,5.2568,5.1184,4.9526,4.7867,4.6763,4.6191,4.6154,4.7006,4.7648,4.829,4.9142,5.0678,5.1979,5.1979,5.2876,5.3554,5.3066,5.2336,5.1406,5.0236,4.8821,4.7119,4.4856,4.3216,4.2359,4.2678,4.3508,4.4882,4.7148,4.9012,5.0316,5.0876,5.1163,5.0618,4.8848,4.8642,4.7109,4.3626,4.2011,4.0075,3.748,3.4615,3.2449,3.1059,2.8431,2.6575,0.0,0.0,0.0,0.0,0.0,0.0,0.0,0.0,0.0,0.0,0.0,0.0,0.0,0.0,0.0,0.0,0.0,0.0,0.0,0.0,0.0,0.0,0.0,0.0,0.0,4.1185,4.4437,4.6301,4.7917,4.8673,4.8143,4.6991,4.7167,4.9245,5.0325,5.1848,5.4099,5.5287,5.6655,5.833,5.9441,6.0539,6.1675,6.2532,6.2705,6.2247,6.2011,6.1607,6.1,6.075,6.0634,6.0577,6.0012,5.9842,5.9979,5.9562,5.906,5.826,5.5823,5.4911,5.4834,5.398,5.3696,5.3883,5.5048,5.4854,5.3967,5.2855,5.208,5.1461,5.0625,5.0589,5.0861,5.1175,5.1006,5.0953,5.1811,5.2421,5.2915,5.3222,5.3925,5.429,5.318,5.2295,5.1598,5.1055,5.0266,4.9149,4.7432,4.6459,4.5879,4.585,4.6092,4.6991,4.8974,5.0004,5.0755,5.132,5.1335,5.0603,4.8846,4.865,4.7123,4.3602,4.1758,3.9632,3.7036,3.4469,3.2449,3.1021,2.9323,2.7462,2.548,0.0,0.0,0.0,0.0,0.0,0.0,0.0,0.0,0.0,0.0,0.0,0.0,0.0,0.0,0.0,0.0,0.0,0.0,0.0,0.0,0.0,0.0,0.0,4.0448,4.5,4.8548,4.9291,5.2213,5.3566,5.192,5.175,5.2102,5.307,5.41,5.5388,5.701,5.7115,5.7879,5.9501,5.9578,6.0381,6.203,6.2959,6.3383,6.3344,6.255,6.2082,6.1991,6.1241,6.0888,6.0804,6.0888,6.0967,6.1027,6.1131,6.1248,6.1054,5.8612,5.7696,5.758,5.6683,5.6372,5.6372,5.6333,5.5786,5.5084,5.5045,5.5045,5.4893,5.4041,5.4349,5.4815,5.3964,5.3073,5.2604,5.3465,5.3698,5.3931,5.4783,5.5676,5.585,5.4155,5.3154,5.2068,5.0473,4.9448,4.8838,4.8838,4.8222,4.7725,4.7655,4.832,0.0,5.0032,5.0834,5.1322,5.1285,5.132,5.0603,4.8846,4.8626,4.7113,4.3596,4.1718,3.963,3.7071,3.4443,3.2643,3.1792,3.0133,2.8072,2.5571,0.0,0.0,0.0,0.0,0.0,0.0,0.0,0.0,0.0,0.0,0.0,0.0,0.0,0.0,0.0,0.0,0.0,0.0,0.0,0.0,0.0,4.0812,4.3334,4.4145,4.8719,5.2292,5.3079,5.4927,5.5978,5.5631,5.4984,5.4967,5.5956,5.7516,5.8612,5.9075,5.965,6.0186,6.0649,6.1267,6.2117,6.3204,6.4672,6.5097,6.4518,6.3683,6.2905,6.2267,6.1432,6.1065,6.109,6.1118,6.1177,6.1216,6.1252,6.1326,6.1246,5.994,5.9403,5.9325,5.8428,5.8117,5.804,5.7421,5.7072,5.6761,5.6136,5.5942,5.5903,5.5673,5.532,5.4935,5.4729,5.3583,5.2671,5.355,5.3801,5.4047,5.4867,5.5726,5.5894,5.4218,5.2722,5.1577,5.114,5.0333,4.9751,4.9746,5.0615,5.1091,5.0429,0.0,0.0,5.0914,5.0654,5.063,5.1242,5.132,5.0609,4.8868,4.869,4.6907,4.2777,4.0899,3.8763,3.6175,3.355,3.1753,3.0946,2.9844,2.9221,0.0,0.0,0.0,0.0,0.0,0.0,0.0,0.0,0.0,0.0,0.0,0.0,0.0,0.0,0.0,0.0,0.0,0.0,0.0,0.0,0.0,0.0,4.5012,4.8153,4.9343,5.2429,5.4989,5.6134,5.7626,5.8466,5.8228,5.7701,5.7639,5.8225,5.9611,6.0383,6.0383,6.0847,6.1118,6.1118,6.1964,6.282,6.3676,6.5378,6.5953,6.5494,6.4295,6.3444,6.2936,6.2046,6.1683,0.0,6.2142,6.2344,6.237,6.2036,6.1903,0.0,0.0,0.0,0.0,0.0,5.9322,5.9244,5.8389,5.8082,5.7965,5.711,5.7072,5.7146,5.6097,5.5398,5.486,5.4166,5.2726,5.1713,5.2954,5.3334,5.3667,5.4807,5.5786,5.5912,5.4221,5.3102,5.2213,5.1481,0.0,0.0,5.125,5.2031,5.2382,5.1474,5.0942,5.0833,0.0,5.0865,5.0735,5.1242,5.132,5.0728,4.9344,4.8903,0.0,0.0,0.0,3.9187,3.5826,3.3872,0.0,0.0,0.0,0.0,0.0,0.0,0.0,0.0,2.8835,2.9969,0.0,0.0,0.0,0.0,0.0,0.0,0.0,0.0,0.0,0.0,0.0,0.0,0.0,0.0,0.0,0.0,4.9204,5.2999,5.4813,5.5857,5.6996,5.8496,6.0074,6.0782,6.0058,6.0092,6.0184,6.0239,6.1056,6.1505,6.1389,0.0,0.0,0.0,0.0,6.2975,6.3831,6.5417,6.6185,6.6185,6.4488,6.3753,6.3792,6.2859,6.25,6.2676,6.3456,6.3847,6.3852,6.3036,6.2701,6.2624,6.1727,6.1455,6.1455,6.0565,6.0254,0.0,0.0,0.0,0.0,5.7981,5.8179,5.8257,5.6003,5.5109,5.4574,5.3073,5.141,5.0479,5.2308,5.2767,5.3178,5.4866,5.5845,5.5966,5.4296,5.3945,5.3436,5.1907,5.2841,5.3656,5.2942,5.2918,5.2647,5.1597,5.1419,0.0,5.1324,5.1203,5.1203,5.1281,0.0,0.0,5.0088,4.9307,4.8044,4.6246,4.3578,4.0189,3.6028,3.5093,3.4654,3.4549,3.388,3.3986,3.4892,3.4843,3.4874,3.4939,3.3761,3.4052,0.0,0.0,0.0,0.0,0.0,0.0,0.0,0.0,0.0,0.0,0.0,0.0,0.0,0.0,0.0,4.8275,5.1254,5.4078,5.6472,5.8178,5.9257,5.9596,6.1094,6.2051,6.1901,6.252,6.2917,6.2926,6.3748,6.3947,6.3212,6.3212,0.0,6.3212,6.3366,6.3869,6.472,6.5721,6.6185,6.6185,0.0,0.0,6.4682,6.3129,6.2833,6.3576,6.374,6.3867,6.3898,6.3047,6.2701,6.2624,6.1727,6.1843,6.2348,6.1455,6.1144,6.1031,6.021,5.9461,5.8865,5.8774,5.8369,5.7839,5.7335,5.5735,0.0,5.3718,5.239,5.1523,5.3262,5.3744,5.414,5.582,5.6367,5.621,5.5147,5.4401,5.3811,5.345,5.3681,5.3869,5.3689,5.4248,5.4176,5.2591,5.1743,5.1328,5.1281,5.0696,5.0502,5.1203,5.132,5.0967,5.0067,4.9833,4.8733,4.6333,4.3013,3.9847,3.6881,3.6583,3.6167,3.5474,3.5913,3.7173,3.929,3.9227,3.9793,4.095,3.7942,3.7138,0.0,0.0,0.0,0.0,0.0,0.0,0.0,0.0,0.0,0.0,0.0,4.2667,4.4794,0.0,4.9556,5.1331,5.373,5.6012,5.7714,5.9416,6.0499,6.0499,6.1616,6.239,6.239,6.3173,6.3715,6.3715,6.4527,6.4604,6.3753,6.4101,6.414,6.3715,6.4101,6.4566,6.4991,6.5799,6.6185,6.6185,6.4952,6.4566,6.4952,6.4097,6.3946,6.4446,6.4899,6.514,6.5118,6.3859,6.2857,6.2002,6.1553,6.221,6.3284,6.2857,6.2701,6.2592,6.1752,6.1181,6.0682,5.9902,5.9352,5.883,5.7975,5.6494,5.5056,5.4652,5.3617,5.2965,5.4297,5.4958,5.5496,5.6304,5.6848,5.692,5.6035,5.552,5.5205,5.5196,5.5194,5.5189,5.5211,5.5567,5.5105,5.2948,5.2228,5.1785,5.1359,5.093,5.0813,5.1242,5.132,5.1125,5.0696,5.0258,4.8925,4.6345,4.4504,4.2313,3.9701,3.9552,3.9348,3.8851,3.8833,3.9977,4.2383,4.1844,4.2403,4.39,4.2509,4.1835,0.0,0.0,0.0,0.0,0.0,0.0,0.0,3.8179,3.9417,4.2206,4.5068,4.7583,4.932,5.1335,5.3037,5.4078,5.6089,5.7869,5.8724,6.0306,6.1273,6.1118,6.2008,6.2665,6.2665,6.3598,6.4179,6.4179,6.4836,6.4914,6.4217,6.4836,6.4914,6.4217,6.503,6.5494,6.5494,6.6301,6.6727,6.6688,6.5687,6.5339,6.5455,6.4952,6.4827,6.5034,6.5635,6.5907,6.5785,6.4357,6.2818,6.1381,6.1428,6.2293,6.3521,6.3712,6.3867,6.3884,6.3055,6.2723,6.25,6.102,6.0467,6.0057,5.8655,5.7485,5.6551,5.5895,5.5078,5.4645,5.5537,5.6305,5.6835,5.6769,5.7307,5.757,5.6675,5.6509,5.6507,5.6507,5.6507,5.6507,5.6507,5.6507,5.5725,5.3461,5.311,5.2721,5.1708,5.1552,5.1476,5.132,5.132,5.132,5.132,5.0488,4.9114,4.705,4.6582,4.533,4.3026,4.2865,4.2785,4.27,4.2149,4.29,4.5016,4.4178,4.4437,4.5687,4.625,4.6,3.0987,3.3767,3.7944,4.05,4.2318,4.3672,0.0,4.4762,4.5765,4.9084,5.0674,5.2032,5.3768,5.431,5.5045,5.6626,5.7753,5.8763,5.9614,6.1195,6.1964,6.1195,6.2554,6.356,6.356,6.4991,6.5915,6.5915,6.5992,6.6031,6.5915,6.5992,6.6031,6.5915,6.6766,6.723,6.723,6.8076,6.8501,6.8501,6.6843,6.6456,6.7152,6.4875,6.4285,6.4961,6.4425,6.4186,6.4116,6.3227,6.227,6.1423,6.1453,6.1626,6.1861,6.2655,6.34,6.3974,6.3165,6.2894,6.273,6.1816,6.101,6.0351,6.0156,5.8945,5.7617,5.7538,5.6909,5.6474,5.7326,5.759,5.7657,5.7643,5.7746,5.7572,5.6691,5.6517,5.6507,5.6507,5.6507,5.6507,5.6507,5.6507,5.6154,5.5059,5.4903,5.4318,5.2682,5.2448,5.2175,5.1398,5.132,5.132,5.132,5.05,4.9874,4.9602,4.8124,4.6756,4.5618,4.5524,4.5395,4.5184,4.5796,4.6574,4.7509,4.7328,4.7313,4.7436,4.7436,4.6928,3.5159,3.7674,4.1158,4.4214,4.6647,4.8504,4.9362,5.0329,5.1563,5.3493,5.5354,5.6751,5.6983,5.7022,5.7404,5.8604,5.9106,5.9807,6.1157,6.1964,6.208,6.1195,6.1311,6.1858,6.2859,6.4483,6.5494,6.5494,6.5953,6.6185,6.6185,6.6185,6.6185,6.6185,6.7036,6.7516,6.7546,6.8433,6.8888,6.8883,6.7708,6.7334,6.7605,6.6054,6.5264,6.5153,6.4853,6.4149,6.3239,6.2885,6.2238,6.1504,6.2109,6.2313,6.2423,6.3249,6.3803,6.4146,6.4334,6.4395,6.4214,6.289,6.2223,6.1823,6.1315,6.065,6.0063,6.0059,5.9821,5.9661,5.997,6.0083,5.9921,5.944,5.9315,5.8952,5.7556,5.727,5.7106,5.6587,5.6507,5.6507,5.6507,5.6507,5.6388,5.5998,5.5526,5.4552,5.2838,5.2604,5.2253,5.1398,5.132,5.132,5.132,5.0969,5.0541,5.0034,4.9281,4.8443,4.7495,4.7309,4.7142,4.7016,4.7242,4.7775,4.8542,4.8415,4.865,4.9092,4.8992,4.8991,3.9182,4.1467,4.4214,4.766,5.0248,5.2256,5.3343,5.4581,5.5702,5.6553,5.8217,5.942,5.9034,5.8763,5.9038,6.0406,6.0807,6.1401,6.2649,6.3243,6.302,6.1664,6.0816,6.0696,6.1655,6.3274,6.4488,6.4952,6.576,6.6185,6.6185,6.6417,6.6572,6.6572,6.7617,6.8233,6.8341,6.9182,6.9632,6.969,6.8652,6.8172,6.8094,6.6768,6.5735,6.4914,6.471,6.392,6.2776,6.2531,6.2192,6.1926,6.2629,6.305,6.334,6.419,6.4504,6.4591,6.5307,6.5546,6.5233,6.3546,6.2985,6.2852,6.1953,6.1719,6.1719,6.1719,6.1719,6.1719,6.1719,6.1719,6.1482,6.0616,6.0412,5.9971,5.8462,5.7979,5.7578,5.6938,5.6663,5.6507,5.6507,5.6507,5.6507,5.6507,5.5957,5.4942,5.3188,5.2526,5.2097,5.1708,5.1437,5.1398,5.163,5.1437,5.1047,5.0385,5.0281,4.9932,4.9191,4.9007,4.8807,4.86,4.8499,4.8715,4.9248,4.9163,4.9423,5.0063,5.0199,5.0599,4.2238,4.5026,4.7776,5.1181,5.3386,5.5122,5.6781,5.7207,5.7477,5.8337,5.8569,5.8879,5.973,5.9188,5.9438,6.1999,6.3137,6.3726,6.3841,6.532,6.5421,6.2857,6.1847,6.1027,6.024,6.1565,6.3168,6.4875,6.576,6.6185,6.6185,6.6998,6.7462,6.7462,6.9048,6.9995,7.0137,7.1008,7.1443,7.1517,6.9835,6.9047,6.8969,6.6478,6.4854,6.4019,6.3224,6.285,6.2745,6.1907,6.2032,6.2778,6.2876,6.3434,6.4258,6.5229,6.5544,6.5547,6.5585,6.5581,6.5302,6.3574,6.3017,6.2852,6.1953,6.1719,6.1719,6.1719,6.1719,6.1719,6.1719,6.1719,6.1485,6.0627,6.0412,6.0155,5.9254,5.8367,5.7715,5.7674,5.7011,5.6507,5.6507,5.6507,5.6507,5.6507,5.6468,5.5842,5.4084,5.237,5.163,5.2487,5.1785,5.163,5.2487,5.1785,5.1281,5.1242,5.1215,5.108,5.0822,5.0688,5.0479,5.0135,5.0056,4.9993,4.9862,4.9862,4.9893,4.9931,5.0789,5.1161,4.4755,4.8086,5.1181,5.4,5.6476,5.8333,5.8913,5.9455,5.9764,5.9498,5.8526,5.7985,5.8879,5.8333,5.8785,6.1966,6.372,6.5075,6.6337,6.6513,6.6043,6.4569,6.2154,6.0477,6.0194,6.108,6.1915,6.2497,6.4398,6.5523,6.5523,6.6924,6.7704,6.7704,6.9338,7.0235,7.032,7.1254,7.1746,7.1804,7.0686,6.9848,6.9265,6.7793,6.6356,6.4994,6.4704,6.397,6.2956,6.3237,6.3512,6.3864,6.4453,6.4881,6.5228,6.6079,6.6388,6.6388,6.6385,6.6381,6.6222,6.5084,6.4728,6.457,6.3672,6.3438,6.3282,6.2735,6.2579,6.2422,6.1836,6.1719,6.1638,6.1318,6.127,6.1022,6.0098,5.9654,5.925,5.865,5.8336,5.7985,5.7401,5.7284,5.6933,5.5801,5.5645,5.5217,5.4046,5.3383,5.2916,5.2643,5.2877,5.2916,5.2604,5.1814,5.1059,5.0462,5.0306,5.0361,5.0756,5.1075,5.14,5.1796,5.1677,5.1589,5.1547,5.1547,5.1547,5.1585,5.1843,5.2298,4.7927,5.1241,5.4169,5.6429,5.8424,5.9885,5.9885,6.0306,6.0267,5.8797,5.7134,5.621,5.7078,5.6785,5.7687,6.1473,6.41,6.6166,6.7662,6.7718,6.7163,6.5997,6.3072,6.1042,6.0765,6.0862,6.107,6.1334,6.3742,6.5379,6.5693,6.7645,6.8737,6.8737,7.0099,7.0833,7.0898,7.15,7.1708,7.1443,7.0953,7.0258,6.9364,6.8508,6.734,6.5936,6.5664,6.4765,6.3514,6.4058,6.4486,6.4837,6.5381,6.5767,6.6074,6.6614,6.6802,6.6796,6.6796,6.6796,6.6679,6.5858,6.5585,6.5429,6.4571,6.4298,6.4181,6.3634,6.3243,6.2852,6.2304,6.1914,6.1716,6.1709,6.1699,6.149,6.088,6.0512,6.0144,5.9585,5.9194,5.8804,5.8258,5.7908,5.7245,5.5879,5.5645,5.5256,5.4046,5.389,5.3812,5.3578,5.3734,5.3656,5.311,5.2228,5.1339,5.0449,5.0497,5.0707,5.1029,5.165,5.2145,5.2561,5.2475,5.2411,5.2411,5.2411,5.2411,5.2411,5.2715,5.3169,5.1734,5.4526,5.6846,5.8423,5.9418,5.9962,5.9923,5.9885,5.9106,5.6472,5.4503,5.351,5.4475,5.4649,5.6128,6.0621,6.4262,6.6904,6.7918,6.8851,6.8792,6.7116,6.4615,6.2701,6.1921,6.1022,6.0803,6.1422,0.0,6.5701,6.6561,6.9024,7.043,7.043,7.1245,7.1733,7.1817,7.1819,7.1466,7.0781,7.0781,7.0312,6.9528,6.8708,6.7804,6.6812,6.607,6.5206,6.4376,6.4415,6.4922,6.5663,6.5663,6.6131,6.6796,6.6796,6.6796,6.6796,6.6796,6.6796,6.6679,6.5897,6.5663,6.5507,6.4688,6.4415,6.4415,6.4376,6.3751,6.3125,6.3008,6.2383,6.1758,6.1718,6.1658,6.1597,6.1597,6.0943,6.0365,6.0363,5.9661,5.9077,5.9077,5.8297,5.744,5.6663,5.6546,5.5881,5.4201,5.4007,5.4318,5.5137,5.4513,5.4007,5.3968,5.3105,5.2155,5.1238,5.1752,5.1987,5.1774,5.2462,5.2768,5.2613,5.2568,5.2525,5.2525,5.2525,5.2525,5.2563,5.3359,5.3738,5.5535,5.8117,6.0106,6.0452,6.0678,6.0654,6.0035,5.9382,5.8183,5.5625,5.2221,5.0348,5.2545,5.1923,5.3144,5.9474,6.3421,6.6476,6.8724,6.9249,6.9255,6.8865,6.6482,6.4568,6.3709,6.2849,6.2418,0.0,6.4376,6.5837,6.6697,6.9195,7.0639,7.0639,7.1418,7.1894,7.1952,7.1937,7.1832,7.168,7.1679,7.1561,7.1325,7.0458,6.9239,6.7749,6.7545,6.6641,6.5312,6.5937,6.6289,6.6484,6.6484,6.6601,6.6796,6.6796,6.6796,6.6796,6.6796,6.6796,6.6757,6.6562,6.6484,6.6445,6.6211,6.6172,6.6055,6.5429,6.5116,6.4648,6.3321,6.2852,6.2498,6.1863,6.1699,6.1651,6.1598,6.1434,6.1265,6.1285,6.0569,5.9973,5.9973,5.8726,5.7635,5.7401,5.6894,5.6115,5.502,5.545,5.5684,5.5253,5.5567,5.5567,5.4903,5.3945,5.2971,5.1987,5.1948,5.2145,5.2591,5.3239,5.385,5.4354,5.4312,5.4268,5.4268,5.4268,5.4268,5.4268,5.4503,5.4579,5.9213,6.118,6.2403,6.1977,6.1543,6.0816,5.9222,5.7591,5.5727,5.3126,4.9174,4.7026,4.9655,4.9381,5.0899,5.7519,6.183,6.5256,6.7922,6.8319,6.8476,6.8867,6.6601,6.5,6.4883,6.4062,6.3711,6.4101,6.5386,6.6473,6.7371,6.9871,7.1276,7.1276,7.1706,7.1941,7.1984,7.199,7.1992,7.1991,7.199,7.1988,7.1982,7.1115,7.0169,6.9225,0.0,6.7927,6.6717,6.7185,6.7146,6.6796,6.6796,6.6796,6.6796,6.6796,6.6796,6.6796,6.6796,6.6796,6.6796,6.6796,6.6796,6.6796,6.6796,6.6796,6.6718,6.6249,6.5858,6.5351,6.4414,6.3867,6.3437,6.296,6.2836,6.2673,6.2312,6.2187,6.2058,6.1684,6.1194,6.075,6.036,5.9505,5.857,5.783,5.7323,5.6738,5.5879,5.584,5.5723,5.5253,5.5645,5.5567,5.4708,5.4396,5.3825,5.2802,5.2904,5.3135,5.3427,5.4058,5.4635,5.505,5.4941,5.492,5.492,5.492,5.492,5.492,5.492,5.492,6.2676,6.385,6.4196,6.3167,6.213,6.0673,5.7946,5.5177,5.241,4.9687,4.5647,4.3372,4.6067,4.6633,4.8754,5.4995,5.9747,6.3588,6.6208,6.664,6.7031,6.793,6.5937,6.4844,6.5859,6.5351,6.5273,6.6055,6.6914,6.7695,6.832,7.0664,7.1992,7.1992,7.1992,7.1992,7.1992,7.1992,7.1992,7.199,7.1989,7.1984,7.1967,7.1224,7.0827,7.0659,0.0,0.0,6.8082,6.8082,6.7576,6.6796,6.6796,6.6796,6.6796,6.6796,6.6796,6.6796,6.6796,6.6874,6.6952,6.6835,6.6796,6.6796,6.6796,6.6796,6.6796,6.6796,6.6288,6.5741,6.5624,6.5038,6.4454,6.4337,6.425,6.4006,6.3303,6.3015,6.2643,6.1766,6.1586,6.1373,6.0594,6.036,5.9778,5.8258,5.7947,5.7635,5.6933,5.5996,5.5331,5.5214,5.529,5.5052,5.4269,5.48,5.4784,5.3958,5.4304,5.4474,5.4269,5.4928,5.5272,5.5272,5.5267,5.5223,5.5223,5.5223,5.5223,5.5223,5.5223,5.5223,6.5027,6.5673,6.5845,6.4246,6.2637,6.0526,5.7247,5.3419,4.9629,4.6355,4.1683,3.901,4.162,4.2759,4.5483,5.2252,5.7575,6.1757,6.4375,6.5351,6.6133,6.7031,6.6094,6.6015,6.7578,6.8203,6.8594,6.8711,6.9531,6.9805,6.9219,7.0976,7.1992,7.1992,7.1992,7.1992,7.1992,7.1992,7.1992,7.199,7.1985,7.2017,7.2005,7.184,7.1365,7.0698,0.0,0.0,6.8082,6.8082,6.7576,6.6796,6.6796,6.6796,6.6796,6.6796,6.6796,6.6796,6.6796,6.7264,6.7771,6.7031,6.6796,6.6796,6.6796,6.6796,6.6796,6.6796,6.6718,6.6445,6.578,6.5507,6.5194,6.4454,6.4297,6.4255,6.41,6.3454,6.2646,6.1786,6.1599,6.1568,6.1412,6.0789,6.0207,5.9895,5.9232,5.8726,5.857,5.7206,5.5998,5.5292,5.5784,5.6113,5.5891,5.5893,5.6052,5.6411,5.5773,5.5311,5.518,5.5798,5.6185,5.6185,5.6709,5.6967,5.6967,5.6967,5.6967,5.6967,5.6967,5.6967,6.6832,6.7528,6.7594,6.539,6.3179,6.0425,5.6051,5.1052,4.6483,4.3478,3.911,3.6662,3.9255,4.0447,4.3155,4.9683,5.4296,5.8125,6.1211,6.2383,6.3555,6.5351,6.5586,6.6289,6.8047,6.9336,6.9883,6.9492,7.0234,7.0508,7.0117,7.1289,7.1992,7.1992,7.1992,7.1992,7.1992,7.1992,7.1991,7.1985,7.1982,7.2013,7.1997,7.1991,7.1753,7.1363,7.1363,0.0,6.9448,6.9448,6.8942,6.8163,6.8163,6.8163,6.8163,6.8163,6.8163,6.8163,6.8163,6.8435,6.8708,6.828,6.7849,6.7381,6.6952,6.6796,6.6796,6.6796,6.6796,6.6718,6.6327,6.6209,6.6131,6.5703,6.5274,6.496,6.496,6.4234,6.3466,6.3038,6.2927,6.2893,6.2893,6.2569,6.197,6.1061,6.0539,5.9938,5.9027,5.8207,5.7375,5.6574,5.6819,5.697,5.6876,5.7168,5.7271,5.703,5.6494,5.5992,5.5403,5.6027,5.6414,5.6414,5.7051,5.7384,5.7384,5.7384,5.7384,5.7422,5.7884,5.8074,6.8514,6.9215,6.9016,6.6238,6.3458,5.9976,5.439,4.8494,4.3378,4.0566,3.6741,3.4556,3.6825,3.8041,4.0622,4.6561,5.0547,5.4101,5.7617,5.9101,6.082,6.3437,6.4844,6.6445,6.8515,7.0273,7.0976,7.0351,7.0742,0.0,7.0976,7.164,7.1992,7.1992,7.1992,7.1992,7.1992,7.1992,7.199,7.2019,7.2018,7.2008,7.1987,7.1987,7.1987,7.1987,7.1987,0.0,0.0,7.0698,7.0191,6.9412,6.9412,6.9412,6.9412,6.9412,6.9412,6.9412,6.9412,6.9528,6.9645,6.9451,6.8942,6.8239,6.7577,6.7343,6.7304,6.7148,6.707,6.7031,6.6835,6.6796,6.6796,6.6796,6.6327,6.5819,6.5624,6.5014,6.4402,6.4246,6.4133,6.4099,6.4099,6.407,6.3567,6.1975,6.1658,6.1063,5.9463,5.9261,5.9036,5.8487,5.8076,5.7787,5.767,5.814,5.8157,5.7478,5.7208,5.6709,5.5976,5.656,5.7016,5.7168,5.7696,5.8028,5.8188,5.8028,5.7952,5.7952,5.8808,5.9171,7.0234,7.0508,6.9765,6.6445,6.3046,5.8789,5.207,4.5898,4.0586,3.7187,3.3672,3.1562,3.2617,3.4101,3.6875,4.2148,4.6562,5.0547,5.3984,5.6601,5.9062,6.164,6.4101,6.6875,7.0156,7.2031,7.3047,7.2969,7.2305,0.0,7.1875,7.1953,7.1992,7.1992,7.1992,7.1992,7.1992,7.1991,7.1988,7.2019,7.2011,7.2001,7.1987,7.1987,7.1987,7.1987,0.0,0.0,0.0,7.0698,7.0191,6.9412,6.9412,6.9412,6.9412,6.9412,6.9412,6.9412,6.9412,6.9918,7.0463,6.9645,6.9334,6.9256,6.9178,6.9178,6.8981,6.82,6.7966,6.781,6.6992,6.6796,6.6796,6.6796,6.6757,6.6484,6.5741,6.5483,6.5145,6.4363,6.4133,6.4099,6.4099,6.4057,6.3686,6.2652,6.2377,6.194,6.0918,6.0793,6.0759,6.0699,5.9447,5.8559,5.8419,5.8355,5.8539,5.9044,5.8311,5.7813,5.7664,5.8313,5.8995,5.9756,5.9708,6.0045,6.0765,6.0045,5.9666,5.9704,6.0446,6.0731,6.8164,6.9531,6.9765,6.5781,6.1836,5.7226,5.0859,4.4336,3.8789,3.582,3.2891,3.1172,3.2031,3.3555,3.6055,4.0234,4.4062,4.7773,5.1211,5.3945,5.6719,5.9844,6.2461,6.5195,6.8125,7.0898,7.2734,7.3242,7.2969,0.0,7.2031,7.1992,7.1992,7.1992,7.1992,7.1992,7.1991,7.199,7.1986,7.2012,7.2008,7.2,7.1987,7.1987,7.1987,7.1987,0.0,0.0,0.0,7.148,7.1285,7.0972,7.0972,7.0972,7.0972,7.0972,7.0972,7.0972,7.0972,7.1206,7.1441,7.1089,7.0972,7.0777,6.9724,6.9412,6.9334,6.8981,6.8864,6.8786,6.8475,6.835,6.8222,6.7668,6.75,6.7292,6.6459,6.62,6.6059,6.5706,6.6007,6.6157,6.5654,6.5888,6.5677,6.4192,6.3855,6.3436,6.2513,6.2381,6.2188,6.1649,6.0668,5.9954,5.9842,5.9742,5.9555,5.9203,5.8857,5.8639,5.8606,5.9266,6.0015,6.0852,6.0695,6.0765,6.1106,6.0273,5.9893,5.9931,6.1097,6.1532,6.6055,6.8398,6.9297,6.5,6.0703,5.5859,4.957,4.3008,3.7461,3.4844,3.25,3.1172,3.2031,3.3164,3.5117,3.8555,4.1562,4.4687,4.8164,5.1289,5.4336,5.7305,6.0156,6.3086,6.6211,7.0078,7.2734,7.3633,0.0,0.0,7.2812,7.2539,7.2265,7.1992,7.1992,7.1992,7.199,7.1988,7.1982,7.2006,7.2003,7.1996,7.1987,7.1987,7.1987,7.1987,0.0,0.0,0.0,7.1983,7.1979,7.1972,7.1968,7.1963,7.1959,7.1959,7.1959,7.1959,7.1959,7.1959,7.1959,7.1959,7.1959,7.1723,7.0474,7.0138,7.0113,6.984,6.9606,6.9412,6.9412,6.9395,6.9137,6.8178,6.795,6.7678,6.6783,6.6555,6.6497,6.6497,6.7178,6.7515,6.6881,6.7402,6.7348,6.5754,6.5433,6.4922,6.3713,6.3578,6.3233,6.2343,6.1784,6.1358,6.1035,6.1192,6.0997,6.0255,6.021,6.021,6.021,6.066,6.1302,6.2108,6.1744,6.1624,6.1856,6.0997,6.0556,6.0598,6.1768,6.233,6.4687,6.7461,6.8398,6.4101,5.9805,5.4805,4.7891,4.1641,3.6562,3.3945,3.207,3.1172,3.2031,3.2226,3.3359,3.6758,3.8789,4.1133,4.457,4.8711,5.207,5.3828,5.7109,6.0937,6.5195,7.0273,7.3633,7.4531,0.0,0.0,7.457,7.375,7.289,7.2031,7.1992,7.1992,7.199,7.1984,7.2016,7.2006,7.1994,7.1987,7.1987,7.1987,7.1987,0.0,0.0,0.0,0.0,7.1932,7.1913,7.1891,7.1906,7.1843,7.178,7.178,7.178,7.178,7.178,7.178,7.178,7.178,7.178,7.178,7.178,7.1852,7.1792,7.0932,7.0074,6.9412,6.9412,6.9348,6.9072,6.813,6.7837,6.7531,6.6524,6.6318,6.6286,6.6286,6.7023,6.7551,6.7421,6.8054,6.8224,6.7148,6.6925,6.621,6.4419,6.4206,6.3854,6.2968,6.2892,6.2574,6.1843,6.2518,6.294,6.2853,6.2846,6.2846,6.2846,6.2818,6.3116,6.3859,6.2941,6.285,6.3553,6.2633,6.2158,6.2088,6.2565,6.3278,5.7927,6.0858,6.2343,5.8671,5.4492,5.0156,4.5547,4.0312,3.6016,3.457,3.3398,3.2695,3.2969,3.3516,3.4453,3.6133,3.8359,4.1094,4.4531,4.8672,5.25,5.543,6.039,6.4805,6.7969,7.1328,7.3906,7.539,0.0,0.0,7.4648,7.4336,7.3789,7.293,7.2305,7.1991,7.1984,7.1982,7.2012,7.1994,7.199,7.1987,7.1987,7.1987,0.0,0.0,0.0,0.0,0.0,7.1916,7.1842,7.176,7.171,7.1654,7.1601,7.1601,7.1601,7.1601,7.1601,7.1601,7.1601,7.1601,7.1601,7.1601,7.1601,7.1701,7.1791,7.1516,7.1243,7.1048,7.1048,7.1009,7.0713,6.9749,6.9473,6.9153,6.8157,6.7929,6.7958,6.7958,6.861,6.8938,6.826,6.8761,6.8931,6.7917,6.7695,6.7247,6.6078,6.591,6.5375,6.3931,6.4267,6.4053,6.2689,6.2789,6.3188,6.374,6.3778,6.4305,6.5444,6.5375,6.5701,6.6546,6.5626,6.5263,6.5496,6.4544,6.404,6.3995,6.3688,6.391,5.1548,5.4836,5.6715,5.3631,5.039,4.6992,4.3555,3.9258,3.5742,3.4883,3.4023,3.3516,3.3828,3.4062,3.4609,3.5781,3.7656,4.0234,4.3984,4.8476,5.3164,5.7969,6.3008,6.6992,6.9258,7.2109,7.4492,0.0,0.0,0.0,0.0,7.5273,7.4844,7.4296,7.3124,7.2341,7.198,7.2013,7.1999,7.1969,7.1963,7.1955,7.1909,7.1909,0.0,0.0,0.0,0.0,0.0,7.1858,7.1764,7.1621,7.1544,7.1495,7.1415,7.1415,7.1415,7.1415,7.1415,7.1415,7.1415,7.1415,7.1415,7.1415,7.1415,7.1544,7.1706,7.1706,7.1706,7.1706,7.1706,7.1651,7.1334,7.039,7.0099,6.9799,6.8783,6.86,6.86,6.86,6.926,6.9636,6.8995,6.9527,6.9802,6.9144,6.9,6.8556,6.7293,6.7133,6.6522,6.4848,6.4848,6.4649,6.3923,6.384,6.4076,6.4619,6.4657,6.5261,6.6628,6.6628,6.697,6.7777,6.7224,6.6915,6.6882,6.5935,6.5411,6.5199,6.4535,6.4569,0.0,4.9349,5.1509,4.9176,4.7265,4.5078,4.1836,3.8476,0.0,3.4961,3.4141,3.3828,3.4648,3.4141,3.4141,3.5898,3.6953,3.9101,4.3476,4.8711,5.4648,6.1367,6.5117,6.7812,6.9492,7.2734,7.539,0.0,0.0,0.0,0.0,7.6445,7.5976,7.5895,7.4332,7.304,7.2175,7.2194,7.2125,7.1965,7.1979,7.1913,7.1767,7.1767,0.0,0.0,0.0,0.0,0.0,7.1693,7.1618,7.1456,7.1392,7.1327,7.1269,7.1269,7.1269,7.1269,7.1269,7.1269,7.1269,7.1269,7.1269,7.1269,7.1269,7.1388,7.1503,7.1503,7.1503,7.1503,7.1503,7.1434,7.114,7.0224,6.9921,6.9642,6.877,6.8584,6.8584,6.8584,6.9237,6.9756,6.961,7.0249,7.0767,7.0601,7.0577,6.9972,6.8218,6.7981,6.737,6.5681,6.4886,6.4733,6.5413,6.5375,6.5375,6.549,6.549,6.5872,6.6743,6.6789,6.7094,6.7785,6.7861,6.788,6.7846,6.6995,6.6329,6.5951,6.5257,6.5263,3.8924,0.0,4.6565,4.5988,4.405,4.195,0.0,3.8004,3.5935,3.5739,3.5544,3.5466,3.5661,3.5544,3.5973,3.7691,3.9253,4.1948,4.6987,5.4373,6.1132,6.6094,6.8515,7.0508,7.2226,7.4336,7.6055,0.0,0.0,7.7187,0.0,7.6991,7.6599,7.5934,7.5451,7.4816,7.4,7.3935,7.3501,7.2732,7.2678,7.2266,7.1579,7.1579,0.0,0.0,0.0,0.0,7.1575,7.1482,7.1387,7.1244,7.1203,7.1118,7.0998,7.0998,7.0998,7.0998,7.0998,7.0998,7.0998,7.0998,7.0998,7.0998,7.0998,7.1145,7.1337,7.1337,7.1337,7.1337,7.1337,7.1285,7.117,7.0896,7.0779,7.0658,7.038,7.0321,7.0321,7.0321,7.0475,7.0609,7.0493,7.0628,7.0708,7.0593,7.0522,7.0053,6.9051,6.889,6.8241,6.6552,6.6789,6.6873,6.6445,6.5222,6.5039,6.633,6.6407,6.6751,6.7591,6.7637,6.7698,6.7873,6.8523,6.9023,6.9313,6.8495,6.788,6.7467,6.6682,6.6388,3.7199,3.968,4.1887,4.1912,4.0886,3.9654,3.8795,3.6923,3.5441,3.5829,3.5597,3.5597,3.6373,3.6177,3.6722,3.9255,4.1085,4.4997,5.3025,6.0185,6.6091,7.0078,7.2031,7.3594,0.0,7.5937,0.0,0.0,0.0,7.7031,0.0,7.699,7.6987,7.6473,7.6408,7.5766,7.4564,7.447,7.3888,7.2892,7.2854,7.2302,7.1392,7.1392,0.0,0.0,0.0,0.0,7.1426,7.1763,7.1827,7.1775,7.2141,7.2186,7.2091,7.2091,7.2091,7.2091,7.2091,7.1822,7.1437,7.1014,7.0898,7.0898,7.0898,7.1274,7.1626,7.124,7.1124,7.1124,7.1124,7.1408,7.1641,7.1602,7.1864,7.2132,7.2098,7.2091,7.2091,7.2091,7.2091,7.2063,7.1953,7.1909,7.1873,7.1749,7.1685,7.1339,7.0465,7.0351,6.9693,6.805,6.7859,6.7714,6.7286,6.6063,6.5872,6.7171,6.7247,6.763,6.8478,6.8438,6.8564,6.8862,6.9277,6.9491,6.9494,6.8795,6.8222,6.7789,6.7512,6.7366,3.7692,3.8236,3.8391,3.886,3.8898,3.8606,3.8015,3.6697,3.5727,3.627,3.5844,3.5805,3.7238,3.7115,3.7889,4.131,4.4226,4.9605,5.9833,6.5443,6.9795,7.328,7.5,7.625,7.7109,0.0,0.0,0.0,0.0,7.6873,0.0,7.679,7.7134,7.7076,7.7,7.6308,7.4852,7.4719,7.4098,7.2949,7.2856,7.2285,7.1241,7.1241,7.1241,0.0,0.0,0.0,7.1313,7.2099,7.243,7.2457,7.3284,7.357,7.3507,7.3507,7.343,7.3276,7.3161,7.2706,7.2098,7.1321,7.1206,7.1283,7.1283,7.1822,7.2245,7.1514,7.1283,7.1283,7.1283,7.1822,7.2399,7.2399,7.2976,7.3507,7.3507,7.3507,7.3507,7.3507,7.3507,7.3447,7.3329,7.3268,7.3246,7.3128,7.3095,7.2795,7.2002,7.1917,7.1268,6.954,6.886,6.8363,6.8134,6.7576,6.7522,6.8209,6.8157,6.8424,6.9118,6.9019,6.9187,6.9711,6.9702,6.9521,6.9224,6.8797,6.8368,6.7967,6.8131,6.8199,3.7659,3.8115,3.8673,4.1039,4.1062,4.0663,4.1282,4.0653,3.9756,3.9138,3.8906,3.8906,3.9177,4.0301,4.2358,4.574,5.2692,5.9523,6.4953,6.8294,7.1523,7.5068,7.5734,7.6203,7.7023,0.0,0.0,0.0,0.0,0.0,0.0,7.7027,7.7082,7.7022,7.6952,7.6745,7.6365,7.6337,7.5386,7.3552,7.3472,7.2572,7.0965,7.0965,7.0965,0.0,0.0,7.0965,7.1042,7.1876,7.2254,7.2318,7.3189,7.3521,7.3507,7.3507,7.3014,7.2283,7.1552,7.1706,7.2175,7.2059,7.2514,7.3084,7.3084,7.3199,7.3276,7.3122,7.3084,7.3084,7.3084,7.3199,7.3315,7.3315,7.3392,7.3507,7.3507,7.3507,7.3507,7.3507,7.3507,7.3447,7.3329,7.3269,7.3185,7.312,7.3046,7.2957,7.2834,7.2796,7.2138,7.0411,7.0763,7.0542,6.912,6.9475,6.9735,6.9772,6.9268,6.8979,6.8943,6.8729,6.8537,6.8476,6.8895,6.9363,6.9852,6.9966,6.9871,6.9619,6.9186,6.9011,3.7061,3.7739,3.8737,4.1409,4.215,4.2554,4.3832,4.3516,4.2773,4.2388,4.1538,4.1347,4.274,4.402,4.6884,5.3081,5.9004,6.4178,6.805,7.0475,7.2789,7.5382,0.0,7.6521,0.0,0.0,0.0,0.0,0.0,0.0,0.0,0.0,7.69,7.6852,7.6762,7.6644,7.6485,7.6455,7.5481,7.3635,7.3613,7.2661,7.0898,7.0898,7.0898,7.0898,0.0,7.1168,7.1668,7.2552,7.3168,7.363,7.4514,7.4853,7.4776,7.4315,7.3892,7.336,7.2052,7.2168,7.2822,7.236,7.2783,7.3507,7.3507,7.3815,7.4161,7.4161,7.3853,7.3507,7.3507,7.3815,7.4161,7.4161,7.4507,7.4853,7.4853,7.4853,7.4853,7.4853,7.4853,7.4786,7.462,7.4566,7.4502,7.4401,7.4389,7.4363,7.4363,7.4363,7.3713,7.1985,7.2176,7.1718,6.9999,7.0065,7.0164,7.0038,6.9722,6.9431,6.9228,6.9421,6.9422,6.9197,6.9726,7.0113,7.0276,7.0159,7.0004,6.9783,6.9839,6.9844,3.6559,3.716,3.8257,4.1258,4.2821,4.4098,4.5997,4.638,4.6338,4.6106,4.5181,4.4991,4.7006,4.8705,5.2225,5.9575,6.3558,6.6825,7.0066,7.2042,7.3742,7.533,7.6274,7.678,0.0,0.0,0.0,0.0,0.0,0.0,0.0,0.0,7.6712,7.667,7.6575,7.6449,7.6279,7.6199,7.5317,7.3568,7.3593,7.2646,7.0898,7.0898,7.0898,7.0898,7.1129,7.1591,7.229,7.336,7.4123,7.4776,7.5668,7.5861,7.5592,7.4738,7.4284,7.3899,7.2399,7.2591,7.3392,7.2706,7.3206,7.4046,7.3853,7.4353,7.4969,7.4776,7.4392,7.4084,7.4084,7.4546,7.5007,7.5007,7.5515,7.6015,7.6015,7.6015,7.6015,7.6015,7.6015,7.5924,7.5724,7.5692,7.5636,7.5535,7.5509,7.5509,7.5509,7.5492,7.4893,7.3377,7.316,7.2506,7.0903,7.0571,7.0413,7.0315,7.0059,6.9922,6.9884,7.0274,7.0362,7.0101,7.0696,7.0909,7.0696,7.0541,7.036,7.0164,7.0489,7.0677,3.6559,3.6311,3.679,4.0952,4.3243,4.5177,4.7657,5.002,5.1413,5.0593,5.0983,5.1529,5.1722,5.5049,5.8995,6.2825,6.5654,6.8365,7.1033,7.291,7.4367,7.5383,7.6282,0.0,0.0,0.0,0.0,0.0,0.0,0.0,0.0,0.0,0.0,7.6516,7.6405,7.6279,7.6212,7.6138,7.5215,7.3521,7.3521,7.2591,7.0898,7.0898,7.0898,7.0937,7.1752,7.2136,7.2329,7.3937,7.4661,7.4776,7.5668,7.5515,7.47,7.3892,7.3091,7.2252,7.1321,7.2091,7.3507,7.343,7.4507,7.5668,7.4861,7.5207,7.5745,7.493,7.5245,7.5822,7.5822,7.5861,7.5899,7.5899,7.5938,7.6015,7.6015,7.6015,7.6015,7.6015,7.6015,7.5924,7.5724,7.5692,7.5636,7.5535,7.5509,7.5509,7.5509,7.5392,7.4911,7.3943,7.3735,7.3182,7.1989,7.1643,7.1411,7.1208,7.0601,7.0511,7.1058,7.0882,7.0684,7.0449,7.1002,7.1253,7.1225,7.164,7.1857,7.1805,7.1542,7.1422,3.6103,3.6247,3.7201,4.0455,4.3327,4.6306,4.9943,5.3579,5.6364,5.7091,5.8372,5.8879,5.7293,5.9614,6.2361,6.4217,6.667,6.9249,7.1812,7.2768,7.3684,7.5081,7.5546,0.0,0.0,0.0,0.0,0.0,0.0,0.0,0.0,0.0,0.0,7.6256,7.6205,7.6133,7.6062,7.6034,7.5428,7.4238,7.3738,7.2584,7.0898,7.0898,7.1206,7.1745,7.2059,7.2783,7.3783,7.443,7.5007,7.5553,7.5861,7.5476,7.4584,7.3815,7.2937,7.2098,7.1206,7.2052,7.3507,7.3507,7.463,7.5938,7.563,7.5745,7.5938,7.5592,7.5745,7.6015,7.6015,7.6015,7.6015,7.6015,7.6015,7.6015,7.6015,7.6015,7.6015,7.6015,7.6015,7.5924,7.5724,7.5692,7.5636,7.5535,7.5509,7.5662,7.6197,7.6082,7.5761,7.5195,7.3903,7.2837,7.2292,7.1522,7.1008,7.0819,7.0722,7.0721,7.0884,7.12,7.1263,7.1135,7.1736,7.2041,7.2041,7.2028,7.2243,7.2753,7.2413,7.2493,3.6543,3.6651,3.7641,4.0803,4.3908,4.7544,5.2647,5.6902,6.0267,6.1969,6.371,6.4101,6.1587,6.2941,6.4682,6.5262,6.7307,6.9584,7.1872,7.2413,7.3148,7.4535,7.496,0.0,0.0,0.0,0.0,0.0,0.0,0.0,0.0,0.0,0.0,0.0,7.6069,7.6034,7.6015,7.6015,7.5553,7.47,7.4123,7.3122,7.1706,7.1706,7.2052,7.2629,7.286,7.363,7.47,7.5007,7.5476,7.6015,7.6015,7.5322,7.4238,7.3699,7.2783,7.1713,7.1091,7.2052,7.3507,7.3507,7.463,7.5938,7.5668,7.5784,7.5938,7.5668,7.5784,7.6015,7.6015,7.6015,7.6015,7.6015,7.6015,7.6015,7.6015,7.6015,7.6015,7.6015,7.5993,7.5894,7.5716,7.5668,7.5641,7.5535,7.5445,7.5639,7.6175,7.6008,7.5797,7.5598,7.42,7.3217,7.3043,7.2084,7.1381,7.1216,7.1336,7.1265,7.0914,7.1323,7.1669,7.1829,7.2502,7.2899,7.2899,7.2855,7.3137,7.3669,7.3073,7.3241,3.8193,3.7593,3.7989,4.227,4.5258,4.8933,5.5776,5.9992,6.2931,6.4759,6.6417,6.6766,6.4217,6.5107,6.6224,6.6224,6.7694,6.9396,7.1098,7.2065,7.2955,7.3806,0.0,0.0,0.0,0.0,0.0,0.0,0.0,0.0,0.0,0.0,0.0,0.0,7.602,7.6015,7.6015,7.6015,7.5553,7.47,7.47,7.4276,7.3507,7.3507,7.3507,7.3546,7.4353,7.47,7.4776,7.563,7.6015,7.6015,7.5976,7.4976,7.3507,7.3507,7.2392,7.0898,7.0898,7.2052,7.3507,7.3507,7.463,7.5822,7.4976,7.5322,7.5822,7.4969,7.5322,7.6015,7.6015,7.6015,7.6015,7.6015,7.6015,7.6015,7.6015,7.6015,7.6015,7.6015,7.5948,7.5864,7.5708,7.5658,7.5566,7.5527,7.5383,7.5283,7.5209,7.4925,7.4755,7.4898,7.4729,7.4556,7.4384,7.3471,7.2839,7.2709,7.2567,7.2151,7.1344,7.1307,7.1674,7.2496,7.3303,7.3722,7.3707,7.4365,7.4693,7.4677,7.3551,7.3468,3.8132,3.8868,4.0646,4.491,4.8821,5.3072,5.8676,6.2627,6.6572,7.1916,7.2491,7.1214,6.8628,6.855,6.87,6.8119,6.9435,7.1175,7.2877,7.3342,7.3806,7.4651,0.0,0.0,0.0,0.0,0.0,0.0,0.0,0.0,0.0,0.0,0.0,0.0,7.6029,7.6015,7.6015,7.6015,7.5861,7.563,7.563,7.4861,7.3507,7.3507,7.3815,7.4353,7.4584,7.5053,7.563,7.5899,7.6015,7.5938,7.5322,7.443,7.343,7.2822,7.2245,7.1828,7.1828,7.2937,7.4353,7.4353,7.5091,7.5938,7.5707,7.5784,7.5938,7.5707,7.5784,7.6015,7.6015,7.6015,7.6015,7.6015,7.6015,7.6015,7.6015,7.6015,7.6,7.594,7.591,7.5848,7.5666,7.5616,7.5566,7.5527,7.5367,7.5226,7.5258,7.5365,7.5369,7.5244,7.4496,7.3967,7.3924,7.3131,7.261,7.2553,7.251,7.2386,7.2165,7.2151,7.2532,7.334,7.356,7.3964,7.4551,7.4643,7.4909,7.5317,7.4893,7.5023,3.9377,4.0919,4.3465,4.8392,5.2612,5.7215,6.3671,6.6998,7.0208,7.5359,7.5314,7.3574,7.0987,7.0523,7.0131,6.9004,6.9938,7.1258,7.2684,7.2877,7.3187,7.3993,0.0,0.0,0.0,0.0,0.0,0.0,0.0,0.0,0.0,0.0,0.0,0.0,7.6015,7.6015,7.6015,7.6015,7.6015,7.6015,7.6015,7.5476,7.4469,7.4469,7.4745,7.5207,7.5207,7.5515,7.6015,7.6015,7.6015,7.5899,7.5053,7.4199,7.3392,7.2514,7.2213,7.2213,7.2213,7.3283,7.47,7.47,7.5284,7.6015,7.6015,7.6015,7.6015,7.6015,7.6015,7.6015,7.6015,7.6015,7.6015,7.6015,7.6015,7.6015,7.6015,7.5985,7.5948,7.5895,7.5809,7.5696,7.5514,7.5427,7.5347,7.5246,7.5243,7.5329,7.5543,7.5859,7.5875,7.5326,7.4639,7.4037,7.3722,7.2973,7.2642,7.2973,7.2973,7.312,7.345,7.2863,7.2716,7.3193,7.3523,7.4111,7.4903,7.5083,7.5546,7.6188,7.5637,7.5765,4.124,4.3385,4.6259,5.2248,5.6592,6.1509,6.9595,7.2026,7.3303,7.5784,7.5585,7.4303,7.2065,7.1606,7.1021,6.9507,6.986,7.0639,7.1446,7.1523,7.1833,0.0,0.0,0.0,0.0,0.0,0.0,0.0,0.0,0.0,0.0,0.0,0.0,7.6015,7.6015,7.6015,7.6015,7.6015,7.6015,0.0,7.6015,7.6015,7.6015,7.6015,7.6015,7.6015,7.6015,7.6015,7.6015,7.6015,7.6015,7.5899,7.4969,7.4199,7.3507,7.2552,7.229,7.2444,7.2444,7.3476,7.4815,7.4815,7.5361,7.6015,7.6015,7.6015,7.6015,7.6015,7.6015,7.6015,7.6015,7.6015,7.6015,7.6015,7.6015,7.6015,7.6084,7.6056,7.6041,7.6102,7.5901,7.5647,7.5492,7.5304,7.5107,7.4926,7.5156,7.547,7.5874,7.6222,7.6095,7.5176,7.4956,7.461,7.3854,7.3156,7.3046,7.3744,7.3817,7.4147,7.4867,7.3523,7.2753,7.2826,7.356,7.4294,7.5124,7.5742,7.6397,7.7024,7.6012,7.5871,4.0977,4.46,4.8763,5.4147,6.0553,6.6766,7.1291,7.2452,7.3148,7.5005,7.4728,7.4187,7.4264,7.3767,7.3226,7.2877,7.2955,7.3148,7.3303,7.3342,7.3419,0.0,0.0,0.0,0.0,0.0,0.0,0.0,0.0,0.0,0.0,0.0,0.0,7.6015,7.6015,7.6015,7.6015,7.6015,7.6015,0.0,7.6015,7.6015,7.6015,7.6015,7.6015,7.6015,7.6015,7.6015,7.6015,7.6015,7.6015,7.5861,7.4353,7.4046,7.4238,7.2745,7.3014,7.4168,7.4168,7.4861,7.5707,7.5707,7.5861,7.6015,7.6015,7.6015,7.6015,7.6015,7.6015,7.6015,7.6015,7.6015,7.6015,7.6015,7.6015,7.6154,7.674,7.6863,7.7008,7.7522,7.7438,7.7208,7.6858,7.6619,7.6324,7.5892,7.5706,7.5567,7.5477,7.5336,7.5176,7.4963,7.4933,7.483,7.4647,7.4463,7.4463,7.461,7.4647,7.472,7.4903,7.4573,7.4683,7.5322,7.5506,7.5983,7.6775,7.6804,7.6846,7.685,7.653,7.635,4.1215,4.5851,5.1297,5.895,6.4526,6.8816,7.1407,7.1988,7.2336,7.3645,7.3883,7.3883,7.3916,7.3574,7.3148,7.2723,7.2645,7.2645,7.2645,7.2645,7.2645,0.0,0.0,0.0,0.0,0.0,0.0,0.0,0.0,0.0,0.0,7.6015,7.6015,7.6015,7.6015,7.6015,7.6015,7.6015,7.6015,7.6015,7.6015,7.6015,7.6015,7.6015,7.6015,7.6015,7.6015,7.6015,7.6015,7.6015,7.6015,7.5861,7.4584,7.4315,7.4584,7.3707,7.3937,7.4776,7.5168,7.563,7.6015,7.6015,7.6015,7.6015,7.6015,7.6015,7.6015,7.6015,7.6015,7.6007,7.5963,7.5955,7.5948,7.5872,7.5925,7.6171,7.694,7.6982,7.7118,7.782,7.7703,7.7345,7.6926,7.6585,7.6393,7.6455,7.6249,7.6212,7.639,7.6191,7.5894,7.5542,7.5469,7.5307,7.494,7.4903,7.505,7.5469,7.5469,7.5637,7.6041,7.6041,7.5894,7.5542,7.5542,7.5931,7.6702,7.6507,7.6516,7.6785,7.6578,7.6412,4.1477,4.7389,5.4236,6.3564,6.7332,6.9192,7.0711,7.1181,7.1485,7.222,7.2955,7.3264,7.2723,7.2491,7.2142,7.1407,7.1297,7.1291,7.128,7.128,7.1275,0.0,0.0,0.0,0.0,0.0,0.0,0.0,0.0,0.0,7.6015,7.6015,7.6015,7.6015,7.6015,7.6015,7.6015,7.6015,7.6015,7.6015,7.6015,7.6015,7.6015,7.6015,7.6015,7.6015,7.6015,7.6015,7.6015,7.6015,7.6015,7.5899,7.5053,7.4776,7.4938,7.4938,7.5007,7.5245,7.5976,7.6207,7.6207,7.6053,7.6015,7.6015,7.6015,7.6015,7.6015,7.6015,7.5954,7.5917,7.5833,7.5825,7.5785,7.5811,7.5874,7.6199,7.7069,7.7177,7.7291,7.7999,7.7678,7.714,7.678,7.6332,7.6236,7.6813,7.6809,7.6914,7.748,7.7402,7.7032,7.6387,7.6313,7.6041,7.538,7.5307,7.5601,7.6276,7.6313,7.6592,7.7289,7.7289,7.6665,7.5344,7.5307,7.5622,7.6268,7.5959,7.6149,7.6737,7.6426,7.6292,4.1137,4.9852,5.855,6.3752,6.6885,6.8955,6.9932,7.0755,7.133,7.1452,7.1562,7.1833,7.2491,7.1988,7.1452,7.1336,7.1297,7.1275,7.1224,7.1219,7.1195,0.0,0.0,0.0,0.0,0.0,0.0,0.0,0.0,0.0,7.6015,7.6015,7.6015,7.6015,7.6015,7.6015,7.6015,7.6015,7.6015,7.6015,7.6015,7.6015,7.6015,7.6015,7.6015,7.6015,7.6015,7.6015,7.6015,7.6015,7.6015,7.5899,7.5053,7.5168,7.5822,7.5822,7.6284,7.6984,7.7099,7.7138,7.6984,7.6245,7.6015,7.6015,7.6015,7.6015,7.6015,7.6015,7.5879,7.5708,7.5581,7.5476,7.5517,7.6103,7.618,7.6494,7.7708,7.8337,7.8827,7.9332,7.8652,7.7889,7.7681,7.7319,7.7139,7.7234,7.7218,7.7225,7.732,7.7341,7.7252,7.7142,7.7142,7.7105,7.6995,7.6995,7.7032,7.7142,7.7142,7.7179,7.7289,7.7289,7.7215,7.6995,7.6995,7.6971,7.6993,7.6751,7.6648,7.663,7.6412,7.6292,4.3859,5.1436,5.8226,6.4056,6.6383,6.7729,6.9529,7.0258,7.0706,7.117,7.1269,7.1407,7.1794,7.1562,7.1297,7.1297,7.1269,7.1236,7.1213,7.1172,7.1136,0.0,0.0,0.0,0.0,0.0,0.0,0.0,0.0,7.6015,7.6015,7.6015,7.6015,7.6015,7.6015,7.6015,7.6015,7.6015,7.6015,7.6015,7.6015,7.6015,7.6015,7.6015,7.6015,7.6015,7.6015,7.6015,7.6053,7.6515,7.6746,7.6746,7.6784,7.7053,7.7438,7.7938,7.8054,7.7984,7.7984,7.7676,7.7176,7.6284,7.6015,7.6015,7.6015,7.6015,7.6007,7.5955,7.5786,7.5523,7.5232,7.5019,7.4983,7.5529,7.6009,7.6646,7.7673,7.823,7.8641,7.8926,7.8773,7.8543,7.8396,7.856,7.8699,7.8699,7.8699,7.8699,7.8699,7.8699,7.8699,7.8699,7.8699,7.8516,7.806,7.8038,7.7803,7.7326,7.7289,7.7289,7.7289,7.7289,7.7289,7.7289,7.7233,7.7171,7.7108,7.6822,7.6643,7.6597,7.6395,7.6292,4.4928,5.0828,5.583,6.2153,6.4407,6.5681,6.8064,6.8953,6.9606,7.0666,7.0921,7.1026,7.1231,7.1275,7.1269,7.1253,7.1213,7.1178,7.116,7.1305,7.1415,0.0,0.0,0.0,0.0,0.0,0.0,0.0,7.5861,7.6015,7.6015,7.6015,7.6015,7.6015,7.6015,7.6015,7.6015,7.6015,7.6015,7.6015,7.6015,7.6015,7.6015,7.6015,7.6015,7.6015,7.6015,7.613,7.6361,7.7022,7.7407,7.7676,7.8253,7.8484,7.86,7.9477,7.9231,7.8454,7.8454,7.7924,7.704,7.6194,7.6025,7.6202,7.6202,7.631,7.6478,7.6391,7.614,7.5863,7.5479,7.514,7.5043,7.5555,7.6156,7.6868,7.7742,7.8228,7.8504,7.8515,7.8883,7.9169,7.9063,7.9491,7.9816,7.9816,7.9816,7.9816,7.9816,7.9816,7.9816,7.9816,7.9816,7.9559,7.8956,7.8699,7.8332,7.7656,7.7436,7.7289,7.7289,7.7289,7.7289,7.7289,7.7139,7.7029,7.7029,7.6725,7.6581,7.6495,7.6378,7.6292,4.1919,4.6724,5.1676,5.6297,5.993,6.2808,6.4651,6.6294,6.7932,6.9689,7.0008,7.0216,7.1047,7.1213,7.119,7.1124,7.1106,7.1081,7.1024,7.1705,7.2218,0.0,0.0,0.0,0.0,0.0,0.0,0.0,7.5515,7.6015,7.6015,7.6015,7.6015,7.6015,7.6015,7.6015,7.6015,7.6015,7.6015,7.6015,7.6015,7.6015,7.6015,7.6015,7.6015,7.6015,7.6015,7.6476,7.7253,7.7292,7.7753,7.8446,7.8484,7.8484,7.86,7.9477,7.92,7.8407,7.8407,7.7758,7.6773,7.5884,7.6093,7.6673,7.6673,7.72,7.7775,7.7636,7.7424,7.7105,7.6704,7.6366,7.6229,7.676,7.6915,7.727,7.8308,7.8932,7.92,7.8995,7.9403,7.9758,7.9758,7.9779,7.9816,7.9816,7.9816,7.9816,7.9816,7.9816,7.9816,7.9816,7.9816,7.9779,7.9743,7.9029,7.8589,7.8552,7.7766,7.7289,7.7289,7.7289,7.7289,7.7289,7.6977,7.6817,7.6817,7.666,7.6478,7.6328,7.6292,7.6292,3.8374,4.2221,4.6478,5.0856,5.4556,5.8044,6.1455,6.4004,6.6429,6.9301,6.9904,7.0141,7.0927,7.1112,7.113,7.1106,7.1062,7.1223,7.1775,7.2082,7.2426,0.0,0.0,0.0,0.0,0.0,0.0,0.0,0.0,0.0,7.6015,7.6015,7.6015,7.6015,7.6015,7.6015,7.6015,7.6015,7.6015,7.6015,7.6015,7.6015,7.6015,7.6015,7.6322,7.6823,7.6823,7.7015,7.7369,7.8477,7.9054,7.94,7.9939,8.0169,8.0131,7.9892,7.9538,7.9028,7.7713,7.6994,7.6461,7.5275,7.5425,7.6058,7.5949,7.6486,7.7089,7.6971,7.6787,7.6512,7.6156,7.6266,7.6718,7.7784,7.841,7.8883,7.9313,7.9217,7.9217,7.9584,8.0126,8.0571,8.0571,8.0975,8.1358,8.1358,8.1358,8.1358,8.1358,8.1358,8.1358,8.1358,8.1358,8.1122,8.0608,8.0314,7.991,7.9412,7.9066,7.8883,7.8883,7.8883,7.8662,7.8148,7.7744,7.7312,7.6801,7.6545,7.6378,7.6292,7.6292,7.6292,3.5625,3.8525,4.1812,4.5905,4.9576,5.324,5.7285,6.0452,6.3566,6.7339,6.8564,6.9309,7.0388,7.0825,7.1037,7.1037,7.0998,7.1273,7.2127,7.2472,7.2937,0.0,0.0,0.0,0.0,0.0,0.0,0.0,0.0,0.0,7.6015,7.6015,7.6015,7.6015,7.6015,7.6015,7.6015,7.6015,7.6015,7.6015,7.6015,7.6015,7.6015,7.6284,7.6746,7.733,7.79,7.813,7.8246,7.9361,7.9954,8.0238,8.0815,8.1029,8.0928,8.0352,7.984,7.9267,7.7822,7.7008,7.64,7.5486,7.5687,7.6236,7.6167,7.6695,7.7299,7.7166,7.7017,7.6799,7.6499,7.6622,7.712,7.8305,7.8993,7.9559,8.011,7.99,7.9802,8.0267,8.0892,8.1415,8.1415,8.1856,8.2186,8.2186,8.2186,8.2186,8.2186,8.2186,8.2186,8.2186,8.2186,8.1966,8.1452,8.1158,8.0755,8.0257,7.9963,7.9816,7.9816,7.9816,7.9559,7.8993,7.8686,7.8102,7.7283,7.6637,7.6292,7.6292,7.6292,7.6292,0.0,0.0,0.0,4.1449,4.4952,4.8493,5.2022,5.5555,5.9279,6.3667,6.5909,6.7577,6.9445,7.0368,7.086,7.0898,7.0898,7.1206,7.2098,7.2976,7.3815,0.0,0.0,0.0,0.0,0.0,0.0,0.0,0.0,7.6015,7.6015,7.6015,7.6015,7.6015,7.6015,7.6015,7.6015,7.6015,7.6015,7.6015,7.6015,7.6015,7.6015,7.6899,7.733,7.7438,7.9085,7.9815,7.9846,7.9854,8.0269,8.0888,8.088,8.0822,8.0784,8.0737,7.9977,7.8952,7.8797,7.7852,7.6719,7.6564,7.6955,7.7437,7.7424,7.7997,7.8581,7.8434,7.8285,7.8104,7.7879,7.7569,7.7546,7.8442,7.8662,7.9103,8.0681,8.1012,8.1048,8.1048,8.1672,8.2186,8.2186,8.2186,8.2186,8.2186,8.2186,8.2186,8.2186,8.2186,8.2186,8.2186,8.2186,8.2186,8.2186,8.1489,8.1048,8.1048,8.0277,7.989,7.989,7.989,7.9853,7.9853,7.9641,7.9141,7.832,7.6977,7.6328,7.6292,7.6328,7.6364,3.1523,0.0,0.0,0.0,0.0,0.0,4.5926,5.0685,5.5895,6.087,6.3717,6.6211,6.9194,6.9912,7.0206,7.0821,7.0898,7.1437,7.2937,7.3353,7.4046,0.0,0.0,0.0,0.0,0.0,0.0,0.0,7.6015,7.6015,7.6015,7.6015,7.6015,7.6015,7.6015,7.6015,7.6015,7.6015,7.6015,7.6015,7.6015,7.6015,7.6015,7.6899,7.76,7.8154,7.9268,8.0043,8.0531,8.0699,8.0815,8.0871,8.0629,8.0485,8.0259,7.9388,7.8805,7.8414,7.8024,7.754,7.714,7.7265,7.7803,7.8382,7.8315,7.8433,7.8581,7.8573,7.8049,7.7694,7.8229,7.8321,7.8442,7.925,7.991,8.0461,8.0901,8.1452,8.1856,8.1856,8.2039,8.2186,8.2186,8.2186,8.2186,8.2186,8.2186,8.2186,8.2186,8.2186,8.2186,8.2186,8.2186,8.2186,8.2186,8.2003,8.1856,8.1856,8.1636,8.1542,8.1542,8.1542,8.1269,8.0681,8.0447,7.9897,7.8946,7.788,7.7093,7.6531,7.6958,7.747,3.2444,0.0,0.0,3.4668,0.0,0.0,4.1886,4.6541,5.1722,5.6548,5.987,6.2829,6.5865,6.671,6.7095,6.7556,6.8247,6.9837,7.3038,7.3507,7.4123,0.0,0.0,0.0,0.0,7.6015,0.0,7.6015,7.6015,7.6015,7.6015,7.6015,7.6015,7.6015,7.6015,7.6015,7.6015,7.6361,7.6553,7.6553,7.6861,7.7053,7.7053,7.7938,7.8546,7.899,7.9689,8.0199,8.054,8.0531,8.0567,8.0602,8.0383,8.0141,7.9861,7.9112,7.8689,7.8445,7.8079,7.7769,7.7529,7.7599,7.8112,7.8698,7.862,7.8809,7.9045,7.8699,7.8222,7.8023,7.8883,7.9103,7.9286,8.0094,8.0645,8.1085,8.1415,8.1856,8.2186,8.2186,8.2186,8.2186,8.2186,8.2186,8.2186,8.2186,8.2186,8.2186,8.2186,8.2186,8.2186,8.2186,8.2186,8.2186,8.2186,8.2186,8.2186,8.2186,8.2186,8.2186,8.2186,8.2186,8.1966,8.1525,8.1289,8.0672,7.9601,7.8389,7.7525,7.697,7.734,7.7941,3.5374,3.5306,0.0,0.0,3.6963,0.0,3.9115,4.273,4.698,5.1217,5.4733,5.7844,6.0527,6.1607,6.2105,6.2182,6.3761,6.6846,7.2171,7.3077,7.3846,0.0,0.0,0.0,7.5861,7.5861,7.5861,7.5861,7.5938,7.6015,7.6015,7.6015,7.6015,7.6015,7.6015,7.6007,7.6,7.6854,7.7269,7.7262,7.8108,7.8492,7.8492,7.9369,7.9699,7.9654,8.0168,8.0287,8.0103,7.9794,7.9895,8.0199,8.002,7.9778,7.9505,7.9293,7.9016,7.87,7.8655,7.8323,7.7909,7.7871,7.8272,7.8736,7.8846,7.9286,7.9669,7.8919,7.8736,7.8883,7.9596,7.9816,8.0,8.0681,8.0938,8.1195,8.1893,8.215,8.2186,8.2186,8.2186,8.2186,8.2186,8.2186,8.2186,8.2186,8.2186,8.2186,8.2186,8.2186,8.2186,8.2186,8.2186,8.2186,8.2186,8.2186,8.2186,8.2186,8.2186,8.2186,8.2186,8.2186,8.2186,8.2186,8.1969,8.1335,8.0212,7.8666,7.7875,7.776,7.776,7.8195,3.7343,3.7795,3.7772,3.6168,0.0,0.0,3.5873,3.8483,4.2133,4.5755,4.8627,5.1548,5.4795,5.5527,5.5832,5.6487,5.8727,6.2473,6.8464,7.0476,7.222,7.4654,0.0,0.0,7.4892,7.493,7.493,7.493,7.5592,7.6015,7.6015,7.6015,7.6015,7.6015,7.6015,7.5985,7.5918,7.6725,7.7116,7.7083,7.7919,7.8341,7.838,7.9185,7.9403,7.9151,7.9857,7.9979,7.9691,7.9524,7.9547,7.9632,7.9314,7.9114,7.8891,7.8424,7.823,7.823,7.861,7.8692,7.8667,7.9212,7.9465,7.9706,8.0351,8.0167,7.9779,7.9596,7.9559,7.9596,7.9779,7.9816,7.9853,8.0,8.0534,8.1048,8.1195,8.1746,8.2186,8.2186,8.2186,8.2186,8.2186,8.2186,8.2186,8.2186,8.2186,8.2186,8.2186,8.2186,8.2186,8.2186,8.2186,8.2186,8.2186,8.2186,8.2186,8.2186,8.2186,8.2186,8.2186,8.2186,8.2186,8.2186,8.1835,8.1163,8.0212,7.9231,7.9,7.9426,7.9426,7.9861,4.0346,4.0055,3.9349,3.7714,0.0,0.0,0.0,3.6889,3.9798,4.2415,4.4964,4.7492,5.006,5.0516,5.0629,5.1054,5.3359,5.6678,6.1144,6.627,7.0675,7.3731,0.0,0.0,7.4046,7.4084,7.4276,7.4661,7.5091,7.5553,7.5976,7.6015,7.6015,7.6015,7.6015,7.5978,7.5887,7.6536,7.6812,7.6755,7.7415,7.7951,7.8361,7.8752,7.9055,7.924,7.9442,7.9433,7.9162,7.8841,7.8739,7.8765,7.8866,7.8763,7.8525,7.8155,7.7914,7.7828,7.8122,7.8149,7.8109,7.8421,7.8846,7.9302,7.969,7.9507,7.9376,8.0167,8.011,8.0,8.0807,8.0991,8.0991,8.0991,8.1305,8.1599,8.1599,8.1929,8.2186,8.2186,8.2186,8.2186,8.2186,8.2186,8.2186,8.2186,8.2553,8.2663,8.226,8.2553,8.2627,8.2223,8.2186,8.2186,8.2186,8.2186,8.2186,8.2186,8.2186,8.2186,8.2186,8.2186,8.2154,8.2071,8.1852,8.145,8.0811,8.0411,8.0089,7.9897,7.9897,8.0332,0.0,0.0,0.0,0.0,0.0,3.6447,0.0,0.0,0.0,4.0057,4.2015,4.3843,4.5371,4.5635,4.5635,4.5635,0.0,0.0,0.0,6.0293,0.0,7.1196,0.0,0.0,0.0,7.2647,7.3063,7.3856,7.4101,7.4562,7.5432,7.5793,7.5985,7.5932,7.5985,7.594,7.5841,7.634,7.6537,7.6446,7.6951,7.7516,7.8139,7.829,7.8657,7.918,7.9001,7.8879,7.8712,7.8202,7.8014,7.802,7.8461,7.8421,7.8179,7.7986,7.7806,7.7569,7.7575,7.7433,7.7289,7.7289,7.7876,7.8589,7.8589,7.8699,7.914,8.0608,8.0534,8.0367,8.1819,8.2186,8.2186,8.2186,8.2186,8.2186,8.2186,8.2186,8.2186,8.2186,8.2186,8.2186,8.2186,8.2186,8.2186,8.2186,8.2737,8.2904,8.226,8.2774,8.292,8.226,8.2186,8.2186,8.2186,8.2186,8.2186,8.2186,8.2186,8.2186,8.2186,8.2186,8.2104,8.1902,8.1852,8.1683,8.1392,8.1358,8.0925,8.0151,8.0151,8.0476,0.0,0.0,0.0,0.0,4.1653,0.0,0.0,0.0,3.7141,3.8054,0.0,3.8955,3.9855,0.0,0.0,0.0,0.0,0.0,4.8619,5.1392,5.6137,6.4433,0.0,0.0,0.0,0.0,7.0364,7.109,7.1924,7.2738,7.3469,7.5027,7.5872,7.5724,7.5864,7.5825,7.5625,7.6209,7.6436,7.6224,7.6787,7.7077,7.719,7.7896,7.8137,7.8013,7.8591,7.8712,7.8498,7.8155,7.8014,7.8,7.7943,7.7885,7.785,7.7688,7.765,7.7554,7.7402,7.7341,7.7289,7.7289,7.7876,7.8589,7.8589,7.9103,7.9853,8.0755,8.0938,8.1085,8.1966,8.2186,8.2186,8.2186,8.2186,8.2186,8.2186,8.2186,8.2186,8.2186,8.2186,8.2186,8.2186,8.2186,8.2186,8.2186,8.226,8.2296,8.2186,8.226,8.2296,8.2186,8.2186,8.2186,8.2186,8.2186,8.2186,8.2186,8.2186,8.2186,8.2186,8.2186,8.2104,8.1902,8.1734,8.1564,8.1392,8.1217,8.1074,8.0966,8.0966,8.1002,0.0,0.0,0.0,0.0,0.0,0.0,3.7343,0.0,3.764,0.0,0.0,0.0,0.0,0.0,0.0,0.0,4.0866,0.0,0.0,0.0,5.0379,0.0,0.0,0.0,0.0,0.0,0.0,0.0,0.0,7.0501,7.2272,7.4385,7.5565,7.5658,7.5565,7.5561,7.5523,7.5494,7.5337,7.5149,7.4983,7.5146,7.562,7.5957,7.6568,7.7411,7.7694,7.8048,7.8359,7.8014,7.7871,7.7856,7.7592,7.7584,7.7673,7.7599,7.7508,7.7417,7.7341,7.7619,7.8148,7.8589,7.8993,7.9302,7.9302,7.9522,7.9963,8.0791,8.1012,8.1195,8.2003,8.2186,8.2186,8.2186,8.2186,8.2186,8.2186,8.2186,8.2186,8.2186,8.2186,8.2186,8.2186,8.2186,8.2186,8.2186,8.259,8.2737,8.226,8.2627,8.2737,8.226,8.2186,8.2186,8.2186,8.2186,8.2186,8.2186,8.2186,8.2154,8.2038,8.2038,8.1919,8.1734,8.163,8.1529,8.1392,8.1305,8.1199,8.1111,8.1111,8.1111,5.3689,0.0,0.0,0.0,0.0,0.0,0.0,0.0,0.0,0.0,0.0,0.0,0.0,0.0,0.0,0.0,0.0,4.094,0.0,4.2568,0.0,0.0,0.0,0.0,0.0,0.0,0.0,0.0,0.0,0.0,7.0075,7.3004,7.4705,7.5028,7.5172,7.5288,7.531,7.4873,7.4653,7.4647,7.4039,7.4166,7.4946,7.5169,7.5949,7.7101,7.7324,7.7742,7.8207,7.7937,7.7791,7.7718,7.7433,7.7402,7.7545,7.7803,7.7616,7.7326,7.7582,7.806,7.8736,7.9559,7.9816,7.9816,7.9816,7.9816,7.9963,8.0791,8.1012,8.1195,8.2003,8.2186,8.2186,8.2186,8.2186,8.2186,8.2186,8.2186,8.2186,8.2186,8.2186,8.2186,8.2186,8.2186,8.2186,8.2186,8.27,8.2884,8.226,8.27,8.2847,8.226,8.2186,8.2186,8.2186,8.2186,8.2186,8.2186,8.2186,8.2121,8.1902,8.1885,8.1802,8.1596,8.1581,8.1495,8.1392,8.134,8.1234,8.1111,8.1111,8.1111,0.0,0.0,0.0,4.9414,0.0,0.0,0.0,0.0,4.0538,0.0,0.0,0.0,0.0,0.0,0.0,0.0,0.0,0.0,0.0,0.0,0.0,0.0,0.0,0.0,0.0,0.0,0.0,0.0,0.0,0.0,6.6105,7.0342,7.2994,7.3646,7.4591,7.5009,7.4829,7.4678,7.4821,7.5249,7.4796,7.4983,7.5801,7.6655,7.7064,7.7138,7.7919,7.8169,7.8014,7.7842,7.7718,7.7605,7.7387,7.7289,7.7399,7.8259,7.8038,7.7436,7.8259,7.8589,7.8736,7.9559,7.9816,7.9816,7.9816,7.9816,7.9963,8.0791,8.1012,8.1195,8.2003,8.2186,8.2186,8.2186,8.2186,8.2186,8.2186,8.2186,8.2186,8.2186,8.2186,8.2186,8.2186,8.2186,8.2186,8.2186,8.2223,8.2223,8.2186,8.2223,8.2223,8.2186,8.2186,8.2186,8.2186,8.2186,8.2186,8.2186,8.2186,8.2121,8.1902,8.1885,8.1802,8.1596,8.146,8.141,8.1392,8.1199,8.1128,8.1111,8.1111,8.1111,0.0,0.0,5.5824,5.3025,0.0,0.0,0.0,0.0,0.0,0.0,0.0,0.0,0.0,0.0,0.0,0.0,0.0,0.0,0.0,0.0,0.0,0.0,0.0,4.9408,0.0,0.0,0.0,0.0,5.5911,0.0,0.0,6.7258,7.0382,7.2363,7.3711,7.4417,7.4482,7.4296,7.4541,7.5143,7.4783,7.502,7.5801,7.6098,7.6544,7.7101,7.7251,7.7589,7.8,7.7776,7.7628,7.759,7.7387,7.7656,7.8222,7.8479,7.8405,7.8369,7.9727,8.0204,8.0314,8.1122,8.1379,8.1379,8.1379,8.1379,8.1468,8.1709,8.1782,8.1856,8.2113,8.2186,8.2186,8.2186,8.2186,8.2186,8.2186,8.2186,8.2186,8.2186,8.2186,8.2186,8.2186,8.2186,8.2186,8.2186,8.2186,8.2186,8.2186,8.2186,8.2186,8.2186,8.2186,8.2186,8.2186,8.2186,8.2186,8.2186,8.2186,8.2121,8.1902,8.1885,8.1751,8.146,8.1427,8.1322,8.1181,8.111,8.1111,8.1111,8.1111,8.1111,6.3091,6.1484,0.0,0.0,5.3843,0.0,4.6963,0.0,0.0,0.0,0.0,0.0,0.0,0.0,0.0,0.0,0.0,0.0,0.0,3.8674,0.0,0.0,4.2701,4.542,4.6807,4.813,4.9363,5.0551,5.1914,5.4848,0.0,0.0,6.7513,7.069,7.2586,7.3738,7.4111,7.4301,7.4744,7.5421,7.5463,7.5912,7.6692,7.6692,7.6962,7.7413,7.7279,7.7476,7.7827,7.7658,7.7575,7.7515,7.7702,7.8112,7.8626,7.8919,7.9213,7.9617,8.0645,8.1012,8.1122,8.1929,8.2186,8.2186,8.2186,8.2186,8.2186,8.2186,8.2186,8.2186,8.2186,8.2186,8.2186,8.2186,8.2186,8.2186,8.2186,8.2186,8.2186,8.2186,8.2186,8.2186,8.2186,8.2186,8.2186,8.2186,8.2186,8.2186,8.2186,8.2186,8.2186,8.2186,8.2186,8.2186,8.2186,8.2186,8.2186,8.2186,8.2186,8.2121,8.1902,8.1835,8.1666,8.141,8.1322,8.1217,8.1111,8.1111,8.1111,8.1111,8.1111,8.1111]}]]